GFSSGP_sfc_30mbdewp_000.txt.gz
Dewpoint
38 29 29 24 13 18 22 26 35 42 42 48 47 43 45 51 45 44 57 58 56 60 64 65 69 69 68 68 68 68 69 68 68 68 66 65 67 67 66 65 64 62 62 61 62 63 62 66 67
29 22 20 16 11 12 20 29 32 40 47 47 48 48 44 47 54 56 55 57 56 60 64 64 69 70 69 69 69 68 69 69 69 68 67 67 67 67 66 64 63 63 63 63 64 64 65 65 64
28 20 13 12 10 14 20 27 41 45 47 47 45 49 49 47 52 52 55 54 56 59 62 65 69 69 70 71 70 70 69 69 69 69 68 67 66 65 64 64 63 63 63 63 64 65 66 65 64
20 13 19 13 14 25 27 35 40 43 47 47 41 43 52 56 53 54 56 54 53 55 59 66 69 69 69 69 69 69 69 69 69 68 68 67 66 63 62 63 62 63 63 63 63 62 61 62 64
11 13 17 16 20 29 33 38 42 38 41 44 44 43 47 57 60 57 57 55 52 52 57 58 68 68 68 68 67 67 68 68 68 68 67 66 65 64 63 62 62 62 61 62 62 63 63 64 64
9 20 15 16 24 31 35 41 37 34 39 43 42 41 46 58 57 56 57 54 51 53 57 58 65 67 67 67 66 66 66 66 66 66 67 66 65 64 63 61 61 61 60 60 60 60 61 61 62
11 13 12 15 20 23 26 31 30 30 33 34 40 35 50 56 55 57 54 53 52 52 55 57 57 61 65 65 65 65 66 65 65 65 65 65 64 63 62 61 60 60 60 59 58 59 59 59 59
9 8 9 10 10 7 8 12 22 23 29 44 41 31 42 52 58 58 54 53 53 55 54 57 59 58 59 58 63 64 65 65 64 63 62 63 62 61 60 58 59 59 58 58 58 58 57 57 58
11 3 1 2 2 5 8 7 12 26 31 35 37 36 45 55 59 58 55 53 53 55 58 59 58 58 58 56 59 61 63 64 64 62 62 61 57 58 56 58 59 59 59 58 57 56 54 53 55
7 3 3 3 6 5 7 6 11 17 19 22 31 43 52 57 58 56 55 52 54 55 58 59 60 59 58 55 58 58 58 58 60 60 61 58 60 59 58 59 59 59 58 56 56 57 56 54 48
12 5 7 8 10 8 7 7 9 8 10 14 19 35 52 55 56 54 53 49 52 55 56 58 61 61 59 54 56 54 54 56 58 61 62 60 60 58 57 56 55 55 57 54 54 54 52 53 52
12 15 11 11 14 12 10 13 12 11 7 17 23 34 47 51 50 49 48 48 49 52 55 58 60 61 61 56 54 54 54 54 55 57 61 60 57 57 56 54 52 53 53 55 53 52 54 49 46
13 17 19 18 17 18 19 16 18 16 15 18 27 40 44 45 46 48 47 45 47 52 56 59 61 61 59 60 56 57 57 54 56 56 56 59 56 54 53 51 49 49 51 51 52 50 47 40 37
23 21 21 21 22 21 21 20 19 17 19 18 23 33 41 43 43 45 47 48 50 53 56 60 61 59 55 56 58 55 54 52 52 51 51 56 57 52 49 46 44 44 45 48 49 47 44 39 37
22 19 20 21 21 22 19 16 14 17 18 19 18 23 36 41 41 41 43 47 48 50 54 59 58 54 54 53 52 50 47 49 46 46 49 51 51 48 48 44 44 44 45 48 50 50 45 41 37
15 16 12 21 21 24 21 13 17 24 24 19 24 21 31 40 42 41 43 47 50 51 54 56 54 49 50 49 50 48 46 48 46 46 47 49 50 50 48 45 44 44 46 45 46 46 44 41 37
13 5 9 17 23 24 22 16 22 22 22 24 23 24 21 34 43 47 51 50 48 48 52 53 51 41 45 49 49 49 50 47 42 43 42 43 46 46 47 45 44 45 45 44 45 44 43 41 37
9 8 11 12 18 21 21 21 20 23 23 26 25 24 20 29 42 43 40 39 43 47 52 51 45 44 49 48 48 43 42 41 40 39 39 40 40 42 44 44 45 47 46 45 43 44 43 41 39
16 14 14 15 23 27 25 18 20 23 23 24 24 22 25 32 35 36 36 37 44 51 50 48 46 44 42 38 37 35 36 36 37 38 41 42 41 41 42 41 42 43 43 44 46 45 44 44 41
18 16 15 20 24 27 22 20 20 23 25 27 25 25 27 29 31 34 37 39 41 45 45 42 39 39 38 36 38 39 40 38 40 38 39 38 37 36 36 38 39 39 40 41 43 44 44 44 43
20 18 22 22 24 26 23 21 20 22 24 26 27 27 28 28 30 32 36 38 40 40 39 38 39 39 39 38 36 36 36 36 35 35 34 35 35 35 35 36 38 39 39 37 38 40 41 40 42
19 25 27 25 23 17 25 14 23 20 22 24 26 28 29 29 30 31 32 36 38 41 41 39 39 38 38 38 37 38 35 35 36 36 35 35 33 34 35 35 37 38 37 37 36 35 37 38 38
26 30 28 27 24 24 23 16 23 23 22 24 26 29 30 31 33 35 36 37 38 40 40 40 39 38 38 37 38 36 37 37 36 35 33 30 29 32 33 36 37 38 37 36 39 40 40 40 40
30 28 28 28 27 22 24 21 22 24 25 25 28 32 33 34 33 36 37 37 38 40 41 40 37 37 38 38 37 39 40 38 35 32 30 28 30 30 32 36 37 38 38 37 37 39 40 39 39
27 24 20 23 22 20 24 21 25 26 27 29 31 33 35 37 36 35 36 36 38 39 40 37 37 36 38 38 36 36 36 35 33 32 30 31 30 30 33 37 36 35 36 36 36 37 37 37 37
28 27 25 18 19 19 23 17 24 28 30 31 31 33 34 35 36 35 36 36 38 39 40 39 37 36 35 35 33 32 36 36 34 32 33 32 32 34 37 36 35 36 36 37 37 37 36 36 36
27 27 30 27 28 27 21 25 28 28 29 29 30 32 33 34 34 35 35 36 38 39 39 40 39 36 36 36 37 37 38 36 34 33 32 32 34 34 35 36 34 31 32 32 33 35 35 34 34
29 31 25 24 21 12 11 15 17 27 28 29 29 32 34 34 34 35 35 36 38 39 40 40 40 39 39 38 37 36 36 35 33 32 32 33 34 36 33 31 30 31 32 35 35 34 34 33 31
29 29 27 25 26 18 17 14 27 26 27 28 30 30 33 35 35 35 36 36 37 40 40 39 40 40 38 36 35 34 34 32 32 32 33 34 34 32 31 30 31 33 35 37 36 33 31 26 25
31 28 27 20 20 26 26 22 27 28 28 30 30 31 33 36 35 35 36 37 38 39 39 39 39 36 36 34 33 33 33 32 32 33 34 34 34 34 33 35 36 36 36 32 30 28 25 22 20

GFSSGP_sfc_30mbdewp_003.txt.gz
Dewpoint
40 34 25 24 15 12 22 27 31 33 37 42 39 39 39 44 46 45 52 53 58 60 62 65 70 69 69 68 67 67 69 69 69 67 66 67 67 67 66 65 64 64 64 64 64 65 65 66 67
29 21 22 18 12 11 20 24 29 34 37 37 36 35 36 43 50 51 49 52 57 60 61 65 70 70 69 69 68 69 68 69 68 68 68 68 67 66 66 65 65 64 64 65 65 65 66 65 65
37 23 16 9 9 10 20 23 33 35 37 36 34 37 39 43 46 47 49 52 56 58 61 68 70 71 70 70 69 69 69 70 70 69 68 68 67 65 64 64 63 63 64 63 63 63 64 66 65
22 13 14 10 14 19 20 30 33 34 38 37 32 37 47 46 46 49 49 50 52 55 60 69 70 70 70 70 70 70 70 70 69 69 68 67 65 64 64 63 63 63 62 62 63 63 63 63 63
17 13 11 12 19 23 29 30 31 32 33 33 32 32 44 53 52 49 48 48 48 49 54 64 69 69 69 69 68 69 69 69 68 68 67 66 65 65 63 62 62 61 60 59 60 61 62 64 64
11 14 13 15 19 27 30 33 31 28 31 30 31 34 45 52 50 50 48 46 45 50 53 56 65 68 68 68 67 67 67 66 66 66 66 65 64 63 62 61 61 61 60 59 58 58 59 60 60
13 17 14 18 22 25 28 29 25 22 26 26 29 31 44 47 50 50 47 44 43 49 52 53 55 62 65 65 66 66 66 66 65 65 65 65 64 62 61 61 60 60 59 59 58 57 57 58 59
11 13 12 14 17 16 17 19 23 22 26 28 27 28 38 47 50 49 46 44 44 47 51 54 54 54 56 60 64 65 66 66 65 64 63 63 62 61 58 59 59 59 58 58 57 57 56 56 57
9 7 6 6 6 5 6 5 9 14 24 25 26 36 37 51 52 48 46 43 46 48 53 54 54 54 54 52 59 61 63 64 63 62 61 61 57 56 56 58 59 59 59 58 56 55 53 53 55
6 3 2 2 4 3 3 4 5 13 19 15 25 33 44 50 50 47 43 42 46 51 51 56 56 55 54 48 52 52 53 55 56 57 57 54 56 56 55 58 60 60 59 57 56 56 56 56 47
6 5 4 4 3 -0 -1 1 3 5 8 12 20 28 42 46 47 46 45 43 46 50 50 54 60 57 54 49 51 50 50 52 53 57 57 55 55 54 53 53 54 56 59 53 55 54 52 52 49
7 6 5 5 6 5 2 5 6 5 4 11 16 31 40 45 45 45 45 43 45 47 47 55 59 57 55 52 50 50 49 50 50 53 55 54 52 52 52 50 49 47 46 50 49 49 50 49 43
7 8 7 7 10 11 13 10 13 7 10 13 21 33 39 44 44 44 44 43 44 44 47 52 57 53 51 54 52 53 53 51 52 51 51 52 52 51 49 47 45 43 43 44 46 46 45 43 39
12 14 16 17 18 18 17 15 16 16 14 13 18 27 35 38 40 42 43 42 42 43 48 52 55 53 49 50 53 53 51 49 48 46 47 50 51 49 47 45 43 42 42 43 44 45 46 42 38
16 14 17 18 19 18 18 15 14 16 17 16 15 19 29 35 37 39 42 42 44 45 47 53 54 51 47 49 50 47 43 45 44 43 46 46 48 47 47 45 44 43 44 44 45 44 45 44 42
14 14 13 17 18 21 19 14 15 18 19 17 20 18 22 31 34 35 39 42 43 43 46 51 53 48 46 47 46 44 44 44 45 44 44 46 47 47 47 45 44 44 46 44 43 43 43 43 41
12 9 8 17 18 18 17 14 19 21 20 19 18 20 20 25 33 36 37 39 42 43 45 48 52 43 43 47 45 46 45 45 41 41 40 42 43 43 45 44 45 48 46 47 47 45 45 43 43
7 4 5 7 17 13 13 14 18 21 22 21 19 20 20 21 32 38 43 42 42 43 44 47 50 41 43 45 46 41 41 41 39 39 40 42 42 44 44 44 46 47 46 46 46 48 46 47 45
11 10 9 13 18 17 19 14 19 22 22 23 21 22 22 22 34 42 40 40 43 47 45 44 45 46 43 41 38 36 36 37 39 40 41 42 42 41 40 40 41 43 42 44 46 46 45 46 46
16 14 14 17 19 19 19 16 20 22 24 24 23 25 29 33 35 37 38 40 41 46 46 46 44 40 38 37 39 40 41 39 40 39 38 38 39 39 38 38 38 38 38 42 43 44 44 43 44
19 17 21 20 20 18 19 18 19 21 23 24 26 27 27 29 32 35 38 42 43 44 42 40 40 40 39 38 37 37 37 37 36 37 37 38 40 37 35 34 36 39 39 38 40 40 40 39 40
20 23 24 21 19 15 19 13 20 20 22 25 27 28 28 28 30 31 35 38 42 41 40 39 39 38 38 39 38 38 37 36 38 38 38 37 35 32 32 33 35 38 38 39 38 34 41 39 38
25 28 25 24 21 19 17 12 22 20 21 24 27 29 30 32 33 34 36 37 39 41 42 40 39 38 39 38 38 39 39 40 41 39 37 36 32 32 31 32 34 37 36 37 39 39 38 37 37
28 27 26 26 23 19 21 17 20 22 24 26 29 31 33 32 35 35 36 37 40 41 41 40 38 37 39 40 40 41 42 41 36 34 33 31 32 31 31 31 34 36 36 35 36 36 38 40 38
25 23 22 22 20 20 22 16 23 26 26 28 30 31 34 36 35 35 35 36 38 39 40 38 37 37 38 39 39 36 35 35 34 33 32 32 30 30 32 34 35 34 34 34 37 41 40 39 38
24 26 25 17 18 18 21 13 23 27 29 30 30 32 33 35 36 36 36 37 38 39 39 41 40 38 36 37 37 36 36 35 34 34 33 32 31 32 32 33 35 34 34 36 36 36 37 36 36
26 25 26 27 28 26 16 19 26 27 28 28 29 31 32 34 34 35 35 36 38 38 39 40 40 39 39 39 37 36 35 34 34 33 32 32 32 31 31 32 32 34 33 35 36 36 36 36 36
29 28 25 22 21 11 9 9 20 26 25 28 27 29 31 33 34 34 35 36 37 37 38 39 40 39 39 38 36 34 34 34 32 31 31 31 31 32 33 34 34 34 36 36 35 35 35 35 33
27 27 25 19 21 18 15 15 24 24 26 26 28 29 30 31 33 34 35 36 37 37 38 39 39 40 37 35 34 34 33 32 31 30 31 33 35 34 36 37 37 37 36 36 36 33 32 33 33
29 26 24 20 18 22 24 22 26 26 26 27 29 30 32 33 34 34 34 35 36 38 38 38 39 37 36 34 33 31 30 31 30 31 33 33 34 35 36 36 36 36 37 36 34 33 28 26 25

GFSSGP_sfc_30mbdewp_006.txt.gz
Dewpoint
40 33 32 25 22 17 12 24 33 35 36 37 39 36 40 47 49 46 52 56 61 63 65 67 69 69 68 68 70 69 70 69 68 68 67 67 67 66 65 65 65 64 64 65 65 65 66 65 65
33 32 21 22 18 14 15 28 29 34 35 31 33 33 40 44 49 49 51 57 61 64 65 68 69 69 69 69 69 69 69 68 68 68 68 67 67 66 65 64 64 64 63 63 63 63 66 66 65
42 31 18 17 15 11 21 26 34 32 30 31 33 43 41 43 46 48 53 57 63 66 68 70 70 69 70 70 70 69 69 69 69 68 68 66 65 64 63 64 64 63 62 63 63 63 62 63 64
29 21 16 12 10 18 23 32 31 31 35 34 35 40 43 45 46 48 52 54 56 65 68 69 69 70 70 70 70 70 69 69 69 68 67 66 65 64 63 63 62 61 60 61 61 62 63 64 65
29 21 12 13 19 24 29 30 29 30 31 31 31 41 46 48 46 46 47 50 52 62 66 68 68 69 69 68 68 68 68 68 67 67 66 65 64 63 62 61 61 60 59 59 58 59 59 60 61
18 14 12 12 21 25 27 27 29 33 32 28 31 40 47 47 45 45 44 45 48 56 62 63 67 67 67 67 67 67 66 66 66 66 64 64 63 62 62 61 60 60 59 58 58 57 57 58 59
21 18 14 18 21 25 29 31 25 23 26 26 30 40 45 46 47 44 43 43 49 51 53 57 62 63 64 65 66 66 66 65 65 64 64 64 63 61 61 60 59 58 58 57 56 56 56 55 57
16 14 12 21 19 21 23 22 22 22 26 25 26 34 40 47 47 44 42 41 46 51 53 55 58 59 61 63 64 65 65 64 63 63 62 63 62 60 59 59 58 58 57 56 55 55 54 54 54
11 9 14 12 14 12 13 9 13 12 25 23 31 32 44 47 47 44 42 41 44 50 53 54 54 54 60 60 61 63 63 63 62 62 61 61 61 61 59 57 58 57 57 57 56 54 53 53 54
8 7 6 4 4 5 4 5 4 9 20 19 28 41 49 49 47 44 42 41 45 50 52 57 55 55 52 51 59 61 59 61 61 60 60 60 57 57 55 58 59 58 58 58 58 57 56 56 55
7 5 3 2 5 3 1 2 2 10 12 14 24 32 47 49 47 44 41 41 46 50 51 58 58 56 54 52 53 54 55 55 58 59 58 57 56 57 57 60 61 61 60 60 58 58 57 54 53
6 4 3 3 3 1 -2 1 0 4 8 14 23 28 44 44 44 44 42 42 45 49 50 59 58 56 54 55 52 53 54 52 54 55 56 56 55 56 53 53 49 49 49 49 51 50 51 51 49
7 4 4 4 6 8 11 7 11 5 10 14 21 34 41 43 44 44 44 43 44 47 49 56 56 55 57 54 56 56 54 55 54 54 54 54 54 54 53 51 49 48 48 47 48 48 48 49 45
7 6 6 8 13 13 11 11 15 13 10 11 20 32 38 42 43 44 44 43 44 46 51 57 57 54 52 54 55 56 54 54 55 51 49 51 52 52 52 50 50 48 48 48 47 47 48 49 47
11 11 13 14 17 15 14 15 12 16 14 13 15 21 32 38 40 41 42 43 43 43 48 59 60 54 51 52 54 53 46 45 47 47 48 48 49 50 51 50 49 50 50 49 48 49 48 48 48
10 12 12 15 16 19 16 15 13 16 16 15 15 16 20 32 35 39 42 42 42 45 54 62 59 53 49 52 49 47 49 48 47 48 48 48 49 49 50 50 50 50 52 50 50 49 48 47 47
13 10 13 17 16 18 16 17 15 18 20 18 18 19 18 21 34 36 40 41 42 43 50 57 54 51 48 49 48 47 47 47 46 43 47 46 45 49 48 48 50 51 50 50 50 49 49 48 48
12 7 6 6 15 11 10 12 18 20 20 19 19 18 21 21 27 36 37 39 41 43 44 52 52 52 50 49 48 45 44 44 45 45 45 46 46 46 46 46 48 50 49 47 48 50 48 47 47
10 7 7 14 17 15 12 15 18 21 21 22 21 22 22 27 39 43 43 43 44 46 45 51 51 49 46 45 43 43 43 42 43 43 43 42 45 43 44 43 44 43 44 45 45 45 43 43 46
13 12 12 15 17 14 16 14 19 22 24 24 23 26 32 36 37 39 42 45 49 49 50 50 47 43 42 42 43 43 43 42 42 44 43 44 43 42 40 41 42 43 43 42 44 45 43 41 41
17 16 23 20 20 19 15 17 19 22 24 25 27 29 31 33 36 39 43 45 46 45 43 42 41 41 42 42 41 40 40 40 41 42 42 43 43 40 40 39 41 42 41 40 41 42 41 41 40
19 26 23 20 18 15 15 12 19 21 24 26 28 30 29 30 32 36 41 43 43 43 43 41 40 39 41 41 41 40 39 40 42 45 45 45 41 40 37 37 40 41 41 40 42 40 42 41 39
24 26 23 22 20 18 16 17 21 21 22 26 29 30 32 34 35 36 39 41 42 43 43 42 40 39 40 40 40 41 44 45 45 44 42 39 39 37 36 36 38 40 39 40 42 40 42 42 40
27 26 24 24 23 21 18 19 25 22 24 27 30 32 33 34 35 36 38 41 42 43 42 41 39 38 40 41 43 41 39 39 39 39 38 37 36 35 36 37 38 39 39 38 41 42 41 40 40
24 24 23 25 21 21 23 18 26 26 28 28 30 32 35 36 36 36 37 38 39 40 40 41 42 40 40 39 39 39 40 40 38 38 37 35 35 36 35 37 37 38 38 39 39 39 41 39 39
25 24 27 21 24 22 19 13 24 28 29 29 30 31 33 35 36 36 37 38 38 39 40 42 41 40 40 41 40 41 40 38 38 38 35 35 35 36 35 38 38 38 38 39 39 38 38 38 39
26 24 22 26 29 24 16 24 27 27 28 28 29 30 32 33 35 35 35 37 38 39 40 41 41 41 41 42 41 39 38 38 37 35 36 35 37 35 36 38 38 37 38 38 37 37 36 37 37
25 24 23 25 20 15 13 17 26 26 27 27 27 28 29 33 34 35 36 37 38 39 41 42 41 41 40 38 36 36 36 36 36 35 35 36 36 35 36 37 38 37 37 37 36 37 36 35 35
26 25 24 20 22 19 18 17 22 25 26 26 28 29 30 32 33 35 36 38 38 39 39 41 40 39 39 38 36 35 35 34 34 34 35 35 34 34 34 34 34 35 35 37 37 36 35 32 30
26 24 22 23 20 23 24 20 27 28 31 30 30 32 33 36 36 36 38 38 37 38 39 40 40 40 39 38 36 34 33 32 32 33 31 31 31 33 32 31 30 31 31 33 32 34 33 31 30

GFSSGP_sfc_30mbdewp_012.txt.gz
Dewpoint
36 32 34 28 21 21 17 23 34 38 44 48 49 49 49 50 48 48 64 66 68 68 68 68 69 70 70 70 69 69 69 68 68 68 67 66 65 64 64 64 64 63 62 62 62 62 62 63 63
36 33 31 24 20 17 22 31 40 41 44 46 47 49 52 55 61 62 63 66 67 68 68 68 69 70 70 70 69 69 68 68 68 67 66 65 64 64 63 63 63 61 61 61 61 62 62 63 64
37 35 21 20 19 15 23 30 35 40 42 43 45 46 47 54 60 61 64 66 67 68 68 69 69 69 69 69 70 69 69 69 68 66 65 64 64 63 62 61 60 60 59 58 58 59 59 60 61
31 27 19 14 13 14 25 31 37 42 44 45 45 46 48 53 58 64 67 68 68 68 69 69 69 69 69 69 69 69 69 68 66 66 64 63 63 62 61 60 59 59 58 57 57 57 57 58 59
36 23 15 13 19 31 31 32 34 36 45 45 45 44 48 61 65 66 67 67 67 67 69 69 69 70 69 69 68 68 68 67 67 66 65 63 62 61 60 60 59 58 57 57 56 55 56 56 57
22 17 13 11 20 31 29 34 35 44 44 44 45 46 46 59 63 64 66 67 67 67 68 68 69 68 68 68 67 66 66 65 66 65 64 62 62 61 60 59 59 57 55 55 54 53 54 54 54
20 17 14 14 24 31 26 28 31 44 46 46 44 43 44 53 60 62 64 66 66 66 66 66 66 66 65 64 64 64 65 64 64 64 63 61 60 60 60 59 58 56 55 54 53 53 53 54 53
21 18 14 13 23 24 19 20 24 36 41 46 45 42 42 44 53 60 62 62 63 63 64 63 64 64 63 63 63 63 62 62 63 63 61 61 60 60 60 59 58 56 55 54 54 54 54 54 54
20 17 12 12 22 20 13 21 21 33 41 43 42 44 43 45 48 53 54 57 58 59 60 61 61 61 62 62 62 62 61 61 61 61 61 61 60 59 60 60 57 58 56 56 57 57 56 55 55
19 12 10 10 16 15 8 12 17 34 43 45 46 45 43 43 46 48 49 52 54 56 57 58 58 58 60 60 62 61 61 61 61 61 61 61 61 60 58 60 59 59 58 58 59 59 59 58 56
13 9 3 8 12 9 4 5 13 35 41 45 44 44 42 40 42 45 46 50 53 55 56 58 59 57 57 57 58 59 60 61 61 61 61 61 60 60 61 59 59 59 58 59 58 58 57 57 56
9 7 2 5 4 3 4 6 11 19 33 46 45 44 43 41 40 41 43 48 52 54 55 56 59 57 56 57 58 58 59 60 60 60 58 55 55 53 54 55 53 53 51 54 55 54 51 50 52
3 3 3 11 12 5 2 -0 5 12 35 46 46 46 45 43 43 42 42 45 52 55 56 56 55 55 54 55 57 57 56 57 58 57 55 54 53 50 51 50 50 49 50 49 48 47 46 47 48
6 4 3 6 12 12 8 11 11 13 39 48 47 47 46 46 44 44 43 43 52 57 57 57 56 56 55 56 55 55 54 53 55 53 52 52 53 50 50 50 50 50 51 52 50 49 49 49 50
6 3 5 6 13 11 15 14 12 13 37 48 48 48 47 47 47 45 44 42 52 58 58 55 55 58 54 56 55 53 49 53 51 49 52 52 51 50 51 49 46 47 48 48 49 49 49 47 47
10 9 7 12 15 15 12 10 14 13 27 41 45 46 46 46 46 46 45 46 56 58 56 56 55 57 55 54 54 51 46 48 49 50 50 50 50 48 45 42 41 44 45 46 45 46 44 44 45
13 8 12 13 17 16 14 15 16 12 17 25 34 39 38 39 43 46 45 56 59 57 56 53 56 57 54 53 52 49 48 47 47 47 48 45 44 43 42 41 41 45 44 43 44 42 43 41 41
9 12 14 13 16 19 15 17 18 18 16 21 24 39 46 47 49 52 54 57 57 56 56 57 57 57 54 50 49 47 45 44 45 43 43 43 43 43 42 42 43 44 42 41 40 40 40 41 42
15 17 16 16 17 14 21 24 25 29 36 38 42 44 43 43 45 49 52 55 55 55 55 53 52 50 51 46 45 43 42 41 43 45 45 44 44 43 41 42 42 43 41 40 39 40 39 38 41
22 18 18 20 20 13 21 24 27 31 33 38 41 43 43 41 43 44 47 46 47 47 48 45 43 43 43 44 44 45 43 43 43 44 44 44 40 39 38 38 39 41 38 37 38 40 40 41 41
26 22 21 20 21 19 22 22 27 30 33 35 37 42 43 43 41 42 43 44 44 43 41 40 40 41 41 41 40 41 41 42 44 44 42 38 37 38 38 38 38 39 39 38 39 41 40 39 41
25 27 24 22 19 11 18 18 24 30 32 35 38 41 42 42 42 41 41 42 41 40 40 39 39 39 40 40 40 41 42 42 44 43 39 36 37 37 38 39 39 40 41 40 41 42 41 40 38
24 27 25 23 22 23 21 20 24 29 30 33 36 39 40 41 41 41 41 41 41 41 40 40 40 40 40 40 41 42 41 41 42 38 36 35 37 39 39 39 38 38 39 38 38 41 39 39 39
26 27 29 27 26 21 26 23 25 27 29 32 35 37 39 40 41 42 42 41 41 41 40 39 41 41 42 42 43 41 39 39 37 35 34 36 38 38 39 38 38 38 39 38 38 37 37 38 38
27 28 23 22 23 22 27 26 28 29 32 34 35 36 37 39 40 40 40 40 41 41 42 42 41 42 42 40 39 38 38 37 35 35 35 37 37 37 38 38 37 37 38 37 37 36 35 36 36
25 25 22 21 18 18 25 25 27 32 35 35 36 36 36 37 39 40 40 40 40 42 42 41 38 37 38 37 37 37 37 38 37 36 38 37 36 36 38 37 35 34 35 36 36 36 35 35 35
26 23 26 26 28 23 25 26 28 30 31 31 32 35 36 36 38 39 39 40 41 40 40 40 39 38 37 37 37 37 38 38 36 37 36 35 35 35 33 33 33 33 35 36 36 35 33 34 33
22 25 23 22 15 15 21 25 25 28 29 31 33 35 36 38 37 38 38 39 41 41 40 39 39 39 38 38 37 36 36 37 36 35 34 34 33 32 32 31 32 33 33 34 34 33 33 33 33
25 24 25 25 23 15 18 22 31 31 32 33 35 36 36 37 38 38 37 37 37 35 35 36 37 38 39 38 37 37 35 34 35 34 33 33 32 31 31 32 31 26 26 25 26 28 31 26 23
26 25 25 15 22 25 23 21 33 32 33 35 35 35 37 38 37 37 37 36 34 33 33 33 32 33 38 38 38 37 36 34 32 34 34 32 31 31 29 28 23 22 21 23 23 24 24 23 22

GFSSGP_sfc_30mbdewp_015.txt.gz
Dewpoint
34 31 34 27 21 21 16 18 39 40 46 50 51 50 54 57 52 48 64 66 68 68 68 69 69 69 69 69 69 69 68 68 67 67 66 65 64 64 63 63 61 60 60 60 61 62 62 63 63
32 33 29 24 19 11 18 36 41 44 47 47 47 51 54 56 61 63 64 67 68 68 68 69 69 70 70 69 69 69 68 68 67 66 65 64 63 62 62 61 61 60 59 58 58 58 59 59 60
36 34 20 19 18 14 20 36 42 46 47 44 45 46 51 57 62 62 66 67 67 67 68 69 69 70 70 69 69 69 69 68 67 66 64 64 62 61 60 60 59 58 57 56 56 56 57 57 58
30 27 18 16 14 16 22 35 41 43 45 46 47 48 49 59 61 64 66 67 67 68 68 68 69 69 69 69 69 69 69 67 67 65 64 63 61 60 60 59 58 57 56 55 54 54 56 56 56
32 22 14 13 13 26 29 38 42 42 44 45 46 46 52 63 65 66 67 67 67 68 68 68 68 69 69 69 68 68 67 66 66 65 63 62 61 60 59 59 58 57 56 55 55 55 55 55 54
21 18 13 12 16 30 29 36 45 45 45 47 49 49 50 65 64 66 67 66 66 68 68 69 69 68 68 68 68 67 66 66 65 64 63 62 61 60 59 58 57 56 54 54 55 55 55 55 55
21 14 15 14 31 32 31 33 44 43 44 44 47 46 55 62 64 66 66 65 66 67 68 68 68 68 67 66 66 65 64 64 64 64 63 62 61 60 59 59 57 55 54 54 54 55 55 55 55
22 17 14 13 27 33 35 24 42 45 44 45 45 46 55 57 63 65 65 65 66 66 65 65 65 64 64 63 63 63 63 63 63 63 62 60 60 59 60 59 59 56 54 55 55 55 55 56 56
20 17 13 13 27 26 29 20 27 41 44 44 45 45 56 57 62 62 62 62 62 62 62 62 62 62 62 62 62 62 62 62 62 62 61 60 59 59 59 59 58 58 56 57 58 58 58 58 56
21 17 14 13 22 31 27 29 38 43 44 44 43 45 52 56 57 56 57 57 58 58 60 60 60 60 61 61 61 61 61 61 61 61 60 60 60 59 59 59 60 60 60 59 59 60 60 59 56
18 14 7 6 17 20 18 21 27 42 42 43 42 45 49 53 52 51 52 51 52 55 57 58 58 59 59 58 60 60 60 60 60 61 61 60 60 60 60 59 58 58 58 56 57 56 57 55 55
17 8 10 6 13 7 6 9 32 26 39 45 43 44 46 48 49 50 51 52 53 55 55 57 57 57 57 58 58 58 59 60 60 60 60 58 56 54 55 56 52 50 50 50 50 50 49 48 49
14 3 8 8 6 5 3 5 14 18 42 45 43 42 43 44 46 48 50 52 53 55 56 57 58 56 56 57 57 58 58 59 59 59 58 55 52 51 51 50 50 50 50 50 49 49 49 49 49
7 4 8 12 9 4 4 9 12 26 46 44 42 41 41 41 43 44 46 49 53 54 55 57 57 56 55 56 57 57 57 57 58 57 55 54 53 51 50 50 48 47 48 48 48 48 47 46 46
5 3 5 10 11 11 15 13 11 30 46 45 43 43 43 42 41 41 42 46 52 55 56 57 57 56 55 55 56 55 54 55 56 53 52 51 52 51 49 44 43 45 46 46 45 45 44 41 42
9 9 7 9 14 15 10 3 14 37 46 45 45 46 46 47 46 46 45 43 53 57 58 59 59 57 56 56 56 51 49 49 50 51 50 50 48 45 43 42 42 44 45 44 43 43 39 39 41
13 8 9 13 15 15 12 14 17 24 46 46 43 42 42 47 50 51 51 47 56 57 57 58 59 58 55 55 54 50 48 47 48 46 44 44 43 44 42 42 44 45 42 42 41 40 40 39 39
6 10 12 11 15 17 14 17 26 22 30 29 43 45 46 48 52 56 57 56 56 57 57 57 57 56 54 54 48 46 45 45 44 43 44 44 44 43 42 42 43 42 40 38 38 38 39 39 40
15 16 15 16 16 23 25 28 33 39 42 42 43 44 47 47 50 51 53 55 54 54 54 55 54 53 48 47 44 44 44 45 45 45 44 41 41 39 38 39 40 39 37 37 38 39 39 38 41
19 17 19 21 21 25 27 29 33 37 41 42 42 43 45 47 47 48 50 51 52 50 47 46 47 46 45 46 48 48 45 43 46 43 40 39 38 38 38 38 39 39 39 39 39 40 40 40 41
25 21 20 19 22 25 27 28 31 34 39 42 42 42 43 46 46 47 48 48 48 42 41 41 41 41 43 43 43 42 43 43 44 41 37 38 38 39 39 39 39 40 40 39 41 40 40 39 40
22 26 23 21 21 20 21 22 29 33 38 40 42 42 42 43 43 43 42 40 39 39 39 39 39 40 40 41 40 40 41 41 43 41 37 38 39 39 39 38 39 39 39 38 39 39 39 38 38
24 27 23 23 22 21 21 23 27 32 35 38 40 41 41 41 41 40 39 39 39 40 39 40 41 41 41 41 42 43 41 42 39 37 36 38 39 39 39 39 38 38 38 37 37 36 36 37 37
26 28 29 30 26 21 27 23 25 28 32 36 38 40 41 40 41 41 41 41 41 41 40 42 42 42 41 40 39 39 38 36 35 35 34 38 38 39 40 38 37 38 37 37 36 36 35 35 35
27 27 22 21 22 22 26 25 26 29 32 35 37 38 40 41 41 41 41 41 41 42 42 41 40 38 38 37 37 37 36 36 35 35 35 38 38 39 37 36 34 33 35 36 36 35 34 33 33
24 26 23 20 21 18 26 25 28 32 34 36 37 38 39 40 40 40 40 40 40 40 39 37 37 36 36 37 36 36 37 38 37 36 37 38 37 36 37 35 33 33 34 35 35 35 33 33 33
25 23 27 25 26 23 25 27 29 32 35 35 35 37 37 38 39 39 40 40 39 39 39 39 39 37 37 37 37 36 37 38 37 37 37 37 36 36 36 35 34 34 34 35 35 34 33 33 33
24 27 21 21 12 14 22 25 25 29 31 31 35 36 38 38 38 39 39 39 38 37 38 38 39 38 38 38 38 38 37 37 37 37 36 35 35 35 33 33 33 32 32 32 32 30 29 31 32
25 23 25 26 22 13 17 24 30 29 31 32 36 37 37 37 36 37 37 37 36 35 34 35 34 35 38 39 38 38 38 36 35 35 35 34 33 33 33 33 32 30 25 25 24 24 27 27 23
26 24 22 14 20 24 21 19 32 32 34 35 36 36 37 37 37 37 36 35 34 33 33 29 28 27 28 30 31 31 33 34 35 33 34 33 32 33 30 32 32 27 24 23 23 22 25 23 21

GFSSGP_sfc_30mbdewp_018.txt.gz
Dewpoint
42 41 34 28 16 19 15 16 33 40 48 53 53 53 54 57 50 48 65 67 67 68 69 69 69 69 69 68 69 69 68 67 67 66 64 64 63 62 61 61 61 59 58 58 58 58 58 58 59
31 33 28 24 18 14 18 28 43 46 50 49 49 53 53 53 61 62 64 67 67 68 68 69 69 69 69 69 69 69 68 67 66 65 64 63 61 60 60 60 60 58 56 56 55 55 56 56 56
35 32 20 19 18 13 18 40 45 46 48 45 45 49 52 54 62 63 67 67 67 68 69 69 69 69 69 69 69 68 68 67 66 64 63 62 60 59 59 59 59 56 54 54 53 53 54 55 56
29 26 17 16 15 16 20 41 46 43 45 47 46 40 51 60 62 65 67 67 67 68 68 69 69 69 69 69 68 68 68 67 66 65 63 61 59 58 58 58 57 55 54 55 55 55 55 55 56
28 20 13 12 13 18 22 41 44 43 44 46 46 44 53 63 65 66 67 67 66 67 68 68 69 69 69 69 69 68 67 66 66 65 63 61 59 58 58 58 57 56 56 56 56 56 56 56 57
22 17 12 12 18 30 34 41 45 44 45 47 49 50 55 64 65 66 66 66 67 67 68 68 68 68 68 69 69 67 66 66 65 64 63 61 60 59 58 57 57 56 56 57 57 57 57 57 57
20 14 12 14 27 32 29 43 41 41 45 47 48 50 59 62 65 66 66 66 67 67 67 67 68 68 68 67 67 66 65 65 64 63 63 62 60 59 59 58 57 56 56 56 57 57 57 58 57
22 17 14 17 31 33 35 31 43 45 45 45 49 52 55 61 64 64 64 65 65 65 65 65 67 67 66 65 65 64 64 63 63 63 62 61 60 59 59 58 58 57 56 57 58 58 58 58 58
21 17 13 22 34 35 36 31 34 44 44 45 45 52 58 63 63 62 63 63 63 64 64 65 65 64 63 62 63 63 63 63 62 62 61 59 58 59 59 59 59 59 59 59 59 60 60 59 58
22 17 14 17 28 36 35 30 40 43 44 43 48 56 61 62 62 60 59 60 61 62 63 62 62 61 60 61 62 61 61 61 61 61 60 60 59 59 58 59 59 60 59 59 59 58 58 55 54
20 18 13 13 28 34 30 32 37 43 42 43 49 56 59 60 60 60 60 60 59 60 60 60 60 60 59 59 60 59 60 60 60 60 60 60 60 60 60 59 57 55 53 52 54 52 51 49 50
17 16 11 6 20 24 23 22 38 40 38 44 53 56 56 57 56 56 54 55 55 56 56 58 58 58 58 58 58 58 59 59 60 60 61 59 58 56 57 54 50 50 50 49 49 49 49 49 49
18 14 9 8 11 10 12 20 32 31 44 44 51 52 53 53 52 50 49 50 53 53 55 56 57 56 56 57 58 57 58 59 59 59 59 56 53 52 51 50 50 49 49 48 48 48 47 45 45
14 6 8 11 7 3 8 8 14 25 44 43 48 49 51 50 49 49 50 51 53 54 55 57 58 56 56 56 57 57 57 58 59 58 55 54 52 51 50 47 45 46 47 46 47 46 44 42 42
5 3 6 10 10 10 13 11 11 38 43 42 43 46 45 44 45 46 47 49 53 55 57 58 57 57 56 56 55 55 55 56 55 53 52 52 51 49 44 42 42 45 46 44 43 43 40 38 40
8 9 2 8 12 15 8 2 15 45 43 42 42 43 44 46 46 45 44 47 54 57 58 59 57 56 56 55 55 56 50 50 52 51 50 47 44 44 43 43 44 45 43 41 40 41 38 38 39
12 7 9 10 15 14 11 15 28 34 45 44 44 44 46 49 52 53 54 48 57 58 58 58 57 57 58 58 57 53 48 47 45 45 45 45 45 43 43 43 43 42 39 38 38 38 39 37 37
7 9 10 11 15 25 23 31 36 37 41 43 45 46 48 50 53 55 55 57 57 58 58 58 57 58 57 54 49 46 46 46 47 47 44 41 42 42 42 42 40 39 38 38 38 38 39 39 40
14 13 13 15 19 28 32 34 37 42 42 42 45 46 48 49 51 54 54 55 55 56 57 57 56 55 54 47 45 45 44 48 45 41 41 41 39 38 38 39 39 40 39 39 40 40 39 39 41
18 17 19 22 25 31 33 34 38 40 42 43 45 47 48 49 50 51 52 52 52 53 54 55 54 49 46 46 47 48 47 45 44 40 39 39 39 39 38 39 39 39 36 37 39 39 38 39 40
24 20 20 20 27 29 29 29 35 39 42 42 43 45 47 48 49 51 51 48 45 45 47 46 45 44 46 46 43 43 43 45 43 38 37 39 39 39 38 37 37 37 37 38 39 39 38 37 38
20 26 22 23 23 21 24 23 31 38 40 41 42 44 46 47 46 45 42 40 40 40 40 40 40 40 41 41 42 42 42 41 41 37 37 38 38 37 37 37 38 39 38 36 38 38 37 37 35
24 27 24 23 21 21 23 24 28 37 39 40 41 42 43 43 43 40 38 38 40 39 40 42 42 42 42 42 42 41 40 39 37 36 37 36 38 38 39 38 38 37 37 37 36 35 34 35 34
27 28 28 29 25 19 26 22 25 33 36 39 40 41 41 41 40 40 40 40 40 41 41 41 40 39 38 38 38 37 36 35 35 35 35 37 38 39 39 38 37 37 36 36 35 34 33 33 33
29 26 22 22 22 20 26 24 24 31 34 38 39 40 41 41 41 40 40 41 42 41 41 39 38 36 37 37 37 36 36 35 35 35 35 36 37 38 39 36 34 32 34 35 34 33 32 31 31
23 26 22 19 21 21 26 24 26 31 33 38 39 39 40 41 41 41 41 41 39 38 37 37 37 36 37 37 36 36 36 37 37 37 36 37 37 38 37 35 33 32 33 34 34 34 33 33 32
25 21 27 24 25 22 25 27 31 34 35 36 37 38 40 40 40 40 40 39 39 39 39 38 37 37 37 37 38 38 37 37 38 38 37 37 37 37 36 35 32 32 33 32 34 34 33 32 31
25 28 20 21 10 9 22 25 25 32 33 35 36 37 38 39 39 39 39 38 37 38 38 39 38 38 39 39 38 38 38 36 35 35 35 35 35 35 34 32 33 33 33 33 32 31 29 28 29
25 23 25 24 21 11 13 20 28 32 34 33 35 37 38 38 38 38 38 37 35 35 35 34 32 34 32 30 31 29 30 32 33 33 33 34 34 33 32 33 33 33 31 28 26 25 24 26 26
26 24 21 12 16 22 20 14 28 32 32 33 36 37 37 37 37 37 36 35 33 33 31 26 27 25 25 27 27 27 30 32 33 32 32 33 33 33 33 32 32 33 32 27 23 23 25 24 22

GFSSGP_sfc_30mbdewp_021.txt.gz
Dewpoint
51 39 34 29 17 19 16 16 37 46 51 54 54 53 53 56 53 49 65 66 67 68 68 66 68 69 68 68 69 69 68 67 66 65 64 63 62 61 61 61 61 59 57 56 56 55 54 54 54
30 32 29 26 15 12 17 35 46 49 51 52 51 52 50 49 60 63 63 67 68 68 68 66 67 69 68 69 69 68 67 66 65 64 63 62 61 61 60 60 59 57 55 54 53 52 53 56 57
33 30 22 20 19 11 19 44 47 48 48 45 48 53 55 51 60 63 66 67 67 67 67 66 67 69 69 69 69 68 68 67 65 64 62 60 59 59 59 59 58 56 55 55 53 53 55 57 58
30 27 19 17 12 17 24 44 46 48 50 50 47 45 56 61 60 64 67 67 66 67 67 68 68 69 69 69 69 68 68 67 65 64 62 59 58 57 58 59 58 57 57 56 55 56 57 57 58
27 20 15 14 13 16 23 44 45 44 45 47 48 42 55 63 65 67 67 66 66 67 67 67 68 68 69 69 69 68 67 66 65 64 62 60 57 57 58 59 58 58 58 57 57 58 58 58 58
24 19 14 13 25 32 38 44 45 43 43 45 47 52 57 65 65 66 66 65 66 66 67 68 68 69 69 69 68 67 66 65 65 64 63 60 59 59 58 58 58 58 58 58 58 59 59 59 59
21 16 13 16 31 32 36 46 44 43 45 47 50 52 59 63 65 66 65 65 66 66 67 67 67 68 68 68 67 66 65 65 64 63 63 61 60 60 59 59 58 58 59 59 59 59 59 60 59
22 18 16 22 32 34 31 38 44 44 45 47 52 52 55 62 65 65 65 65 66 66 65 66 67 66 67 67 66 65 64 64 63 63 62 60 59 59 59 58 59 59 59 59 60 60 59 59 57
21 17 14 24 34 36 37 33 39 45 45 45 46 56 59 63 64 63 64 64 64 65 65 65 66 66 66 65 64 63 63 63 62 62 60 59 58 59 59 59 60 60 60 60 60 60 59 54 53
22 18 15 22 38 39 41 31 36 44 45 43 54 60 62 63 62 61 62 61 62 63 63 64 65 64 63 61 62 61 61 60 61 60 61 60 60 59 59 59 59 59 57 57 58 57 54 50 50
22 19 17 16 36 40 37 34 42 43 43 43 50 58 60 61 60 60 60 61 61 62 64 63 63 62 60 59 60 59 60 60 60 61 61 61 61 61 61 59 55 54 53 52 51 51 50 51 50
18 19 12 9 25 34 31 31 42 42 40 43 54 60 60 60 59 59 59 60 60 61 61 60 60 60 60 59 59 59 59 60 60 61 62 61 60 59 58 52 52 52 51 51 51 50 51 48 46
19 18 11 11 14 27 25 30 40 39 42 49 57 60 60 59 58 58 58 57 57 56 57 58 58 58 58 58 58 59 59 60 61 61 60 58 55 54 53 52 50 49 48 48 47 47 45 44 42
18 10 9 10 9 13 22 18 27 31 44 53 56 57 57 55 55 53 51 51 53 53 55 58 58 57 57 58 58 58 60 59 59 59 58 57 54 54 52 48 46 47 47 46 45 44 41 40 40
8 7 9 10 9 10 13 12 15 39 43 50 53 52 52 51 50 49 49 50 52 54 57 58 58 58 57 57 59 58 55 54 55 56 56 55 54 50 47 46 46 47 46 45 43 41 40 38 37
8 9 6 11 13 14 8 7 29 37 42 44 47 46 47 47 48 50 47 50 54 57 58 59 57 57 58 59 59 58 56 55 53 54 51 49 48 48 47 47 46 45 42 41 42 39 36 35 35
12 5 8 11 24 15 15 18 35 38 44 43 44 45 47 50 53 55 54 54 57 58 58 58 59 59 59 59 59 56 50 48 47 49 49 49 47 47 46 44 44 42 40 40 38 38 38 35 34
7 9 11 11 21 27 29 34 38 40 43 45 45 47 49 51 52 53 55 57 59 59 58 59 59 58 59 57 53 48 48 49 50 48 45 44 43 44 42 41 41 40 38 38 38 37 37 37 37
10 11 13 18 26 33 36 37 39 41 43 44 46 47 49 50 54 55 57 58 58 58 58 58 58 58 55 49 47 47 48 50 43 41 42 41 41 41 41 39 39 39 39 40 40 38 36 32 37
18 18 21 25 30 33 35 37 40 41 42 44 45 47 49 51 52 54 55 56 57 57 58 57 56 56 49 47 48 50 49 46 41 40 41 40 40 40 39 40 40 40 38 40 39 38 33 34 37
23 20 20 24 29 31 31 31 38 41 43 45 46 48 51 51 52 53 53 54 53 54 55 54 49 48 47 49 47 46 47 45 42 38 38 39 39 38 40 41 40 39 38 38 38 37 34 28 32
22 25 25 27 24 21 25 16 33 40 42 45 46 49 50 52 52 49 45 45 47 46 47 46 45 44 44 44 45 45 43 43 40 38 38 38 40 39 39 40 40 40 38 36 35 33 32 29 24
25 25 25 22 21 22 23 23 29 39 40 43 44 46 47 48 46 41 40 40 40 42 43 43 43 43 43 44 44 41 40 39 38 38 39 39 39 40 40 40 40 38 35 35 33 32 30 29 26
30 28 29 28 25 17 24 22 24 37 39 41 42 43 43 43 41 40 40 41 41 43 43 43 40 39 40 40 39 38 37 38 37 37 38 39 39 40 41 40 38 36 34 34 33 33 32 29 28
28 26 21 20 22 18 27 25 23 31 37 41 40 41 42 42 40 40 40 40 42 42 41 40 38 38 39 39 38 38 38 38 37 38 37 38 38 39 39 40 38 33 34 34 34 32 31 30 27
26 26 21 14 20 22 25 24 25 32 34 41 40 40 41 41 41 41 41 42 41 40 39 39 38 38 38 38 38 39 39 39 39 39 39 38 38 38 39 39 35 33 34 34 34 34 33 33 31
25 20 28 24 25 22 23 26 29 34 33 39 39 40 40 41 41 41 41 41 39 39 39 39 37 37 38 39 40 40 40 39 36 35 37 37 37 36 38 38 35 35 34 33 33 32 33 32 30
26 28 20 22 10 13 18 23 23 31 32 37 38 39 40 41 41 41 40 40 39 39 40 40 38 38 39 39 38 35 34 33 33 34 31 32 33 34 36 37 35 35 34 34 32 31 30 29 27
26 23 25 24 21 8 7 12 29 31 33 36 37 38 40 40 40 40 39 38 37 38 38 38 36 37 32 29 30 29 29 31 33 32 31 30 32 31 34 35 35 34 34 33 33 29 27 26 26
27 24 23 14 15 22 19 12 25 32 34 36 37 37 39 40 40 39 38 36 35 35 35 31 32 27 26 27 27 27 30 31 31 30 31 32 32 33 34 34 34 33 34 34 30 26 26 25 25

GFSSGP_sfc_30mbdewp_024.txt.gz
Dewpoint
51 34 24 28 21 19 18 18 42 48 50 50 50 51 51 53 52 49 63 63 65 65 64 64 68 68 68 68 68 68 67 66 65 64 63 62 62 61 61 61 60 57 56 54 53 53 55 57 57
21 22 27 22 16 14 17 25 32 48 49 48 48 47 48 48 57 61 62 65 66 66 64 63 67 68 69 69 69 68 67 65 64 63 61 61 61 60 60 59 59 57 54 52 54 56 56 57 58
25 29 22 15 11 13 17 39 44 45 44 43 46 50 50 48 57 59 65 66 67 66 64 64 67 68 68 68 68 68 67 66 65 63 60 60 59 59 58 58 59 57 55 54 55 55 55 57 58
21 24 20 12 12 13 22 41 44 43 45 43 44 49 54 56 55 55 65 66 65 66 65 66 67 68 67 68 68 68 67 66 65 63 60 58 57 57 58 60 60 57 56 56 57 57 57 57 57
23 20 13 12 13 14 20 41 44 41 41 40 41 43 52 60 58 60 65 67 65 67 65 66 67 66 67 68 69 68 66 66 65 63 61 58 57 57 59 60 60 59 58 58 58 59 59 59 58
15 17 9 10 20 27 23 41 42 40 38 40 43 45 57 63 62 65 66 65 66 65 65 65 66 65 66 69 68 67 66 66 65 63 61 59 58 59 58 59 59 59 59 59 59 60 60 60 60
17 8 10 17 28 32 35 42 40 37 40 42 47 46 59 62 64 65 65 65 65 65 65 65 64 65 68 67 66 66 65 65 64 63 62 60 60 60 60 59 59 59 60 60 60 61 61 60 59
21 14 13 24 29 35 42 42 42 41 42 49 50 46 57 61 64 64 63 64 64 64 65 65 65 64 64 65 65 65 64 63 63 62 60 59 59 59 58 58 60 60 60 61 61 59 57 54 54
24 11 13 27 30 33 36 37 40 44 45 47 48 52 57 63 64 63 62 63 64 64 65 65 63 63 62 61 63 63 63 63 62 60 60 57 55 56 56 59 60 60 59 59 59 58 52 50 50
21 13 14 27 33 35 35 34 34 41 44 45 53 58 62 64 62 62 62 62 63 63 64 65 65 64 62 59 59 56 55 55 57 57 58 57 59 58 56 58 58 55 54 55 54 51 50 47 44
21 16 15 19 34 33 29 31 31 35 42 42 48 59 61 61 61 61 61 62 61 62 63 64 64 62 58 56 54 52 54 57 59 60 60 60 60 60 58 53 50 51 52 49 50 48 46 48 45
20 18 17 25 35 32 29 32 34 35 37 42 49 58 60 60 61 60 60 60 61 61 59 59 59 59 57 53 52 55 57 59 59 61 62 61 59 59 57 49 50 51 49 49 47 45 47 46 44
20 18 16 13 29 37 34 32 35 37 41 46 55 57 58 58 54 53 53 54 54 54 55 55 56 56 56 55 57 59 60 60 61 61 61 59 56 56 52 52 49 48 47 46 45 44 44 42 40
20 18 12 10 20 32 30 31 33 35 45 51 54 55 55 53 51 50 50 50 50 50 54 55 54 55 56 57 59 59 58 57 58 60 60 60 58 55 52 50 47 46 46 45 44 44 41 40 39
14 10 10 9 15 23 27 22 23 38 45 49 51 52 52 50 50 47 46 46 47 49 55 57 56 56 58 59 58 58 58 58 57 58 58 58 56 54 50 47 47 47 46 44 42 41 39 38 37
9 9 5 13 13 14 20 13 28 41 42 45 49 50 51 49 48 47 47 45 47 51 56 59 58 58 59 60 58 58 57 58 56 57 55 53 50 50 49 48 46 46 43 41 39 39 37 36 37
9 2 5 13 20 14 11 12 30 41 41 43 47 47 47 48 50 51 48 48 51 54 58 59 59 59 59 59 59 59 55 51 51 52 51 51 49 49 46 45 44 42 40 39 38 38 39 38 37
4 8 3 6 22 13 16 26 30 42 41 41 42 44 46 48 50 53 52 53 55 57 59 59 60 59 59 58 58 52 49 49 48 49 46 45 45 45 43 43 42 39 39 40 41 41 39 36 35
9 10 6 16 28 28 28 28 32 40 42 42 42 45 46 47 52 54 55 56 56 58 58 59 58 60 58 57 53 49 48 48 45 43 44 43 42 42 41 39 41 42 39 41 39 35 32 31 33
14 11 17 23 28 28 29 31 34 37 41 43 44 44 46 50 52 54 55 56 57 57 58 58 58 58 55 52 48 47 48 46 43 42 43 41 41 40 39 40 38 39 35 37 38 37 34 30 30
21 18 21 18 27 29 28 29 33 38 41 43 45 46 48 50 51 53 54 56 57 57 58 57 56 55 48 48 49 49 48 44 42 42 40 40 40 38 38 38 36 35 34 31 36 35 33 30 25
18 24 23 24 21 15 25 12 31 37 39 42 45 47 50 51 52 52 53 54 56 56 56 50 48 47 48 47 44 44 42 42 42 40 40 38 38 36 35 35 38 37 36 35 34 30 31 28 24
24 27 25 23 21 21 21 16 28 38 38 42 46 48 50 49 48 47 48 50 51 53 49 47 45 44 45 45 45 42 41 39 37 36 36 36 35 37 37 36 38 39 38 35 33 31 30 27 26
28 26 25 24 22 17 18 20 13 31 33 41 45 46 48 45 42 41 42 43 44 45 45 44 42 42 42 41 40 38 35 31 29 31 31 29 31 32 34 37 39 38 37 34 33 33 31 30 27
28 24 17 20 18 14 25 21 13 25 35 40 43 43 44 42 40 40 40 39 41 43 44 43 41 41 40 37 33 32 32 32 29 30 30 31 26 26 28 31 31 34 35 34 34 32 32 31 26
24 23 16 8 12 13 25 18 20 30 33 40 41 41 41 40 40 39 39 40 42 43 42 41 40 37 34 32 33 36 33 30 30 29 26 24 25 24 26 27 30 34 36 35 33 32 32 31 29
25 21 28 25 26 23 17 23 27 32 31 38 40 39 39 39 40 39 40 41 42 42 42 40 35 32 33 39 40 36 33 27 24 25 26 23 23 23 23 27 30 33 34 34 33 31 32 31 30
27 27 22 23 18 12 12 16 14 30 31 36 38 38 38 38 39 40 41 42 41 41 40 37 36 35 37 38 34 28 25 24 25 25 23 23 24 25 25 26 27 30 31 32 32 30 30 29 27
26 23 23 23 22 10 5 2 25 26 31 33 37 37 37 38 39 41 41 42 41 39 37 39 36 37 36 30 27 26 23 24 25 24 23 25 27 26 26 28 29 29 29 30 31 32 31 28 24
27 23 20 13 16 23 21 8 24 31 32 33 36 37 38 39 40 41 41 40 38 36 37 36 35 33 29 27 25 23 23 23 23 23 25 27 28 27 27 29 29 29 30 34 36 31 25 24 24

GFSSGP_sfc_30mbdewp_030.txt.gz
Dewpoint
41 39 38 28 15 20 17 16 38 45 44 47 49 47 50 54 54 51 65 65 60 61 65 66 68 68 68 69 68 68 67 65 63 64 64 63 62 61 61 60 58 57 57 56 56 56 57 58 58
39 37 30 12 15 15 14 34 38 43 46 46 46 46 49 53 58 61 62 62 60 61 62 65 68 68 68 68 68 67 65 63 63 63 62 61 59 59 59 60 59 58 54 53 53 54 54 54 54
38 25 7 9 15 16 14 37 45 44 44 44 43 46 45 51 58 60 63 64 60 60 62 67 68 67 68 68 67 66 65 64 63 62 59 58 58 59 60 60 59 58 56 56 55 54 54 55 55
24 15 9 17 15 14 20 46 45 44 44 42 44 43 44 51 55 60 64 65 62 61 65 67 65 66 67 68 67 66 65 63 62 61 59 58 60 60 61 61 60 58 58 58 58 58 58 59 57
23 13 8 12 12 14 17 40 39 43 46 46 51 41 42 50 58 61 64 65 64 66 66 66 64 65 67 67 67 66 65 63 62 61 60 60 60 60 61 61 61 60 59 59 59 59 59 58 57
15 11 11 12 11 14 16 34 41 45 45 46 49 42 45 50 55 62 64 64 65 66 65 66 65 66 67 67 66 66 65 63 62 61 60 60 61 61 61 61 61 61 60 60 60 60 59 57 55
16 7 7 9 13 22 26 42 45 48 50 43 45 41 53 51 53 61 64 65 65 65 65 65 65 66 66 65 65 65 64 63 61 61 61 60 60 60 60 60 61 61 61 61 60 58 55 56 53
10 11 11 11 5 24 34 41 45 43 46 47 42 38 48 53 59 64 62 61 62 63 64 65 64 65 64 64 64 63 63 61 60 58 58 58 57 58 59 59 60 59 59 59 58 54 51 51 49
10 11 12 9 7 37 44 45 46 44 43 45 41 46 54 59 62 62 60 62 60 62 63 65 63 64 63 63 63 63 62 59 58 58 58 57 57 57 59 57 58 56 54 55 53 48 47 50 51
13 12 11 23 36 41 44 46 47 37 39 38 46 54 59 60 61 57 57 58 56 58 63 63 63 64 61 56 59 59 59 58 56 56 56 58 59 56 56 56 55 51 51 53 51 48 49 50 48
13 11 13 29 39 39 35 41 39 41 40 44 50 55 58 58 58 59 59 60 59 61 61 62 60 60 56 56 56 57 58 59 59 60 60 60 60 59 57 59 54 53 52 56 51 52 50 49 49
13 11 14 21 37 37 38 35 32 33 38 46 45 51 58 55 56 58 59 60 60 61 60 61 59 58 56 56 53 52 58 60 62 61 60 59 59 58 56 55 54 53 52 51 51 51 50 49 47
13 15 16 19 31 29 29 38 38 35 39 49 51 55 54 53 55 58 59 59 58 58 58 57 57 55 53 54 58 60 61 61 61 61 60 61 59 59 59 57 53 53 52 52 50 49 48 45 43
11 18 17 15 28 27 31 40 37 39 41 46 53 50 49 47 46 49 54 54 52 52 55 56 55 54 55 61 60 60 59 58 58 58 60 61 59 59 56 54 52 53 49 48 47 45 44 44 45
19 16 16 13 25 29 31 29 26 38 42 46 45 44 42 42 42 44 48 49 51 51 53 53 53 55 60 58 57 58 57 57 57 59 60 59 57 56 54 53 51 48 47 45 45 45 44 44 43
19 15 15 16 23 28 35 33 25 37 39 39 40 40 39 39 41 44 46 47 50 51 53 53 54 60 58 56 56 57 58 58 57 57 55 54 53 53 50 50 49 48 49 46 44 45 46 44 44
16 15 18 16 18 27 30 27 22 30 36 37 40 40 41 40 40 41 44 45 49 52 55 56 58 59 58 58 60 59 58 55 54 54 53 52 51 50 50 49 48 47 45 45 46 45 44 41 38
15 16 14 12 11 15 23 20 21 26 33 37 38 40 43 41 42 42 42 44 48 56 57 58 61 60 59 60 58 57 55 53 53 52 50 50 49 48 48 47 46 46 45 43 44 44 42 38 36
17 14 13 11 11 13 18 16 17 22 28 36 38 41 42 42 45 46 45 45 51 58 59 58 59 59 59 57 55 54 52 51 50 49 48 47 47 45 46 46 45 44 41 40 38 37 37 37 37
17 16 12 11 15 15 9 12 17 22 25 32 36 39 42 44 48 50 49 51 57 58 60 59 58 58 58 57 54 53 51 50 49 47 47 46 44 43 45 43 41 40 38 37 39 38 37 36 36
14 13 18 13 10 6 13 8 19 24 27 27 32 36 40 43 49 50 51 53 59 58 60 59 59 58 58 57 55 53 51 47 45 46 46 44 43 41 40 38 38 39 39 38 39 38 36 34 34
19 23 19 17 15 13 21 14 30 31 27 30 32 34 37 41 49 49 51 55 56 58 59 58 58 58 58 56 50 49 47 45 45 46 45 44 42 39 36 36 37 40 40 39 39 36 37 35 34
22 24 23 15 15 25 21 24 25 34 30 32 36 39 39 42 46 49 54 56 57 58 58 58 58 57 51 48 49 48 46 46 43 41 39 36 37 38 35 35 36 35 35 37 38 37 36 36 35
26 25 22 18 17 23 22 28 23 27 28 34 34 38 41 46 46 48 55 56 55 58 58 58 56 48 48 46 47 47 43 39 37 36 35 34 33 32 33 32 31 32 33 34 35 37 37 36 35
18 18 18 25 25 19 17 17 18 27 34 42 42 38 43 45 47 48 51 54 55 55 53 50 47 45 46 46 43 39 36 37 37 36 34 29 28 29 30 29 30 31 32 33 35 37 37 37 36
21 15 22 23 25 20 18 14 17 24 26 35 39 43 45 46 46 46 47 49 52 49 48 47 44 44 44 42 38 38 38 36 34 33 29 29 28 27 28 29 30 30 30 31 33 36 37 37 36
20 19 20 18 28 21 14 9 21 25 26 32 40 42 44 43 42 43 43 46 47 47 47 45 43 43 42 38 38 37 34 31 29 28 30 31 27 26 30 30 30 30 31 31 32 33 36 36 36
21 20 20 17 13 12 10 10 21 25 23 29 38 41 43 42 40 40 40 43 44 45 46 45 44 42 38 39 38 36 33 30 29 30 30 28 27 28 29 29 29 29 30 30 30 35 36 35 36
23 22 17 14 20 20 18 13 14 17 22 26 33 39 42 42 41 40 39 41 43 44 45 45 44 39 38 36 36 34 31 31 29 31 30 28 28 28 29 29 27 27 28 29 30 31 30 32 34
22 23 20 22 17 21 22 21 19 18 20 26 28 35 39 41 41 40 39 41 42 44 44 45 43 38 37 37 33 33 32 31 31 29 29 28 28 29 29 29 27 27 28 29 29 31 31 31 31

GFSSGP_sfc_30mbdewp_033.txt.gz
Dewpoint
46 44 40 37 22 19 18 19 35 45 46 49 49 53 55 57 56 49 65 63 65 67 69 69 68 68 69 69 68 67 65 65 64 63 63 62 61 61 60 61 59 57 55 55 54 53 51 52 54
40 38 37 32 13 13 16 42 45 46 47 47 48 50 53 56 61 63 61 63 63 67 67 68 68 69 69 68 67 65 64 64 63 63 62 61 60 60 61 60 59 57 54 53 53 53 54 56 57
39 38 27 11 8 12 16 46 42 46 46 44 45 45 48 57 61 62 63 63 64 64 67 68 68 68 68 67 66 65 65 63 62 61 60 60 60 59 60 61 60 59 57 56 56 56 57 56 55
32 24 14 9 12 16 17 41 45 43 46 49 45 41 46 53 59 63 62 63 62 65 67 66 65 65 66 67 65 65 64 63 62 61 62 60 60 60 61 62 61 59 58 58 57 57 56 55 51
34 24 8 10 13 17 25 39 43 45 47 50 47 43 47 56 63 64 63 63 65 66 66 65 64 65 67 66 65 64 63 62 62 62 62 62 60 60 61 62 61 60 59 59 58 58 56 56 56
24 17 11 10 10 15 44 46 45 44 46 50 46 46 49 60 63 64 65 66 65 64 64 65 65 67 66 66 65 64 62 62 62 62 62 62 61 62 61 62 62 61 61 60 57 56 55 53 53
24 17 13 8 9 13 44 49 48 47 45 45 50 49 52 57 63 64 65 65 65 65 64 64 65 66 65 65 64 62 61 61 61 61 61 60 60 60 60 60 60 60 59 58 56 53 52 50 48
17 14 12 11 10 34 46 48 49 50 46 48 45 47 50 60 61 62 63 63 63 64 64 64 65 65 64 63 62 62 60 60 59 59 58 58 58 59 59 59 58 58 57 56 52 50 50 49 49
19 12 8 9 28 42 44 45 52 52 50 47 43 53 60 60 59 59 60 61 60 61 62 63 64 63 63 62 63 61 58 57 57 58 58 58 58 58 59 57 55 54 53 53 51 48 50 50 50
18 14 12 24 37 36 44 41 46 49 48 43 52 59 60 59 58 57 57 58 59 58 56 60 62 62 61 60 61 59 58 57 57 57 57 56 57 58 57 56 55 52 52 52 50 51 51 48 48
16 14 14 26 38 40 39 42 45 45 43 44 50 54 57 56 56 56 55 57 58 58 57 59 62 61 56 58 58 58 58 56 57 56 57 59 60 58 57 56 55 54 54 54 52 53 50 48 47
13 15 14 35 37 39 37 37 33 39 41 48 52 55 57 56 56 58 55 57 58 59 60 61 62 58 56 57 56 57 58 60 61 62 61 60 60 59 58 54 55 54 53 51 50 48 45 43 43
15 14 14 35 38 41 38 36 35 42 46 45 49 53 55 57 55 58 58 58 60 59 60 60 59 56 56 55 59 60 61 61 62 59 60 59 58 57 55 54 53 51 49 47 45 44 42 42 44
14 14 15 18 38 38 35 36 37 40 48 48 51 52 55 55 57 58 59 59 59 59 59 57 57 55 57 60 61 61 60 58 58 59 61 60 59 56 54 52 50 47 46 45 44 44 44 45 44
20 16 16 14 31 37 37 34 36 41 46 49 51 53 52 56 58 58 58 58 59 57 56 54 54 60 60 58 57 57 56 56 57 59 59 56 56 53 52 50 48 46 47 45 44 46 45 44 43
20 19 15 17 30 34 29 27 35 42 45 52 50 47 44 44 54 55 54 53 55 55 54 53 58 59 57 57 57 56 57 57 58 55 54 53 53 51 50 49 47 48 49 46 46 45 43 41 38
22 17 17 17 28 32 29 25 29 42 46 48 44 40 39 42 47 49 50 51 53 53 52 54 59 57 57 57 57 58 56 56 55 53 51 51 51 51 49 47 45 47 46 45 44 43 42 38 36
20 17 17 20 20 30 27 25 25 38 39 39 40 40 40 39 43 46 48 51 53 53 53 59 59 58 58 57 58 58 54 54 54 51 50 50 49 50 48 46 46 45 43 40 39 39 40 38 37
24 18 17 18 13 27 24 22 21 27 37 39 39 42 42 40 41 42 45 52 55 55 59 59 58 58 58 57 56 54 52 52 52 51 50 49 46 46 46 45 41 40 38 37 39 38 36 36 36
26 19 18 18 16 17 19 20 21 23 33 38 40 43 43 43 44 44 49 55 56 57 59 60 58 57 58 57 57 54 52 51 50 47 47 46 45 45 43 41 39 38 38 38 39 37 37 36 34
25 24 20 15 11 12 9 15 22 23 25 37 40 42 43 45 47 48 55 57 58 58 59 58 58 57 58 58 57 54 51 49 47 46 45 44 43 41 41 40 38 39 39 38 38 38 35 33 34
20 24 25 21 16 11 22 20 27 30 28 29 36 40 43 47 50 50 55 58 59 59 59 59 58 57 58 58 55 51 46 44 46 46 44 42 41 38 36 39 39 38 38 36 39 38 36 34 33
25 26 22 23 22 23 23 20 24 29 23 27 34 34 41 49 50 50 55 58 58 59 59 59 59 58 58 58 54 49 46 45 46 45 43 43 41 39 34 33 32 32 33 34 34 34 37 37 35
28 22 25 28 26 20 20 19 25 29 28 30 31 37 40 48 50 53 56 57 57 58 58 58 58 58 58 52 51 47 44 41 38 37 35 37 34 32 31 31 30 30 31 32 33 34 38 36 35
27 23 22 19 21 22 27 24 22 29 31 34 34 35 41 47 51 55 55 55 56 57 57 58 57 53 48 44 43 41 40 37 35 35 34 29 29 30 29 30 30 30 30 31 32 34 36 36 36
23 24 21 20 20 25 28 25 23 27 31 35 39 37 43 45 50 55 55 55 56 56 57 56 51 47 45 40 37 37 37 37 36 34 31 30 29 29 30 30 29 29 30 31 30 32 34 37 37
24 22 26 28 32 28 21 16 26 27 32 39 38 40 45 47 48 52 54 55 54 53 51 47 45 45 42 39 38 37 36 34 32 31 31 31 28 29 29 29 28 29 29 30 29 34 34 33 35
22 22 20 22 14 14 15 18 23 26 36 37 40 44 45 45 46 47 49 52 51 49 48 47 45 44 41 38 37 34 31 30 30 31 30 29 28 28 29 29 29 28 28 30 32 33 31 32 34
23 21 20 20 22 18 19 14 20 24 27 38 41 44 44 42 42 43 44 47 48 47 47 46 44 42 39 38 36 33 31 30 30 30 31 30 29 29 28 30 29 27 27 29 30 30 30 31 33
23 22 27 18 17 24 22 20 19 20 26 27 36 42 44 42 41 41 41 44 45 46 46 45 45 39 38 37 36 33 32 31 30 30 33 31 29 30 30 30 28 27 28 30 30 30 30 29 31

GFSSGP_sfc_30mbdewp_036.txt.gz
Dewpoint
51 47 39 37 22 19 17 18 24 41 46 48 52 54 55 57 55 47 63 66 67 69 69 69 68 69 69 68 67 66 65 62 61 61 61 61 61 62 60 59 59 57 53 53 53 54 54 55 57
44 37 37 30 15 12 13 24 35 45 47 53 51 55 55 56 62 61 62 67 67 68 68 68 68 69 68 67 66 65 62 62 62 61 60 61 61 60 60 59 58 58 55 54 54 53 53 55 57
39 40 33 25 9 10 12 44 44 47 47 44 44 44 52 58 62 61 63 67 67 67 67 68 68 68 67 66 65 64 64 63 62 62 61 60 59 59 60 61 60 58 56 54 53 53 55 57 58
32 26 19 9 7 11 14 31 45 45 46 48 43 43 51 55 62 62 62 64 66 66 67 68 67 67 67 66 65 64 63 62 63 63 62 60 59 59 60 61 60 59 57 55 55 55 55 55 56
34 21 12 8 9 12 36 35 45 45 48 49 46 44 48 62 62 62 62 64 65 66 65 66 66 66 66 65 64 64 63 63 63 63 62 61 60 60 61 62 61 59 57 56 55 54 54 54 54
24 19 12 10 10 12 46 49 48 47 48 49 45 49 52 63 62 63 65 64 65 64 64 65 65 65 64 64 64 63 63 63 63 63 63 62 62 61 61 61 61 60 58 56 53 51 51 53 53
25 21 16 14 14 18 45 49 47 48 46 46 49 50 56 59 64 64 64 64 64 64 64 64 62 62 64 63 62 62 62 63 63 63 62 61 61 61 60 60 60 59 57 55 53 51 49 50 51
21 16 12 11 9 20 47 48 51 49 46 50 51 49 53 59 62 62 62 62 62 60 60 60 63 62 61 63 62 62 62 62 61 60 60 60 60 59 59 58 58 57 56 54 53 50 50 52 50
18 17 12 11 14 38 47 45 49 51 49 47 56 56 59 61 61 59 59 60 61 61 59 59 61 63 63 62 61 60 60 60 59 59 59 59 59 58 58 56 57 55 53 52 51 50 51 49 51
19 16 15 14 34 41 43 44 46 44 46 51 55 58 58 59 59 58 57 57 58 59 60 59 61 62 62 60 60 59 58 58 58 58 57 57 58 58 58 56 57 55 54 54 52 53 51 49 47
19 15 16 22 41 40 41 42 47 44 43 47 54 55 57 57 56 57 57 56 55 57 58 60 62 61 60 58 59 58 57 56 56 56 56 57 58 59 57 57 54 52 54 54 52 46 45 44 44
15 14 15 38 40 40 39 41 43 46 43 53 56 56 56 55 53 54 57 55 55 55 58 60 61 60 57 57 57 57 56 56 58 60 60 60 59 58 57 57 54 53 51 48 46 45 43 44 44
15 18 28 38 39 38 41 40 39 42 49 54 56 55 55 54 54 55 57 56 56 56 57 59 60 61 56 56 56 57 58 61 60 60 59 59 57 54 54 53 50 48 47 45 44 44 45 45 44
22 25 33 36 35 34 38 37 38 44 47 52 55 56 54 54 56 56 56 57 57 57 58 58 61 58 56 58 58 61 61 59 59 60 59 58 56 54 52 49 47 45 45 45 46 45 44 43 41
26 19 35 37 38 37 37 33 37 44 48 50 53 55 55 54 57 56 56 57 58 58 58 59 59 56 59 60 59 58 57 57 58 59 57 57 55 53 50 47 46 47 46 46 46 45 43 39 37
25 19 17 36 36 35 32 32 38 45 48 49 51 53 55 56 57 56 57 57 58 59 58 57 58 59 58 58 56 56 56 58 57 56 55 54 52 51 49 47 47 48 47 46 44 43 41 37 36
23 16 17 26 31 31 28 30 36 43 48 49 51 50 52 56 57 58 58 59 59 57 55 56 59 57 57 56 57 57 57 56 55 53 52 52 51 50 48 46 47 46 43 42 42 42 40 36 35
22 18 17 19 27 28 27 23 32 42 48 51 49 42 46 54 56 57 58 57 57 55 54 58 57 57 57 57 57 55 54 54 54 51 51 51 50 50 47 47 45 41 38 37 37 36 37 37 36
26 25 23 21 19 29 27 23 29 40 45 48 43 41 45 52 53 53 53 55 55 54 55 58 57 57 56 56 55 53 52 53 52 50 50 50 49 48 45 41 40 38 37 38 37 37 36 36 34
26 25 23 22 20 25 26 22 24 37 41 44 41 40 42 44 46 50 51 52 53 53 57 58 57 57 56 56 56 53 52 52 51 50 50 47 46 44 42 40 38 38 38 38 38 37 37 36 35
25 25 22 24 21 14 20 21 22 25 37 40 41 41 40 41 44 46 51 53 52 57 58 58 57 57 57 57 56 53 51 50 48 47 46 45 44 43 41 39 38 39 39 38 38 37 35 33 34
23 25 22 22 18 9 21 17 26 27 27 38 40 42 42 42 43 49 52 54 55 57 59 58 58 57 57 57 56 51 49 47 46 46 44 43 42 41 40 39 41 39 36 35 36 37 37 35 33
26 27 25 24 23 22 21 17 20 29 25 32 36 41 43 44 46 53 54 55 56 58 58 58 58 57 57 57 56 51 48 47 46 46 43 42 41 38 37 35 33 33 33 33 32 33 35 37 35
30 26 27 30 27 20 25 22 20 26 23 25 28 36 42 47 48 55 57 57 57 58 58 58 58 58 57 58 56 51 48 46 46 44 42 42 36 34 32 32 31 31 31 31 32 34 37 36 35
27 25 20 18 19 18 28 24 23 24 28 28 27 37 41 49 51 56 57 57 58 58 58 58 58 57 58 56 55 49 46 45 45 42 40 36 33 31 31 31 30 31 31 30 30 31 33 35 36
28 23 20 15 16 19 29 22 22 27 28 32 35 37 47 50 53 54 56 57 57 57 57 58 58 56 53 50 49 45 41 40 38 37 34 34 31 30 31 31 30 30 30 29 30 33 36 35 34
25 23 26 27 32 26 25 21 24 30 31 35 38 39 46 49 53 54 55 55 57 57 57 57 54 49 43 40 40 39 38 37 36 35 35 33 32 31 31 30 29 30 29 29 31 34 33 33 35
28 25 20 24 17 18 16 19 22 27 29 35 35 38 44 48 53 54 54 55 55 55 55 53 49 45 40 37 37 36 35 35 34 33 32 29 30 31 30 29 29 29 27 29 31 33 31 32 33
22 20 21 22 21 16 18 15 18 27 34 34 36 38 44 47 51 53 54 54 53 52 51 48 46 43 39 37 36 35 31 31 32 31 32 31 30 30 30 31 30 28 27 28 32 31 31 31 31
27 23 24 18 16 24 21 19 24 25 31 38 39 42 45 46 48 51 52 53 51 50 48 46 45 43 39 37 35 32 32 34 32 31 33 31 32 33 33 31 30 28 27 29 29 30 30 29 29

GFSSGP_sfc_30mbdewp_039.txt.gz
Dewpoint
51 47 38 35 20 18 16 16 19 28 44 51 53 53 53 58 53 46 63 65 68 67 69 69 68 68 68 66 66 65 63 60 59 59 61 62 61 61 61 59 58 57 56 54 54 55 57 61 62
43 37 35 24 15 12 11 18 24 37 51 56 54 55 54 56 60 61 62 67 68 68 68 68 68 68 67 66 65 63 61 60 60 60 60 60 59 59 60 60 59 58 57 54 54 54 55 59 62
38 37 34 25 12 10 11 25 44 46 50 48 43 49 54 58 60 61 64 66 68 67 67 68 68 67 66 66 64 63 62 62 62 62 60 59 58 59 60 60 59 58 57 55 54 55 56 59 59
32 27 17 10 6 10 13 17 31 45 48 50 47 46 53 62 61 62 66 67 67 67 67 68 67 66 66 65 64 64 63 63 63 62 61 60 59 59 60 61 60 58 56 54 54 54 56 57 58
32 20 14 8 8 11 41 47 43 46 48 48 48 47 53 62 62 64 65 66 66 67 67 67 67 66 66 65 64 63 64 64 63 62 62 61 60 60 62 61 60 59 57 56 55 56 56 54 56
25 18 13 10 10 12 45 49 48 47 48 48 48 51 56 62 62 63 64 65 65 66 65 65 65 65 65 64 63 64 64 64 63 63 62 62 62 62 61 61 60 58 56 55 55 54 56 53 51
24 21 16 14 14 12 44 49 47 46 45 45 50 50 57 61 62 63 63 60 60 62 64 64 64 65 64 64 64 64 64 64 64 63 63 62 62 61 60 60 59 57 55 52 51 52 53 53 51
24 18 13 12 9 12 46 48 50 48 45 50 52 51 53 60 61 60 60 59 58 59 61 60 61 61 62 62 62 63 63 64 63 63 61 60 60 60 59 59 58 57 55 53 52 54 54 51 52
18 19 14 13 12 27 47 45 49 51 49 55 57 56 59 61 61 60 59 59 58 58 58 60 60 58 59 61 61 62 62 62 62 61 60 60 59 59 57 57 57 57 55 54 54 52 52 51 51
21 17 17 16 28 39 45 45 45 46 52 53 56 58 60 59 59 58 57 57 57 57 57 59 59 57 61 60 59 59 60 60 59 58 58 58 58 58 57 57 55 55 54 54 54 52 49 47 45
19 16 16 18 37 42 42 42 47 45 47 52 54 55 58 58 57 57 58 58 57 57 57 58 59 62 61 59 59 57 58 57 57 57 56 57 58 58 56 56 52 53 55 51 46 44 45 44 44
19 18 17 35 42 39 38 42 41 45 44 55 56 57 56 56 56 56 56 56 58 57 56 57 61 61 60 58 57 57 56 56 56 56 56 57 59 58 57 55 54 51 49 46 45 45 45 44 42
15 17 28 38 40 39 39 39 38 44 55 56 55 56 55 53 55 56 56 55 56 57 57 59 61 61 58 57 56 56 56 58 60 60 60 59 58 54 55 52 50 47 46 44 45 45 44 43 39
22 25 33 38 38 35 33 38 40 47 55 54 54 54 54 52 54 56 56 53 54 55 57 59 59 61 57 56 56 57 60 60 59 59 58 58 55 53 50 48 46 45 46 46 45 43 41 39 36
26 27 36 37 36 35 37 36 37 49 54 53 53 54 53 52 54 54 56 54 54 55 57 58 59 59 56 57 58 59 60 59 59 58 58 56 54 51 48 46 46 46 46 45 44 42 39 36 35
24 22 24 32 37 37 32 30 40 47 51 53 54 54 53 54 55 54 56 55 56 57 57 58 60 58 58 58 58 58 58 57 58 57 56 55 53 50 48 47 48 47 46 44 43 41 38 36 35
23 16 17 25 35 34 32 32 40 46 49 51 53 54 53 53 55 55 56 56 57 58 58 58 58 58 58 57 57 56 57 56 55 54 54 52 51 50 47 47 47 44 42 41 41 39 37 35 35
22 22 20 23 31 32 32 27 38 45 49 50 51 52 54 54 55 56 57 57 58 58 57 58 58 57 57 56 56 56 55 55 54 52 52 51 50 48 47 45 42 39 38 37 36 35 37 37 35
26 25 24 23 22 28 26 24 37 43 47 50 50 49 52 55 56 57 57 58 59 57 56 57 57 57 56 56 54 53 52 53 51 50 51 50 50 47 45 42 39 38 37 37 36 37 35 35 34
26 23 23 23 23 24 24 26 27 42 46 48 49 46 48 53 55 57 57 58 57 55 56 57 57 56 56 55 54 53 52 52 51 50 50 49 48 45 41 40 38 39 38 38 37 36 36 35 34
24 23 24 23 24 18 23 23 22 31 42 46 46 43 45 51 53 55 56 55 56 54 55 57 57 56 56 56 54 53 51 50 49 49 48 46 46 43 41 39 39 39 39 38 38 36 35 33 34
21 26 26 25 23 9 21 14 24 25 36 41 43 42 42 48 50 52 53 54 54 54 55 57 57 56 56 56 54 51 50 49 48 48 46 45 45 43 41 40 40 39 37 35 36 36 36 35 33
24 28 27 26 23 22 21 17 19 28 27 35 39 41 42 44 47 49 51 53 53 54 56 57 57 57 56 56 55 52 49 48 47 46 45 43 41 40 40 38 34 34 34 33 33 33 35 36 35
29 26 27 29 27 20 25 20 19 23 25 28 34 40 42 42 45 47 51 53 53 56 57 58 57 57 56 56 56 52 49 47 46 45 43 41 38 36 34 33 33 33 32 31 31 34 36 36 35
27 25 21 19 19 18 27 24 22 22 25 27 28 37 42 44 46 52 53 54 55 56 57 58 58 57 57 56 56 53 50 48 47 45 43 39 35 32 32 32 32 32 31 31 31 31 32 35 35
27 24 20 15 15 18 29 23 23 27 31 30 30 33 39 46 48 54 55 55 56 56 57 57 57 57 57 56 56 53 50 48 47 45 42 37 33 32 32 33 32 33 31 30 30 32 35 35 34
26 23 26 26 30 24 23 24 21 27 33 37 35 40 44 48 51 54 56 56 56 56 57 57 57 57 55 54 52 50 45 43 44 41 39 36 33 32 32 33 32 30 30 29 30 33 33 32 34
26 27 22 24 16 16 19 19 18 25 26 36 38 39 44 49 52 54 56 56 57 57 57 57 57 55 52 49 47 45 44 43 42 39 35 33 32 32 33 31 30 30 30 29 31 33 33 33 33
25 22 22 23 20 14 15 17 18 24 27 30 34 37 44 49 52 53 54 55 56 57 57 56 54 52 48 43 42 40 40 39 38 36 33 31 33 32 31 31 31 31 30 29 30 33 31 31 31
26 24 22 18 16 24 22 18 23 23 26 33 34 38 42 47 51 53 54 55 55 55 55 55 52 49 44 39 38 38 38 38 36 34 32 33 32 32 32 34 33 31 28 28 30 31 30 30 29

GFSSGP_sfc_30mbdewp_045.txt.gz
Dewpoint
51 41 39 28 16 17 13 12 18 20 30 55 55 53 52 55 51 46 64 65 67 66 65 66 68 68 67 66 65 64 64 63 62 63 64 64 63 62 62 61 61 61 61 61 61 61 63 63 60
41 36 33 24 13 7 5 16 24 41 49 51 51 56 55 54 58 60 62 66 67 66 65 65 67 67 66 65 64 64 62 63 63 64 64 62 62 62 61 61 61 63 63 63 62 60 62 64 62
37 33 32 23 15 5 8 16 31 42 52 48 48 53 55 56 59 61 63 67 68 66 65 65 67 66 65 64 63 63 64 64 63 63 62 62 62 61 61 61 61 61 63 63 62 62 63 63 62
31 30 17 14 9 11 12 14 36 44 49 48 49 52 59 61 61 64 66 67 67 66 65 67 66 65 64 63 63 63 64 63 62 62 62 62 62 62 62 61 60 60 61 62 63 62 60 61 60
26 22 20 12 10 10 12 35 47 42 47 47 48 52 56 61 62 63 63 65 66 66 66 66 66 65 64 64 64 64 63 63 62 62 62 62 63 62 61 61 60 59 60 60 59 59 59 59 59
24 19 14 9 10 12 19 48 48 47 48 48 52 52 57 62 60 60 62 63 65 66 65 66 65 65 64 64 64 64 63 63 63 63 63 63 63 62 61 60 60 59 58 60 59 59 59 58 58
24 21 17 15 14 14 35 49 48 47 47 47 52 51 58 59 59 60 61 62 62 64 66 65 64 62 61 65 65 64 64 64 64 64 64 63 61 60 59 60 60 59 57 57 59 60 59 57 57
24 19 14 14 11 12 42 48 50 48 47 51 56 51 52 57 59 59 58 59 60 60 59 60 60 59 61 63 65 65 64 64 64 63 61 59 59 59 59 58 59 60 59 57 57 58 59 57 55
21 21 16 14 13 16 46 45 50 52 52 55 57 56 58 58 59 58 57 56 57 58 56 55 57 58 59 61 64 64 64 63 61 60 59 57 53 54 53 57 57 58 60 58 58 56 54 53 52
22 20 17 19 17 24 44 44 47 50 51 52 55 58 58 56 57 56 56 54 54 54 55 55 57 57 56 59 61 63 62 61 59 58 57 55 57 56 55 56 58 58 58 56 54 51 48 44 42
21 19 19 18 18 35 43 44 46 49 48 51 53 55 57 57 55 55 56 54 53 54 55 56 55 56 56 57 60 61 59 58 59 58 57 58 57 57 55 55 55 53 50 46 46 44 43 42 38
20 20 20 19 38 42 41 44 45 45 46 53 55 57 57 56 56 55 55 53 52 51 53 55 56 55 57 57 59 58 57 56 57 56 58 58 57 57 54 53 54 49 47 47 45 44 43 40 39
20 18 21 27 39 40 42 41 42 48 55 56 57 55 55 55 56 55 55 54 53 53 55 56 59 59 59 58 57 57 57 56 57 57 58 59 57 56 55 52 50 47 47 47 44 43 40 40 38
22 26 33 38 39 39 38 40 41 52 56 55 55 54 55 54 55 55 54 54 55 54 54 56 57 60 59 57 56 56 56 56 57 57 58 60 59 57 54 50 47 47 47 46 43 41 40 38 36
27 27 34 37 37 37 40 37 37 53 55 53 54 54 54 55 56 55 55 54 55 56 56 56 58 61 59 57 55 56 57 58 59 60 60 60 58 56 52 49 47 47 46 45 43 40 39 36 35
22 27 26 31 37 38 34 29 42 53 53 53 53 53 53 52 55 55 55 55 55 55 55 56 57 60 59 57 56 56 58 60 61 60 59 58 55 52 50 48 48 47 46 44 42 40 38 36 35
25 18 19 21 37 37 33 32 42 53 51 50 51 52 53 52 53 54 54 53 54 55 55 56 58 60 59 58 57 58 59 60 59 59 57 55 53 51 49 48 48 48 46 45 41 40 38 36 35
22 21 23 22 33 34 34 32 43 51 50 46 49 51 52 52 51 53 55 54 54 55 56 56 57 59 59 58 57 57 58 59 58 58 56 54 51 50 49 49 49 46 44 41 39 39 39 36 35
25 25 23 24 24 32 33 33 35 48 50 49 49 50 51 51 52 53 54 56 54 55 56 56 58 59 58 57 56 56 56 57 56 55 55 54 51 50 50 48 46 43 41 39 40 39 38 36 37
27 24 23 24 24 25 24 23 30 44 48 49 48 50 50 51 52 53 55 55 56 54 55 56 57 58 58 57 56 55 56 56 55 53 53 52 52 50 48 46 43 41 40 40 40 40 37 36 37
26 23 24 24 25 22 23 21 24 38 44 46 49 50 51 51 52 54 55 55 55 55 55 56 57 58 58 58 56 55 55 54 52 51 51 51 50 48 46 44 42 42 41 40 40 39 35 31 36
23 24 26 25 24 18 21 14 20 27 40 43 44 49 50 50 52 53 55 55 55 56 56 56 57 57 58 58 55 54 53 53 53 52 52 51 49 47 44 43 43 42 41 40 39 37 36 36 31
24 28 27 27 25 23 22 19 19 27 27 38 43 46 49 50 50 52 54 56 56 57 57 57 57 57 57 57 56 55 54 54 53 52 51 49 48 45 43 43 42 42 40 38 36 37 36 37 35
29 27 26 28 26 20 22 20 20 22 24 26 33 43 46 48 49 51 54 56 57 58 58 57 57 57 57 57 56 55 54 52 51 51 49 47 47 44 43 42 41 39 36 35 34 36 37 37 37
28 25 20 20 21 18 27 25 23 25 25 26 28 30 41 47 48 49 52 55 56 56 57 57 57 57 57 57 56 55 54 52 51 50 49 46 46 44 42 41 38 35 35 36 36 37 38 36 36
27 25 21 15 17 17 27 20 18 28 28 35 36 35 33 43 46 47 50 53 55 56 56 56 56 56 57 57 56 56 55 53 52 51 50 47 45 44 42 39 36 36 37 37 41 39 35 34 35
26 24 26 25 28 23 21 23 23 28 29 33 35 36 36 38 43 46 48 51 53 54 55 56 56 56 56 57 57 56 55 55 52 51 50 48 46 42 40 37 36 39 38 42 38 34 34 36 36
27 29 24 25 19 18 19 20 14 17 24 29 33 35 38 43 45 46 48 50 53 54 55 56 56 56 57 57 57 56 56 55 54 53 51 48 45 41 39 37 39 40 42 38 35 34 35 35 35
28 25 24 24 22 16 15 16 22 19 22 26 31 35 38 43 46 49 51 52 53 54 55 56 56 56 56 57 57 57 56 55 54 52 51 47 44 40 37 37 41 41 37 35 33 34 35 34 34
27 26 25 21 19 23 21 18 22 24 22 24 25 35 38 42 47 50 52 54 54 54 55 55 56 56 56 56 55 55 55 53 53 51 50 47 43 39 39 39 39 37 36 33 36 36 33 32 32

GFSSGP_sfc_30mbdewp_048.txt.gz
Dewpoint
50 36 29 28 15 10 9 8 11 22 22 46 52 49 49 53 49 47 63 65 65 64 62 65 68 68 68 67 66 65 65 64 64 65 65 64 64 64 63 63 63 63 64 64 64 58 58 59 59
31 31 31 19 8 5 5 10 14 30 43 50 51 53 50 54 57 59 63 66 65 64 62 61 68 68 67 66 65 64 63 63 64 65 64 63 64 63 63 63 64 64 63 63 64 60 59 60 61
36 33 24 15 8 4 4 12 20 27 47 48 47 52 53 55 58 59 62 66 66 64 62 63 68 67 66 65 64 64 64 64 65 64 63 64 63 63 63 65 65 65 64 62 63 61 59 61 62
26 27 20 10 5 7 9 8 13 27 41 45 47 51 57 61 61 62 63 67 66 65 64 66 67 66 65 64 64 64 64 64 63 63 63 63 63 62 63 63 65 65 64 63 64 59 60 61 61
22 18 12 8 7 10 8 11 33 32 39 43 46 49 54 60 63 64 66 67 66 65 65 66 66 65 64 64 65 65 64 63 63 63 63 63 63 63 62 62 63 65 65 63 60 59 59 60 60
19 17 9 5 7 8 16 34 41 43 44 47 48 50 55 61 61 63 64 65 66 66 65 65 65 64 64 64 65 64 63 63 63 63 63 63 63 62 62 61 63 63 62 60 60 60 60 59 58
18 13 9 8 14 16 26 43 45 45 44 46 50 49 58 59 60 62 63 63 64 65 65 64 64 63 62 62 63 64 63 64 64 64 63 63 63 62 61 60 60 61 61 60 60 59 59 58 56
20 15 9 10 13 16 32 43 48 46 45 50 52 47 53 58 60 60 61 61 60 61 62 60 59 59 62 62 63 64 64 65 64 63 62 61 61 61 60 59 59 59 60 61 60 58 57 56 54
22 16 8 12 15 17 33 39 48 50 48 51 53 53 57 59 59 59 57 57 57 58 59 58 55 54 55 58 62 64 64 63 61 60 59 56 50 50 50 58 61 60 60 59 58 57 55 53 51
20 15 12 17 19 18 30 41 46 48 48 49 54 58 58 58 57 57 56 54 54 55 56 56 56 55 57 59 60 60 60 58 56 54 52 50 51 50 51 57 60 59 58 56 54 51 49 47 42
21 17 18 18 19 21 28 42 44 43 44 46 52 55 56 57 57 56 55 54 53 54 54 54 55 55 56 58 60 60 58 58 57 56 53 54 53 52 51 53 52 51 50 46 45 45 44 44 42
20 19 20 20 29 35 39 42 42 44 47 52 56 57 56 54 55 55 53 53 53 54 53 54 54 57 57 57 56 57 53 55 55 54 55 54 53 52 52 52 52 51 49 48 47 46 45 44 43
21 20 21 25 32 38 41 40 40 47 53 55 56 56 55 55 55 55 54 52 53 54 53 54 55 56 56 56 58 57 56 54 52 55 54 51 51 52 52 53 51 49 49 48 46 45 44 43 41
23 24 29 33 36 38 35 38 40 50 53 54 54 54 54 54 55 53 52 52 52 51 51 49 52 51 51 53 55 56 55 54 55 51 53 56 53 53 52 52 51 50 49 47 46 45 44 41 40
25 25 31 33 36 35 38 36 35 51 52 53 51 52 54 54 53 53 52 50 50 48 51 53 49 52 50 53 56 55 54 51 51 53 58 59 57 55 53 52 51 50 49 48 46 45 43 40 36
21 23 18 32 34 37 35 27 41 51 51 50 48 50 50 54 54 53 53 53 50 50 51 54 54 54 55 55 51 51 51 53 54 57 59 60 60 59 56 52 51 50 48 46 45 44 42 38 34
19 13 14 19 33 34 33 27 42 51 50 46 46 48 48 50 52 54 53 53 52 51 52 55 55 55 57 57 52 53 53 55 57 60 60 60 59 57 55 52 51 51 48 47 45 43 40 37 33
11 15 15 17 30 34 31 28 40 47 48 44 44 47 48 47 50 50 52 52 51 51 53 55 55 57 59 57 55 50 53 54 58 59 58 58 56 55 53 51 51 49 48 47 44 42 38 35 33
21 19 16 22 26 29 26 24 27 43 46 43 42 44 46 48 48 51 49 50 50 51 53 54 56 57 60 56 52 47 50 54 57 58 58 57 55 54 53 51 51 49 47 45 44 41 38 36 36
25 20 18 23 25 25 20 19 23 38 42 43 40 42 42 45 48 50 52 50 50 50 52 53 54 55 58 56 52 49 48 52 53 56 58 57 56 54 53 51 50 48 46 45 43 40 38 36 35
26 21 21 20 24 23 21 18 22 31 39 43 43 41 42 43 47 49 50 52 53 51 53 52 52 54 57 57 55 52 51 54 54 55 56 54 54 53 52 51 48 47 45 44 43 41 38 36 36
22 25 24 24 21 16 22 13 16 24 32 39 43 44 44 44 45 48 50 52 52 53 52 53 53 54 57 58 55 52 48 50 53 55 55 54 54 53 51 49 47 47 45 43 42 40 37 35 36
22 25 25 25 21 20 19 16 16 25 22 30 36 40 43 43 44 45 49 52 53 53 54 53 53 54 56 57 57 54 50 49 53 56 55 54 53 52 49 47 46 47 44 44 41 38 37 38 37
28 27 26 26 23 20 16 17 14 15 18 19 25 35 40 44 45 45 46 50 52 54 54 56 54 54 55 57 58 57 55 52 52 55 55 54 52 51 48 46 46 45 44 43 40 39 40 38 37
28 24 19 20 20 19 24 20 16 20 23 26 26 27 32 41 45 46 46 49 52 54 56 57 56 54 55 56 57 57 57 57 55 54 54 54 52 49 48 47 46 45 44 41 39 41 41 38 37
25 23 20 18 18 17 25 18 17 24 26 29 34 35 35 34 40 45 47 48 51 54 57 57 56 55 55 57 57 58 58 58 57 56 55 54 51 49 48 47 46 44 41 40 40 40 42 38 36
26 24 25 24 29 23 18 20 19 23 25 26 32 34 34 34 36 42 44 47 51 54 56 57 57 55 55 57 58 58 58 58 57 56 55 52 50 49 49 46 45 41 38 39 42 42 39 36 36
27 27 24 24 20 17 17 17 12 16 18 22 22 29 36 40 39 40 42 45 49 53 55 57 57 56 56 57 58 58 57 57 57 57 53 52 51 50 48 45 43 40 40 41 42 38 38 39 38
28 25 26 24 23 18 15 15 19 17 20 24 27 29 32 39 43 44 45 47 49 51 54 56 56 56 56 57 57 58 57 57 57 56 55 54 53 51 46 45 42 40 41 41 38 39 39 37 38
23 22 25 20 18 21 21 18 19 21 24 26 26 30 35 38 42 46 49 50 50 52 52 53 54 54 55 56 57 57 57 57 56 56 56 55 51 48 45 43 41 43 40 39 39 39 38 38 37

GFSSGP_sfc_30mbdewp_051.txt.gz
Dewpoint
53 44 30 21 14 9 3 6 6 15 22 37 39 41 43 50 48 44 62 64 63 62 63 67 70 69 69 69 68 67 66 65 65 65 65 65 66 66 67 67 66 65 62 59 59 58 59 59 60
37 24 24 18 11 1 3 2 9 13 30 43 45 47 42 51 54 60 62 65 65 63 62 66 69 69 68 68 67 66 65 65 65 65 65 65 65 64 65 65 66 66 64 59 59 59 59 60 61
35 27 21 18 10 4 1 12 14 20 32 41 39 45 50 53 57 59 62 65 67 63 62 66 68 68 67 66 66 65 65 65 65 65 65 64 64 64 65 65 65 65 65 60 59 60 60 61 62
25 23 17 7 4 5 3 10 11 15 26 35 39 42 55 60 59 63 62 65 66 65 62 67 67 67 66 65 65 65 65 65 64 64 64 64 64 65 66 66 65 65 65 60 59 59 60 61 60
21 15 10 10 4 4 8 8 10 20 23 31 36 40 52 60 62 65 65 66 65 64 64 67 66 66 65 65 65 65 65 64 64 64 64 64 64 65 66 66 65 65 65 60 59 59 59 59 58
18 14 8 5 5 7 9 21 29 26 29 37 41 39 56 60 62 64 66 66 66 66 66 66 65 65 65 65 65 65 64 64 64 64 64 64 64 64 65 66 66 65 62 61 60 60 58 58 57
16 13 9 6 10 12 19 34 39 41 38 39 45 43 57 59 61 63 64 64 65 66 65 65 65 63 64 64 64 64 64 64 64 64 64 64 63 62 64 64 63 62 61 60 60 59 58 56 55
16 12 8 7 14 20 29 35 43 43 40 48 48 44 50 59 60 61 61 61 63 63 64 63 63 63 62 63 63 63 64 64 64 64 63 62 61 61 62 62 62 61 61 60 59 58 57 54 52
16 13 8 10 13 21 25 32 44 48 44 47 53 55 58 59 60 59 57 58 58 59 59 61 61 60 61 61 62 62 64 64 62 61 59 54 49 48 51 59 61 62 61 59 58 57 54 53 49
16 13 12 15 18 20 22 33 41 43 42 45 55 57 58 58 58 57 56 54 56 56 55 56 57 58 57 59 60 61 61 59 57 56 54 50 50 52 52 58 60 60 59 58 56 51 49 48 42
17 15 15 16 20 22 24 34 40 39 38 45 50 55 57 57 56 56 55 54 54 56 55 54 55 55 55 56 57 57 56 56 55 55 54 54 56 55 56 55 52 53 52 47 46 47 47 46 44
16 16 17 18 22 27 34 35 38 42 46 51 55 56 55 55 55 54 54 53 52 53 55 55 56 58 58 58 57 56 55 55 54 56 57 56 55 55 54 52 51 50 49 47 47 48 48 47 45
17 17 18 21 26 34 36 35 36 44 50 55 56 55 54 53 55 54 54 54 52 52 53 55 56 56 57 58 57 55 52 51 54 55 56 55 54 54 52 52 51 50 50 50 49 49 47 46 44
20 20 20 25 28 28 33 34 38 47 52 54 55 53 52 52 54 53 53 53 52 53 53 54 56 56 56 55 55 55 53 53 53 55 56 57 54 54 51 53 51 50 51 50 49 47 47 45 43
21 20 21 25 28 27 33 33 35 47 50 50 51 49 50 52 51 53 52 52 52 52 53 54 55 54 52 50 51 48 50 53 54 53 56 56 54 54 52 53 52 51 51 50 48 48 46 44 39
14 15 15 37 28 29 34 37 41 45 48 45 45 47 48 52 50 51 52 52 50 48 49 50 50 51 49 50 51 50 53 52 51 51 56 56 54 54 54 52 52 52 52 50 49 47 46 43 38
14 9 15 27 24 28 28 36 40 41 44 41 43 44 46 49 48 50 50 49 48 48 48 49 49 47 49 51 53 55 51 48 45 50 54 56 57 58 57 54 53 53 51 49 49 47 46 42 37
9 10 11 10 30 24 26 26 36 39 40 40 40 42 43 46 47 49 51 49 48 50 53 53 53 52 54 56 53 50 51 50 50 53 56 58 59 59 58 54 54 54 51 50 49 47 45 41 37
15 13 10 16 24 24 26 24 33 38 38 39 40 41 41 45 47 49 49 50 49 50 52 53 54 55 56 54 51 46 50 50 51 54 56 57 57 58 57 53 54 53 50 50 49 47 43 39 38
17 17 13 20 21 22 23 21 24 33 37 36 38 39 40 42 46 48 50 50 49 49 51 52 52 53 56 54 51 47 45 47 48 51 55 55 57 56 55 53 53 53 51 50 49 46 42 40 40
17 18 19 20 28 18 17 15 15 20 32 35 35 36 37 40 44 47 47 48 50 49 51 52 53 54 57 56 52 49 46 46 48 50 53 56 57 56 55 54 52 52 51 50 49 46 43 40 40
16 19 21 19 17 14 22 13 23 19 26 33 34 34 35 37 42 45 48 48 48 48 50 51 52 52 52 53 52 50 47 44 47 49 52 56 57 57 54 53 53 52 51 50 49 47 45 42 39
19 24 21 19 19 18 23 17 21 19 20 25 34 35 35 36 39 43 46 48 50 50 50 52 51 51 51 53 54 53 51 47 48 51 53 56 56 56 54 53 53 51 50 49 48 46 45 41 39
23 24 22 22 19 18 18 18 17 20 15 18 24 31 36 36 38 40 44 46 49 50 52 52 51 50 51 52 54 54 52 50 46 50 54 55 55 55 55 53 52 51 50 48 47 46 43 41 42
24 21 20 19 16 19 20 15 14 26 20 19 21 23 30 35 38 39 40 44 48 50 52 53 52 50 51 52 54 55 54 54 52 50 55 54 55 54 53 53 51 51 50 48 47 45 44 42 40
22 21 22 21 20 19 23 15 15 22 22 22 23 27 28 30 36 39 40 41 46 50 52 53 53 53 51 54 56 56 56 56 56 56 55 55 55 55 54 52 50 49 49 48 46 43 44 43 42
23 20 22 21 26 22 21 17 24 21 16 21 22 28 30 32 32 36 40 42 44 50 53 55 55 54 54 57 59 58 58 58 59 59 58 57 58 54 52 51 50 49 48 45 44 44 43 39 41
23 27 21 23 21 20 15 15 15 17 17 16 18 22 31 36 34 34 38 41 45 48 53 56 57 56 55 55 57 57 57 60 59 59 58 58 56 53 51 51 50 48 44 45 44 42 41 40 41
24 25 24 23 22 24 17 16 18 16 17 18 20 21 23 33 39 39 40 41 42 46 51 55 57 56 55 55 57 58 58 58 59 58 58 57 55 54 52 51 49 46 46 43 41 41 41 40 41
23 23 24 22 22 21 20 20 20 20 19 21 22 23 24 28 38 43 44 45 46 48 50 54 56 56 55 55 56 58 58 58 58 58 57 57 56 53 51 48 47 45 43 43 41 40 40 39 39

GFSSGP_sfc_30mbdewp_054.txt.gz
Dewpoint
51 48 40 31 17 16 10 5 6 4 16 42 50 42 47 45 46 44 63 61 62 65 68 69 70 70 69 69 69 68 67 66 66 67 67 67 67 68 67 64 63 63 61 59 59 58 57 58 59
42 38 24 20 15 12 4 8 13 17 30 40 41 39 39 49 51 56 60 65 64 65 66 69 70 69 69 69 68 67 66 66 66 66 66 67 67 68 66 65 63 62 61 60 59 59 57 59 60
39 30 21 19 18 11 6 10 13 19 20 29 37 43 50 52 55 59 63 66 65 64 66 67 68 69 68 68 67 66 66 66 66 66 66 66 66 67 67 66 63 62 61 59 59 58 58 59 59
30 23 21 14 5 4 6 10 10 12 13 24 28 42 55 57 60 63 64 65 64 65 68 68 68 68 67 67 66 66 65 65 65 66 65 65 66 66 66 65 65 62 61 59 58 58 58 57 56
25 17 12 9 9 11 5 7 8 9 16 23 36 44 53 60 64 65 65 62 65 65 68 67 67 67 66 66 66 66 66 65 65 65 65 66 66 66 66 66 65 62 61 59 58 57 57 56 53
21 18 11 7 10 9 9 30 31 28 25 24 32 39 55 62 62 64 66 64 66 65 67 66 66 66 66 66 66 66 65 65 65 65 66 67 67 67 66 66 64 62 61 61 59 59 57 54 50
17 15 11 9 6 19 22 31 31 40 46 45 46 45 57 59 61 62 63 64 65 66 65 65 64 65 65 65 65 65 65 65 65 65 65 65 66 66 66 65 63 62 62 61 59 58 57 53 46
16 12 10 8 10 21 30 32 45 39 47 51 54 47 45 58 60 60 60 62 63 64 64 63 63 63 62 60 62 63 64 65 65 64 63 64 65 65 64 63 62 61 61 60 59 57 55 49 45
16 13 13 14 12 22 30 32 47 45 45 48 57 57 58 59 60 58 58 58 59 61 63 62 62 61 60 60 59 62 64 64 63 61 60 59 61 62 59 61 61 61 60 59 58 54 49 47 44
14 14 17 13 14 16 19 24 44 38 38 42 43 57 58 59 57 56 55 55 56 56 59 61 61 60 58 57 59 60 61 60 59 56 53 53 55 56 59 62 62 60 58 57 54 51 48 46 42
14 14 16 14 19 19 22 36 41 42 43 47 40 53 57 57 55 55 54 55 54 55 56 58 59 59 58 57 59 58 57 58 58 57 56 57 56 57 58 58 58 57 54 51 51 52 48 49 47
14 13 15 15 19 23 26 43 41 44 52 54 52 56 56 54 54 54 53 52 53 54 55 56 57 57 58 57 55 56 55 56 55 57 58 57 57 57 55 54 53 52 52 48 49 50 51 48 46
14 15 14 17 19 26 29 32 41 47 54 54 54 54 54 54 53 53 53 53 53 53 55 56 56 55 55 55 56 57 56 55 55 57 57 58 56 57 55 55 53 52 53 50 51 51 49 48 45
16 17 17 18 21 26 26 41 44 50 53 53 53 52 53 53 53 52 52 52 52 53 54 56 55 56 55 54 55 55 56 54 55 57 56 57 56 57 56 56 55 54 54 52 52 50 49 48 45
16 15 17 21 22 25 28 33 39 44 49 51 49 47 50 52 52 52 51 52 52 53 54 55 56 57 56 55 57 56 54 55 56 56 57 56 57 56 55 55 55 53 54 54 52 50 50 47 45
19 14 11 21 26 27 33 32 38 40 45 47 45 45 51 48 52 52 51 51 51 52 53 55 54 55 54 54 54 49 51 55 54 55 56 57 56 56 56 55 56 55 55 52 52 50 48 48 43
15 12 10 23 28 30 37 39 41 43 44 41 42 44 47 47 51 52 51 51 51 51 52 53 53 52 50 50 49 51 49 54 54 53 55 57 57 57 56 57 56 56 54 53 51 51 50 47 42
13 12 13 10 24 23 23 39 42 46 40 37 41 42 45 45 48 50 51 50 50 50 51 51 50 50 49 48 50 51 53 54 53 51 54 58 58 59 58 57 57 55 54 53 52 50 50 48 42
18 14 12 20 26 25 28 28 39 37 36 36 39 40 43 45 48 49 49 49 48 49 51 50 50 51 50 53 52 52 53 52 51 52 54 58 58 59 58 58 57 56 55 53 53 51 49 44 41
19 16 14 15 23 20 16 20 37 39 44 37 38 40 41 44 47 50 49 49 50 51 51 51 51 48 50 54 55 51 51 52 52 52 56 58 59 59 59 59 56 56 55 53 52 51 47 45 43
17 14 13 20 25 22 17 14 15 35 40 35 37 39 40 42 47 48 49 49 50 53 54 54 54 53 54 55 55 53 50 50 51 51 55 57 58 58 58 58 56 56 55 53 53 51 48 45 45
16 14 16 21 21 16 22 15 15 19 25 32 33 36 38 41 46 48 49 50 51 52 53 53 54 54 55 56 54 52 49 46 48 49 54 56 58 58 57 57 57 56 55 53 53 52 49 48 44
19 24 22 17 16 15 18 21 19 21 21 26 32 33 36 39 44 47 48 50 51 52 53 53 53 53 54 56 57 55 51 49 47 51 51 56 59 59 58 57 56 55 54 53 52 50 49 48 45
22 22 23 21 19 18 16 19 23 22 23 24 28 32 33 36 41 46 48 48 49 51 53 53 53 53 53 56 57 55 53 51 50 51 53 57 58 58 58 56 56 56 54 53 53 51 50 47 46
22 21 20 19 18 19 20 19 20 26 26 22 26 30 34 35 37 42 46 48 49 49 51 53 53 52 53 53 54 55 55 55 52 52 54 56 57 57 57 57 55 55 54 53 51 51 48 47 43
24 22 21 22 24 23 30 22 19 25 25 23 21 22 28 36 38 39 42 47 49 51 52 52 52 53 52 53 54 56 56 57 56 55 53 56 56 56 57 57 56 54 53 52 50 49 45 45 46
24 21 22 21 29 27 28 25 26 26 22 18 21 22 26 29 36 39 40 43 47 50 52 54 53 52 51 53 55 56 58 59 59 59 57 56 57 57 57 57 53 52 51 51 47 46 46 46 44
21 26 22 20 23 23 20 20 21 21 17 17 18 23 28 33 33 33 38 41 45 50 53 55 55 54 53 54 56 57 58 58 58 56 59 59 58 56 54 53 52 51 51 47 46 46 43 42 43
20 21 27 25 21 22 21 21 26 22 19 17 19 21 23 31 36 36 37 40 44 48 52 56 56 55 56 57 58 57 57 57 58 60 59 60 57 56 54 53 52 51 47 46 44 43 42 41 42
20 22 24 25 23 25 28 26 23 24 20 21 21 22 23 28 38 40 40 41 42 46 52 55 56 57 58 58 59 58 58 59 59 59 59 58 56 55 54 52 49 47 46 43 42 42 42 41 40

GFSSGP_sfc_30mbdewp_057.txt.gz
Dewpoint
47 48 48 38 26 20 16 15 15 20 32 46 45 35 45 48 47 48 61 61 60 58 58 66 68 69 69 69 68 68 67 67 67 67 67 68 66 65 64 63 62 62 60 57 56 58 58 59 60
42 40 42 32 18 15 15 14 13 17 38 43 43 39 48 50 52 59 63 62 62 59 61 68 68 68 69 69 68 67 67 67 67 66 67 68 66 64 64 63 63 62 61 57 55 57 59 59 58
45 38 28 21 19 18 15 14 12 16 20 35 40 55 51 49 55 58 65 62 60 66 68 68 68 68 69 68 67 67 67 67 67 66 68 68 66 64 64 63 63 62 60 56 56 58 58 57 55
39 30 25 18 15 14 16 11 16 12 10 26 47 49 54 55 59 64 66 65 65 66 68 68 68 67 67 67 67 67 66 66 66 67 68 67 67 65 64 63 63 62 59 56 56 56 57 55 52
38 29 18 18 17 16 16 24 22 30 37 45 44 50 49 55 63 64 65 65 66 67 67 67 66 67 67 67 67 66 66 66 66 66 67 67 66 66 64 63 62 61 59 56 55 55 54 52 48
26 24 18 16 15 17 27 28 34 42 41 47 48 51 53 59 61 63 65 65 66 67 67 67 68 67 67 67 66 66 66 66 66 66 67 67 67 66 65 63 62 61 60 59 57 55 51 48 48
23 19 15 13 12 20 27 33 43 40 47 42 50 50 51 57 60 61 64 65 66 66 66 66 66 66 66 66 66 65 66 66 66 67 67 67 66 66 64 63 62 62 61 59 57 53 49 47 46
23 17 13 13 12 22 25 31 45 44 44 49 54 45 44 58 60 61 62 64 65 64 64 64 64 64 63 63 62 63 65 65 65 66 67 66 66 66 64 63 62 61 60 58 55 51 46 44 43
22 16 12 13 16 23 28 33 44 48 46 51 56 53 54 59 59 60 61 60 62 63 63 63 62 61 60 60 61 64 64 63 64 65 64 64 64 63 61 62 62 60 59 57 54 48 45 42 42
18 14 13 15 18 19 33 38 44 44 45 48 55 58 58 59 57 57 59 58 57 59 61 61 60 60 59 57 61 63 62 60 59 60 59 61 60 61 61 61 61 59 57 55 54 50 47 44 43
15 13 14 14 21 22 27 36 43 42 44 47 48 55 57 56 55 55 55 56 55 57 59 60 59 58 58 58 59 60 60 59 56 56 57 58 60 60 60 59 58 57 55 54 53 50 46 48 46
14 15 14 14 20 24 31 42 47 45 49 55 56 55 55 54 53 53 53 54 54 55 57 58 57 56 56 57 58 59 58 57 57 58 57 57 56 56 56 56 55 52 50 48 48 48 51 46 43
19 14 16 18 17 26 41 46 46 43 49 50 55 55 54 53 53 53 53 54 54 55 56 57 57 57 56 57 57 56 57 56 57 58 57 57 55 54 54 54 52 51 51 47 50 51 48 45 43
21 18 16 16 17 23 34 41 41 48 44 49 54 53 53 52 52 52 52 53 53 55 54 55 55 55 56 56 56 56 56 55 56 57 57 57 53 54 54 54 51 51 52 49 52 50 48 46 42
25 21 19 16 22 28 35 34 37 46 49 50 52 53 53 52 51 51 52 52 53 54 54 54 54 55 54 54 54 55 55 55 54 55 56 57 57 56 55 56 55 53 54 51 52 50 49 48 43
22 20 17 17 21 32 30 29 39 41 45 48 51 51 52 51 51 51 51 52 52 53 54 55 55 53 53 53 53 54 56 56 56 55 56 55 55 56 56 56 56 54 54 53 52 50 48 47 42
21 17 16 16 23 32 32 34 35 43 42 46 47 50 49 51 51 51 51 51 52 53 54 54 55 52 53 55 55 54 54 54 54 54 54 55 56 57 54 55 55 57 55 53 50 50 48 48 46
19 19 15 16 25 34 35 35 35 40 46 45 46 49 48 51 51 51 51 51 52 53 53 53 53 53 53 54 52 50 50 51 53 53 54 56 57 57 57 56 57 57 53 52 52 50 50 49 44
21 21 17 17 25 24 33 36 36 37 44 46 45 46 46 50 51 51 50 51 51 51 52 52 51 51 51 50 48 47 48 47 53 53 52 55 57 57 58 57 57 57 54 52 52 51 49 48 45
23 20 17 17 28 24 26 36 37 39 41 43 43 45 45 48 51 50 50 50 49 50 51 51 50 48 47 47 48 49 49 49 50 53 53 56 57 58 58 58 58 57 54 54 52 50 49 47 43
22 20 17 16 24 24 22 22 35 39 41 41 44 43 45 48 48 49 48 49 48 50 50 48 49 48 48 48 50 52 52 52 53 52 51 57 58 58 58 59 58 56 55 54 53 51 48 46 45
20 21 17 15 21 20 21 17 23 39 39 44 42 41 44 48 49 48 48 48 48 49 50 49 50 49 49 52 53 52 51 49 51 51 51 55 58 58 58 58 58 57 56 54 53 52 50 47 45
21 24 24 22 21 16 17 20 21 34 37 42 42 40 43 47 49 49 48 48 49 50 50 50 51 48 48 49 53 54 53 50 49 51 51 54 57 58 58 58 57 56 56 55 53 52 50 49 47
23 23 22 24 23 18 20 20 19 22 23 33 35 38 40 45 48 49 49 49 49 51 53 53 52 52 49 51 54 55 55 51 48 48 50 55 57 58 58 58 57 56 55 54 53 53 51 51 49
22 21 20 20 20 19 25 24 22 24 27 25 33 34 38 42 47 48 48 50 50 50 53 53 53 54 54 54 55 55 56 55 51 49 50 54 57 57 57 58 56 56 55 55 54 53 52 51 46
22 22 21 18 21 20 29 24 24 27 26 26 25 31 34 39 45 47 48 49 50 50 52 52 52 52 53 53 55 56 56 56 55 54 54 55 56 57 58 58 57 56 55 54 53 52 51 48 45
25 22 24 22 28 27 28 29 28 27 26 26 22 26 31 36 41 46 47 48 48 50 50 52 52 52 53 53 55 56 56 55 57 56 56 57 58 57 57 58 57 56 55 53 52 49 47 47 46
23 26 23 23 20 21 23 25 24 25 24 24 20 23 26 34 36 40 47 48 48 48 50 50 52 53 52 53 53 54 57 57 58 58 57 58 57 56 56 56 55 54 52 50 48 47 46 45 44
22 21 22 27 27 22 21 22 27 26 26 21 18 23 30 34 35 37 39 45 49 49 50 50 50 52 53 53 54 54 58 59 59 58 57 56 56 55 55 54 53 51 50 48 47 45 44 43 43
23 21 22 26 26 27 25 24 27 26 27 24 21 23 26 35 36 38 40 42 45 48 50 51 53 53 54 54 57 57 58 58 58 58 57 59 57 56 55 53 52 49 47 45 44 43 42 42 42

GFSSGP_sfc_30mbdewp_060.txt.gz
Dewpoint
46 48 45 37 22 21 19 17 19 17 21 42 44 43 45 48 50 43 60 60 62 63 67 68 68 68 69 68 68 68 67 68 68 68 66 66 65 64 63 63 61 60 60 60 60 60 60 61 62
43 42 40 33 20 15 14 17 15 15 18 45 44 48 50 45 53 61 59 60 60 60 62 66 64 68 67 68 68 68 67 67 68 67 66 65 64 64 63 63 61 60 60 59 59 60 57 56 60
39 36 28 26 19 16 16 18 18 19 43 40 51 54 50 50 55 60 65 62 60 60 60 59 60 64 67 68 68 67 67 67 67 66 66 65 64 64 64 63 61 59 59 59 59 57 55 55 59
38 29 26 20 17 18 18 17 21 37 45 47 48 49 54 54 62 63 65 62 62 65 67 65 63 67 67 68 67 67 67 67 67 66 65 65 65 64 64 63 61 59 58 58 57 55 53 57 59
37 28 21 18 17 18 17 23 40 41 43 45 48 42 46 59 62 64 65 66 66 67 68 67 66 66 66 66 67 67 67 67 68 67 65 65 64 64 63 62 61 59 58 56 55 53 53 56 60
29 25 20 17 17 16 24 39 39 40 43 43 49 50 50 59 60 62 65 65 66 66 67 67 66 66 65 66 65 65 67 67 67 67 66 65 64 64 63 62 61 60 59 57 55 53 53 54 57
25 22 20 18 16 13 25 41 38 40 42 45 49 49 52 57 60 61 64 63 66 66 66 66 66 66 66 65 63 63 66 66 67 66 66 65 64 64 63 63 62 60 58 55 52 51 50 52 53
25 22 19 17 12 13 28 42 46 42 44 50 54 46 46 57 60 61 64 64 65 65 64 65 65 65 63 63 62 61 65 66 67 66 66 66 64 64 63 62 61 59 56 52 50 48 47 48 52
22 19 16 15 13 19 29 39 47 47 45 52 56 56 57 59 60 60 61 61 62 63 64 64 64 63 62 63 63 62 65 66 66 65 65 65 64 63 61 61 60 58 55 51 49 50 46 45 51
19 16 16 17 15 21 38 43 46 45 47 49 53 57 59 58 58 58 58 59 60 60 61 61 60 60 62 62 62 64 65 65 64 63 63 62 62 61 61 61 59 57 55 53 50 49 48 46 42
17 15 15 15 15 24 40 44 46 47 44 50 47 55 57 56 56 56 55 56 57 59 60 59 59 59 59 61 63 62 62 61 60 61 60 61 61 60 60 59 57 56 55 53 49 46 47 46 41
15 16 16 16 18 28 38 45 41 44 42 52 51 56 55 54 54 54 54 55 55 57 59 59 59 58 59 60 59 60 59 58 58 58 60 59 58 57 57 56 54 53 52 50 48 48 47 44 40
20 21 20 17 24 37 44 45 40 42 51 55 55 55 54 53 53 54 54 54 55 56 57 57 57 57 58 58 58 58 58 58 58 57 58 57 55 55 55 54 52 50 50 47 48 51 46 43 42
24 26 24 21 19 37 38 42 43 45 49 53 54 54 53 52 52 52 53 53 54 55 55 57 56 57 57 57 57 57 57 58 58 57 57 54 54 53 53 52 50 49 51 47 50 49 46 44 38
25 22 21 21 19 30 37 34 35 47 48 51 53 53 52 51 52 52 53 53 54 55 55 55 56 56 56 55 56 56 56 56 57 58 56 54 53 52 53 52 50 50 51 50 52 50 48 45 41
23 22 18 19 18 28 32 25 38 46 49 50 52 52 52 51 51 51 52 53 54 54 54 55 55 55 54 54 55 53 54 54 55 56 57 56 54 53 54 55 53 53 53 52 52 50 49 46 42
22 16 19 20 21 23 31 28 38 46 48 48 51 52 51 51 51 51 52 52 53 54 55 54 54 54 54 53 53 53 53 53 53 53 55 56 56 57 56 55 56 56 55 54 52 50 48 46 44
16 20 20 19 21 32 33 31 39 41 43 46 50 51 51 51 50 51 50 52 52 53 54 53 53 53 52 52 53 54 54 53 53 51 52 55 56 57 56 56 56 57 56 53 51 49 49 48 47
21 20 20 21 27 28 29 31 36 42 42 47 47 49 50 50 51 51 50 51 52 53 53 53 52 52 53 52 52 51 51 52 53 53 53 54 56 56 56 56 56 57 55 53 51 50 49 49 47
21 20 20 20 23 25 30 30 34 38 42 45 46 49 49 50 50 50 50 51 51 52 53 53 52 52 52 52 51 50 50 50 50 53 53 53 55 57 57 57 57 57 55 53 52 50 49 49 45
21 20 21 19 19 25 30 29 32 38 39 42 45 47 48 50 50 49 50 50 51 51 52 52 51 51 51 51 49 49 49 50 48 49 51 53 53 56 57 57 57 57 56 54 52 51 49 48 46
21 23 22 21 19 18 22 18 29 37 38 40 43 45 46 49 50 49 49 49 49 50 51 52 51 50 50 49 48 48 47 46 46 46 48 50 55 57 57 57 58 57 56 55 54 53 51 48 47
22 25 23 24 22 19 19 17 20 35 35 37 41 44 45 48 50 50 49 49 49 49 50 50 50 49 49 48 47 48 48 47 47 49 51 52 54 57 58 58 58 57 57 56 54 53 52 50 49
25 24 23 25 23 19 21 19 19 33 34 35 39 42 43 47 48 49 49 49 48 49 50 48 48 50 47 47 48 50 50 49 49 50 51 52 52 55 57 58 58 58 57 56 55 55 53 51 49
24 21 19 19 19 18 24 23 22 22 28 36 38 41 42 46 48 48 48 47 47 48 50 49 48 49 48 47 48 52 52 52 53 49 49 51 52 55 56 57 57 57 57 56 56 55 53 52 50
23 22 19 17 19 19 28 22 24 27 28 30 38 39 41 43 48 48 48 48 48 48 49 49 49 49 49 47 48 49 53 54 55 53 50 50 52 54 56 57 57 57 57 56 56 54 53 51 50
23 21 24 21 29 26 27 29 28 28 27 27 31 38 39 41 46 48 49 48 48 49 50 50 50 50 51 49 48 49 52 54 55 56 54 53 55 56 57 57 57 57 56 57 55 53 50 49 48
23 26 23 25 19 19 23 23 23 26 26 26 26 28 34 39 43 47 48 49 49 49 50 52 52 52 52 53 53 53 54 55 56 57 55 55 57 57 57 57 57 57 57 55 53 50 48 47 46
23 23 25 25 25 21 20 21 27 26 28 24 25 24 26 35 40 45 48 48 49 50 50 51 53 53 53 54 54 54 55 56 58 58 58 58 57 56 55 56 56 55 54 51 49 48 46 46 44
22 22 23 22 25 27 26 25 28 26 25 23 22 27 33 34 36 40 45 48 48 49 50 51 51 53 53 54 55 55 57 58 58 58 58 58 56 55 55 55 54 52 50 48 47 46 45 44 43

GFSSGP_sfc_30mbdewp_066.txt.gz
Dewpoint
50 51 43 29 18 19 16 17 20 19 20 39 46 42 41 46 43 35 60 63 66 68 68 66 66 66 67 67 68 68 68 68 68 67 67 67 66 65 64 64 64 63 62 60 60 59 60 60 61
42 45 34 26 17 14 13 17 16 21 41 44 50 51 46 46 53 60 59 61 65 68 65 65 65 64 64 65 66 67 67 67 67 67 66 66 65 64 64 64 64 63 62 61 60 61 61 61 61
38 32 26 22 18 14 14 18 17 19 40 45 49 51 49 46 55 58 64 62 64 66 65 63 65 65 64 65 65 66 66 67 67 66 65 65 64 64 64 64 64 63 63 62 62 62 62 62 61
35 28 23 20 16 18 18 18 19 22 38 46 51 45 53 54 59 61 63 62 63 63 65 65 64 64 64 64 65 66 66 66 66 65 64 64 63 64 64 63 63 61 60 61 61 63 62 61 60
32 26 21 18 17 19 20 20 28 38 41 42 47 43 46 53 60 61 62 63 61 62 63 65 64 65 64 65 65 65 64 66 65 65 64 63 63 64 63 63 61 58 57 60 62 62 60 60 59
24 24 18 14 16 18 19 21 38 38 41 42 46 45 48 59 59 60 62 63 60 61 61 64 64 65 64 65 64 63 65 65 65 65 64 63 62 63 63 62 60 58 61 62 62 61 59 59 58
23 21 18 18 18 16 15 39 38 37 41 42 49 47 51 54 58 60 62 64 64 62 62 64 63 64 63 63 64 63 62 63 64 65 64 63 63 63 62 61 59 59 62 62 61 59 59 58 57
25 23 20 19 16 14 19 38 46 42 41 50 54 45 44 56 59 61 62 61 64 64 64 64 63 63 62 63 63 63 61 63 65 65 64 64 63 62 60 58 57 57 60 61 60 59 58 58 57
23 19 17 17 15 14 23 27 44 46 46 49 55 55 56 58 59 60 61 60 62 62 64 63 63 62 61 61 62 62 62 60 63 65 64 63 62 60 57 56 56 57 58 59 60 60 59 58 57
22 19 17 18 17 16 18 29 41 42 44 47 52 56 56 58 58 57 58 59 60 61 62 62 62 62 62 62 61 60 61 60 58 62 62 62 60 57 57 57 57 56 56 58 60 60 58 57 56
20 18 18 17 17 17 20 38 44 43 39 45 45 52 55 55 56 55 56 57 57 59 60 62 61 60 59 59 58 59 61 61 60 61 62 60 59 59 57 54 53 54 52 51 54 52 50 51 51
18 18 17 17 20 25 27 41 41 43 40 51 52 54 55 54 54 55 55 56 57 58 59 61 60 60 59 57 56 58 59 60 60 60 61 59 57 56 55 53 52 49 48 46 45 44 45 46 46
16 17 21 23 25 25 39 35 39 40 47 53 55 55 54 53 53 54 55 56 57 57 58 59 61 60 60 58 57 57 57 58 59 59 60 58 56 55 54 52 50 48 48 48 45 41 41 40 42
22 22 24 24 22 37 35 40 43 40 49 53 54 54 53 52 52 51 53 55 56 57 57 59 59 60 60 58 59 59 60 59 60 60 60 57 55 54 52 51 49 48 48 48 45 42 39 38 37
25 22 22 19 21 28 40 35 39 43 50 51 53 53 53 52 52 51 51 53 55 56 57 57 58 60 59 59 59 60 60 60 60 61 59 56 55 53 52 50 49 48 48 50 47 45 42 38 37
22 21 17 17 23 28 32 22 25 42 48 49 51 53 52 51 51 51 53 52 55 56 56 57 58 58 58 58 58 59 60 60 59 59 57 55 54 52 51 50 49 49 48 51 48 46 43 39 36
22 16 15 16 21 31 31 23 31 46 48 46 50 52 52 51 51 51 52 52 54 55 56 56 57 57 57 57 57 57 57 57 59 58 56 54 53 53 51 50 50 50 50 50 50 49 47 43 40
17 18 19 18 21 23 28 27 29 42 45 44 49 51 51 51 51 50 52 53 54 54 55 56 56 56 56 56 56 56 56 56 58 57 55 54 53 53 53 52 52 51 51 51 51 50 49 47 44
19 20 19 19 20 20 22 30 28 36 44 44 48 50 51 51 51 51 50 53 54 54 54 55 55 55 55 55 55 54 53 54 55 55 55 54 54 54 53 53 53 53 51 51 52 51 49 48 46
22 20 20 20 19 22 21 22 27 35 39 44 46 48 50 51 50 50 50 51 53 53 54 54 54 53 53 53 54 54 54 52 53 54 54 55 55 56 56 54 54 55 55 54 53 51 50 49 46
22 20 20 15 21 22 23 23 23 31 39 42 45 47 50 50 50 50 49 49 50 52 53 52 52 52 52 52 51 51 54 51 50 51 52 53 55 56 56 57 56 56 56 55 53 52 50 49 48
18 22 21 20 20 18 25 19 21 22 28 38 41 45 46 49 51 50 49 49 49 50 53 52 52 52 52 51 51 49 52 50 49 48 50 51 53 53 54 56 56 56 56 55 54 52 51 50 48
19 21 21 21 22 22 21 21 20 29 24 27 34 41 45 48 50 50 50 50 50 50 52 51 52 52 52 51 50 49 49 50 48 48 47 48 50 52 52 53 54 56 56 55 55 54 52 51 50
25 24 25 26 24 21 22 20 20 20 24 23 29 37 42 47 49 50 50 50 50 50 51 50 51 51 51 51 50 49 49 48 48 47 47 47 48 49 52 53 53 54 55 55 55 55 54 53 52
24 23 20 20 21 20 22 20 20 22 22 26 25 30 39 45 48 50 49 49 49 49 50 50 50 51 51 51 51 49 49 48 48 47 47 47 47 48 50 52 54 54 55 56 56 55 54 54 53
25 24 21 18 19 19 25 21 20 26 26 25 28 32 37 44 48 49 49 49 49 49 50 51 51 51 50 50 50 50 49 49 48 48 48 48 48 48 49 51 53 54 55 56 55 55 55 55 55
25 23 24 21 25 23 22 27 29 29 28 27 27 29 32 42 46 49 50 49 49 49 49 50 50 51 50 50 50 49 49 49 49 49 50 49 49 50 50 51 52 53 55 55 56 56 55 55 55
24 26 21 24 19 18 21 24 21 22 22 23 24 28 32 40 45 48 49 50 49 49 49 49 50 50 50 50 50 50 49 49 50 50 50 52 53 53 52 52 52 53 54 55 56 56 56 56 55
23 23 24 24 23 19 18 19 26 24 24 24 26 28 30 39 42 46 48 50 50 49 48 48 49 49 49 50 50 49 49 49 50 51 52 53 54 55 54 54 55 55 56 55 55 56 55 54 52
23 23 24 22 21 26 23 21 26 26 27 28 28 27 26 36 41 44 47 48 49 49 48 48 48 49 49 49 50 49 48 48 48 49 50 52 52 54 55 56 55 56 56 56 55 54 52 52 49

GFSSGP_sfc_30mbdewp_069.txt.gz
Dewpoint
51 47 41 28 17 18 15 17 21 18 27 30 47 43 40 46 41 36 60 64 67 67 68 67 68 69 69 69 69 69 69 68 68 68 68 68 68 67 66 65 65 64 63 62 63 62 62 60 61
45 42 33 25 17 13 13 17 16 18 30 43 48 51 47 41 53 59 60 63 67 67 66 67 68 68 69 69 69 69 69 68 68 68 68 67 66 66 65 64 64 63 62 60 60 60 61 62 61
36 31 26 21 19 13 14 17 18 19 24 43 45 51 49 45 54 58 64 63 66 67 65 66 65 65 68 68 68 69 68 68 67 67 67 66 66 65 65 64 63 63 62 60 59 60 61 62 62
33 28 24 20 16 18 18 18 20 21 37 46 50 46 52 54 58 62 63 63 65 65 64 65 66 66 67 68 68 68 67 67 67 66 66 65 66 65 64 63 63 63 61 61 61 61 61 61 61
31 26 21 18 18 19 20 20 21 30 39 43 47 42 45 53 61 61 62 64 64 64 64 65 65 65 65 66 68 67 67 66 66 65 65 65 65 64 64 63 64 63 63 63 61 61 60 60 60
25 24 18 15 15 18 20 20 30 38 39 42 44 45 46 58 58 59 62 64 63 63 64 65 64 65 65 65 66 66 66 66 65 65 64 65 64 64 63 62 61 63 63 64 62 60 59 59 59
24 21 17 17 17 18 17 37 35 36 39 40 48 46 51 53 58 60 62 65 63 62 63 65 64 64 65 65 65 65 66 65 65 64 64 64 63 64 62 60 61 63 64 63 61 60 59 58 58
25 23 21 20 17 15 16 36 43 41 37 49 51 44 45 55 59 60 63 62 63 64 63 63 64 64 65 65 64 63 64 63 63 64 64 64 64 63 61 61 63 64 63 61 60 59 59 58 58
24 21 19 18 17 16 18 26 43 46 44 49 54 55 56 57 59 60 60 60 61 62 63 64 64 63 63 64 63 63 62 62 61 62 63 63 62 61 57 57 63 63 61 59 59 59 59 58 58
23 21 19 19 18 16 18 21 32 40 43 44 51 56 56 58 58 58 59 58 60 61 62 63 63 62 62 62 60 60 60 59 59 61 61 61 61 58 55 59 61 62 61 60 59 59 58 54 52
22 19 19 18 18 18 19 30 43 41 37 42 44 51 54 56 56 56 57 58 58 60 61 61 62 62 61 61 61 61 60 59 60 60 61 60 57 56 56 57 57 59 60 57 56 56 51 52 51
20 20 20 18 18 23 23 37 39 43 38 48 50 52 54 55 54 55 56 57 58 60 60 61 61 61 61 61 60 61 60 60 59 59 60 57 56 55 54 52 52 54 57 57 56 52 52 52 50
20 19 18 18 22 25 33 31 35 39 45 52 53 54 54 54 54 54 55 56 58 58 59 60 60 60 59 58 59 59 58 57 60 61 58 54 52 52 51 51 49 48 51 52 51 50 49 49 50
20 18 21 25 23 25 29 34 42 39 45 52 54 54 54 53 53 52 54 55 57 58 58 59 60 59 58 57 58 59 59 59 60 60 58 56 52 52 50 49 48 47 47 48 47 47 46 45 46
24 22 22 21 21 24 39 32 36 41 49 49 52 53 53 52 52 52 52 53 56 57 58 59 60 60 58 57 57 58 60 60 59 60 59 56 54 53 50 48 48 49 48 45 44 44 43 41 41
22 22 17 17 25 33 35 23 25 36 46 47 51 52 53 52 52 52 52 53 55 57 58 58 59 59 58 58 58 59 61 60 60 61 58 56 54 53 50 48 49 51 50 46 44 42 40 39 38
22 16 17 16 21 34 30 22 28 44 46 44 48 51 52 52 52 52 53 52 53 56 57 58 58 58 59 59 59 59 60 59 60 60 58 56 54 53 51 49 50 52 52 50 48 46 43 41 39
11 19 19 16 21 24 27 22 25 33 43 44 45 50 51 52 51 51 52 52 52 55 57 57 57 57 58 58 58 58 59 59 59 59 58 55 53 53 53 52 51 52 53 52 51 49 49 45 42
18 18 17 19 21 19 19 22 24 29 41 42 44 47 50 51 52 51 52 52 51 53 55 56 56 56 56 56 56 56 55 56 58 58 57 55 54 53 53 52 52 53 52 52 53 52 51 49 47
20 19 18 20 22 21 18 21 23 30 34 38 40 45 49 51 51 51 51 51 52 52 54 55 55 55 56 56 55 54 55 55 55 57 57 55 54 53 53 52 53 53 54 54 53 53 52 52 49
22 20 19 17 20 21 22 22 22 25 35 40 43 44 47 50 51 50 50 51 52 51 52 53 55 55 55 55 54 55 54 54 55 55 56 56 54 54 54 54 54 55 56 54 55 54 53 52 51
20 22 21 20 19 10 25 19 22 23 24 30 35 42 45 49 51 51 50 49 50 51 52 54 54 53 54 54 53 54 52 51 52 54 54 55 56 56 57 56 57 56 57 57 56 56 55 54 52
19 22 22 21 20 19 18 20 22 25 23 23 25 33 42 46 49 51 50 50 49 50 51 53 53 53 53 53 52 53 53 52 53 52 53 53 55 56 56 56 56 56 56 57 57 56 55 54 53
24 22 24 26 24 20 22 21 20 21 23 24 25 28 36 44 48 50 51 50 50 50 51 52 52 52 53 52 52 51 52 52 49 49 50 51 53 54 54 53 55 55 56 56 57 57 56 55 54
23 22 18 20 21 18 23 22 21 24 23 25 26 27 31 42 47 49 50 50 50 50 50 51 51 51 52 52 51 51 51 52 51 49 49 49 49 49 51 54 54 54 55 55 56 56 56 56 55
24 22 20 14 18 19 24 21 21 26 28 28 27 28 32 38 46 48 50 50 50 50 51 50 50 50 52 52 51 51 51 50 50 51 49 49 49 49 50 52 52 53 54 55 55 56 56 56 56
26 23 25 22 25 22 22 25 27 27 28 28 27 28 29 33 43 47 49 50 50 50 50 50 50 50 51 52 51 51 50 50 50 50 51 51 50 51 51 51 52 53 54 54 55 55 55 56 56
25 27 23 24 17 16 20 23 20 22 22 23 24 26 29 32 40 46 49 50 50 50 51 51 51 51 51 51 51 51 51 50 51 51 50 50 51 51 50 51 51 51 52 54 54 55 56 56 56
24 23 25 24 24 17 17 19 26 24 24 25 26 28 30 30 37 45 47 50 50 50 50 50 50 50 51 51 51 51 51 51 50 50 50 51 51 52 52 51 51 51 52 53 54 55 56 56 56
24 23 24 23 21 26 24 21 25 26 27 28 28 29 31 29 34 42 46 49 50 50 50 50 50 50 51 52 52 51 51 51 50 50 50 51 51 52 52 52 52 52 53 55 55 55 55 55 54

GFSSGP_sfc_30mbdewp_072.txt.gz
Dewpoint
46 43 40 31 19 15 11 12 18 17 23 28 38 36 32 36 33 30 59 63 65 64 65 67 69 70 70 70 70 69 69 69 68 68 68 68 69 68 68 67 66 65 65 65 64 63 63 63 62
40 41 35 24 15 8 10 16 15 19 22 32 40 43 41 37 48 52 58 64 66 64 64 65 67 68 70 70 69 69 69 69 68 68 68 68 68 67 67 66 65 65 65 63 63 62 62 62 62
36 34 25 20 13 7 9 17 18 22 24 30 37 46 42 42 51 57 62 64 66 65 64 64 65 64 65 68 69 69 69 68 68 68 68 68 67 66 66 65 64 64 64 62 60 60 62 61 62
30 27 24 17 11 14 15 17 19 20 32 36 38 35 48 52 53 60 62 63 65 66 64 65 64 64 66 67 68 69 68 68 68 68 67 67 66 66 65 64 63 62 61 60 60 62 62 62 61
32 24 13 12 12 16 18 19 20 20 32 35 40 30 40 52 58 60 61 63 64 66 65 61 65 65 66 67 67 68 68 68 67 67 67 66 66 65 65 63 63 62 62 61 61 62 61 61 61
23 23 10 5 11 17 19 20 21 26 31 36 37 38 39 55 56 59 61 62 65 65 65 64 65 65 65 64 68 68 68 67 67 66 66 66 65 64 64 63 63 63 63 62 61 61 60 60 60
18 14 7 6 10 16 19 25 28 25 26 28 38 36 44 53 57 58 60 64 64 64 65 64 63 63 65 65 63 63 67 66 66 66 65 65 65 65 64 64 63 64 63 62 61 60 60 59 59
21 17 12 10 10 13 17 23 30 29 25 44 42 33 37 53 56 58 60 64 64 63 64 64 63 62 61 63 64 63 63 65 65 65 65 65 64 62 62 63 64 64 63 61 60 60 60 59 58
25 15 10 9 10 14 16 20 27 37 34 43 46 47 52 56 57 58 60 62 62 62 64 64 64 64 65 64 62 61 62 64 64 63 63 64 62 60 59 60 64 64 62 60 60 60 59 59 58
18 12 10 12 12 15 16 22 25 30 28 35 41 51 56 56 55 55 57 58 60 60 61 63 63 64 63 64 63 63 63 63 62 62 61 61 61 59 54 62 64 62 60 60 60 59 58 54 51
16 13 11 16 16 17 17 20 28 29 24 25 32 44 53 54 54 54 55 58 58 60 62 63 62 62 62 62 61 61 61 61 61 61 60 61 60 56 58 61 61 58 56 52 54 54 49 47 47
15 16 12 14 16 18 18 21 26 28 29 41 43 46 51 53 52 53 54 56 58 60 62 60 62 61 61 61 60 60 59 59 60 60 60 61 57 55 57 58 57 54 53 51 50 48 48 48 47
19 12 15 17 18 18 21 23 21 25 33 43 47 49 51 51 51 53 54 56 58 60 61 61 62 61 61 61 61 59 58 57 59 60 59 59 55 53 54 55 55 53 54 53 50 49 49 47 46
16 16 14 13 17 20 22 20 30 22 35 43 48 47 49 50 51 51 52 53 56 58 60 61 61 61 61 61 61 60 58 57 59 60 58 57 55 53 50 52 52 53 54 53 49 47 45 44 45
18 17 14 15 17 16 21 18 20 26 41 41 47 47 49 50 51 51 52 52 55 57 59 60 60 59 59 59 60 59 59 59 59 59 57 54 53 51 51 48 47 48 49 49 47 47 44 43 43
18 17 13 12 14 22 30 14 18 32 38 39 43 47 49 50 51 51 52 51 54 56 58 59 60 59 59 59 59 59 60 60 59 59 56 52 50 52 50 47 46 46 48 46 45 43 43 41 40
18 13 14 14 17 21 27 17 24 35 35 34 40 45 48 49 50 51 52 51 53 55 57 59 59 59 58 58 59 60 60 60 60 60 57 54 51 51 47 47 47 49 45 44 45 44 43 41 39
15 15 14 13 14 22 20 20 19 24 31 34 37 43 46 48 49 51 52 51 52 54 56 58 58 59 58 58 58 59 59 59 60 59 57 55 51 51 47 47 51 51 48 48 47 46 45 44 42
17 13 13 10 15 18 16 17 17 21 29 32 37 39 44 47 48 51 53 52 53 53 55 57 57 58 58 58 57 56 57 58 59 58 58 56 52 50 49 47 51 53 51 50 51 51 50 47 46
19 15 13 14 18 19 12 12 13 22 24 27 28 37 40 45 48 51 52 52 52 53 54 56 57 57 57 57 57 57 56 58 58 58 58 56 54 50 52 52 53 53 53 53 53 53 52 52 51
19 17 15 14 14 17 15 11 11 19 23 28 33 34 38 43 48 51 52 52 51 52 53 54 56 57 57 58 58 57 57 57 57 57 57 57 55 52 53 54 53 54 53 53 54 54 53 53 53
18 19 19 17 17 12 18 7 12 21 21 21 23 34 38 41 47 50 51 51 51 51 52 53 54 55 56 56 55 54 54 53 55 55 56 57 56 54 54 54 54 54 54 53 55 56 54 53 53
17 18 20 20 18 17 15 10 10 17 21 21 20 22 34 40 45 48 50 51 51 50 52 53 54 54 55 55 55 54 52 52 54 55 55 55 57 57 54 55 55 54 55 56 55 56 55 54 53
23 21 21 21 18 16 16 12 12 15 20 20 20 20 23 37 43 47 49 51 50 50 51 53 53 53 54 55 55 54 53 52 53 54 54 55 56 56 56 55 55 54 56 55 53 56 57 55 54
21 18 17 18 19 16 16 16 14 21 22 22 23 23 25 34 41 45 48 50 50 50 51 51 51 51 53 54 54 54 54 54 53 53 53 53 54 54 53 55 55 54 52 54 54 53 53 53 53
19 19 17 15 16 17 21 17 18 22 24 29 28 27 27 31 39 44 46 49 50 51 51 51 50 50 51 53 53 53 53 54 53 53 52 53 52 52 53 54 54 53 53 53 54 54 53 53 54
21 20 21 18 23 21 20 21 23 24 24 25 25 28 26 27 34 42 45 49 50 51 51 51 49 49 50 52 53 52 52 53 53 53 52 52 52 52 53 53 54 54 52 53 54 53 53 53 54
23 24 22 22 19 17 17 18 18 21 22 21 23 23 24 29 32 40 44 48 49 51 51 52 50 48 49 51 52 52 52 52 52 52 53 52 52 51 52 52 53 52 51 51 51 51 51 51 52
23 24 23 22 21 17 17 17 22 22 22 24 25 26 28 31 32 39 43 46 49 50 51 52 51 49 49 51 51 51 51 51 52 53 53 53 53 52 51 51 52 50 49 49 50 50 51 50 51
22 22 23 21 19 21 20 19 23 25 27 29 28 26 31 31 29 35 43 46 48 49 50 51 51 50 50 51 52 52 52 51 51 52 53 54 53 53 52 51 50 49 49 51 51 51 51 51 52

GFSSGP_sfc_30mbdewp_075.txt.gz
Dewpoint
45 40 36 29 19 13 8 10 12 11 15 21 27 26 26 28 28 30 56 61 63 63 66 66 68 69 69 69 69 69 70 69 69 68 69 69 68 68 68 68 67 67 66 65 65 65 64 64 64
35 35 33 26 11 8 8 13 11 13 17 23 29 27 27 28 36 40 53 61 63 63 65 64 67 68 68 68 69 69 69 69 68 69 69 69 69 68 68 67 66 66 66 65 64 64 63 63 63
40 33 26 19 14 9 8 13 13 16 20 20 23 32 33 34 43 51 61 63 65 65 65 65 66 65 64 62 62 67 69 69 68 68 69 69 68 68 67 66 66 66 65 64 63 63 63 62 62
27 24 21 13 9 12 13 12 16 15 19 25 26 25 38 51 48 56 60 61 62 65 64 65 64 62 62 61 58 66 68 68 68 68 69 68 68 67 66 66 65 65 64 62 63 62 62 62 61
28 22 15 12 11 11 15 14 15 15 17 24 28 24 28 49 54 56 58 60 61 64 65 65 63 63 63 61 62 60 67 68 68 68 68 67 67 66 65 64 64 64 63 62 62 61 61 61 60
21 18 13 8 6 10 15 16 17 17 19 24 28 27 31 51 52 56 60 61 62 64 66 63 64 64 64 64 57 61 66 67 68 68 67 67 66 64 64 63 63 63 63 63 62 61 61 61 59
22 17 13 8 6 8 14 19 20 21 21 18 27 27 35 49 54 56 58 61 64 65 66 65 65 64 64 64 61 61 66 66 67 67 67 66 65 64 64 64 64 63 63 63 62 61 61 60 59
20 16 12 10 8 7 15 17 20 23 20 32 27 26 29 51 53 56 58 62 63 64 66 66 64 63 62 63 64 64 65 65 65 66 66 65 64 64 64 65 64 63 62 62 61 61 60 60 58
20 14 12 10 9 9 13 15 20 24 24 23 32 37 47 53 54 54 57 61 62 63 64 64 64 63 63 62 63 63 62 65 64 64 64 63 63 63 62 63 64 63 62 61 61 60 60 59 57
18 13 11 11 10 9 10 15 18 19 19 24 27 36 52 53 52 51 54 57 59 60 62 64 64 64 64 64 63 62 62 63 65 63 61 62 60 62 61 64 63 62 61 61 61 60 58 53 49
17 14 12 11 12 11 11 14 16 20 19 20 27 25 45 51 50 50 50 56 57 59 60 61 62 63 64 63 64 63 63 63 63 61 60 62 61 59 62 63 61 59 57 53 55 55 49 46 45
14 15 13 12 10 13 13 14 15 19 21 23 33 36 43 48 48 47 50 52 57 59 60 61 61 62 61 61 61 62 62 63 61 60 61 62 61 58 61 60 57 52 49 50 49 49 48 47 46
14 13 13 11 11 11 14 14 15 18 18 20 32 41 43 46 46 46 50 52 57 59 61 61 61 61 60 59 60 60 60 61 61 61 61 61 60 57 58 58 55 50 51 50 48 48 48 47 47
15 14 15 13 12 11 12 13 14 16 20 26 33 41 42 45 45 45 47 49 55 58 61 62 62 61 61 60 59 59 59 59 60 60 61 61 58 57 57 57 55 53 53 50 48 48 47 46 46
17 15 15 15 13 11 13 14 13 14 16 24 29 41 41 44 45 44 46 48 51 57 59 61 61 61 61 60 61 59 58 58 60 59 60 59 56 56 56 56 54 53 53 52 49 47 45 44 44
19 18 16 16 14 13 13 12 15 19 27 30 34 40 42 45 46 45 48 48 50 55 58 60 61 60 60 61 60 59 58 58 59 60 59 58 55 54 55 53 53 53 53 50 47 45 43 43 43
20 16 15 16 15 14 16 17 17 27 28 28 33 38 42 44 46 46 49 48 49 54 56 59 60 59 59 60 60 59 58 58 59 60 58 57 55 53 51 50 50 53 51 49 46 45 43 42 41
17 16 17 16 16 14 15 19 17 21 26 28 30 35 40 43 45 47 49 48 49 52 56 58 59 59 59 59 59 59 59 59 59 59 57 54 54 53 51 50 51 50 49 47 45 46 45 43 41
20 18 16 16 16 14 16 15 14 17 18 25 27 31 37 41 44 47 50 50 50 52 54 56 58 59 58 58 58 57 57 57 58 58 56 55 51 51 50 49 52 51 46 46 49 48 47 46 45
21 19 18 17 15 17 15 13 12 12 14 18 22 27 33 38 43 46 51 51 51 52 53 56 58 58 58 58 58 57 56 57 58 59 57 54 54 51 50 50 52 52 49 51 52 52 50 49 49
23 22 21 18 17 16 16 15 13 13 14 16 19 23 26 34 41 46 49 51 52 51 53 54 57 58 57 57 57 57 58 57 57 57 58 56 55 53 48 50 53 54 54 54 55 55 53 52 52
22 22 20 19 17 15 17 12 13 13 11 17 21 24 26 30 38 45 48 50 52 51 52 54 56 57 58 58 57 57 55 55 55 56 56 57 56 55 50 53 54 56 55 55 56 56 55 53 52
22 22 20 19 19 19 18 14 15 15 13 15 20 19 23 30 36 43 47 49 51 51 51 52 55 56 57 58 58 56 55 55 56 57 55 55 56 55 54 54 55 54 54 55 56 56 55 55 52
21 19 20 19 19 17 18 18 16 14 17 20 19 18 20 26 35 42 46 49 50 50 51 52 54 55 56 56 56 56 56 55 55 56 55 54 56 56 55 54 54 54 54 54 54 54 55 56 53
19 19 18 17 17 17 19 18 18 18 20 21 21 21 20 26 34 39 45 48 49 50 51 51 52 53 55 55 56 56 55 55 54 55 55 55 53 55 55 54 53 52 52 53 53 54 55 54 53
20 20 19 17 19 19 20 16 16 19 20 22 23 23 22 28 33 37 42 47 48 50 51 51 50 50 52 55 55 55 55 54 54 54 53 54 54 54 55 55 53 52 52 53 54 53 54 53 54
23 18 18 18 24 23 22 20 22 23 22 22 23 25 24 25 29 36 40 45 48 50 51 51 49 49 50 53 54 54 55 55 54 54 55 54 53 54 54 54 53 53 53 53 54 54 53 53 53
22 25 19 20 20 19 19 18 23 21 22 22 21 24 25 25 28 32 39 43 47 49 51 52 50 48 49 51 53 53 54 54 55 55 55 55 55 55 55 55 54 53 52 53 53 53 52 53 54
21 19 23 22 20 21 21 21 22 22 22 23 25 26 26 28 30 33 39 42 46 48 51 52 52 48 48 50 52 52 53 53 55 55 55 55 55 55 55 55 54 53 52 53 53 52 53 52 53
23 19 23 22 23 23 21 22 23 25 27 27 28 28 27 29 28 30 36 40 44 48 49 51 52 50 48 51 52 53 53 52 53 54 55 56 55 55 54 54 54 53 52 53 53 53 52 52 51

GFSSGP_sfc_30mbdewp_078.txt.gz
Dewpoint
45 38 36 34 23 18 12 10 12 11 12 20 23 24 23 23 24 33 59 61 61 66 68 67 69 69 70 70 70 70 70 70 69 69 69 69 69 68 68 68 67 68 67 66 65 65 65 65 66
35 31 33 28 23 13 9 12 12 11 16 20 22 24 23 26 41 40 57 61 63 62 66 67 67 68 69 69 66 67 68 69 69 69 69 69 69 68 68 68 67 66 66 65 65 65 64 65 66
40 36 28 25 20 15 11 10 13 13 17 18 17 20 27 33 46 49 60 61 63 64 65 67 67 66 66 62 62 63 64 69 69 69 69 68 69 68 68 67 67 66 66 65 64 63 64 63 63
32 27 23 17 12 10 11 13 14 14 14 20 24 23 37 43 43 53 56 59 61 63 65 67 65 64 64 62 61 61 61 63 68 68 69 69 68 68 67 67 66 66 66 65 64 63 62 62 61
27 23 19 17 14 12 12 14 13 12 14 17 24 25 27 49 52 54 57 59 59 64 65 65 64 64 63 63 63 61 60 61 65 67 69 68 68 67 67 66 65 65 65 64 63 62 62 60 58
22 21 17 12 11 9 13 15 15 14 15 17 21 25 33 51 51 57 59 60 62 63 65 66 64 64 64 63 63 60 61 60 63 67 68 68 67 66 66 65 64 64 64 63 63 62 61 59 59
22 19 15 14 12 10 9 17 17 17 20 20 25 25 30 50 54 55 57 61 64 65 66 66 65 64 65 63 63 61 61 61 64 67 68 67 66 65 65 65 65 65 63 63 62 62 61 59 57
20 19 16 13 10 10 11 18 19 19 20 25 22 20 28 53 53 56 59 62 61 64 65 66 67 65 64 65 63 62 62 61 63 66 66 65 65 65 65 64 64 64 63 62 61 61 60 59 56
20 17 14 12 11 10 12 15 16 18 20 20 20 26 39 52 53 53 58 61 61 62 64 66 66 65 65 65 65 62 62 59 65 65 65 64 63 64 64 63 63 63 63 62 61 61 59 57 53
18 16 14 11 11 10 10 10 15 16 17 19 22 27 50 51 50 50 54 56 59 60 63 65 65 64 64 64 64 64 63 64 64 65 63 63 63 63 62 63 63 62 62 61 61 60 57 53 52
16 15 15 13 12 12 11 9 13 14 17 19 20 29 47 50 49 48 47 56 57 59 62 64 64 64 63 63 64 62 63 64 64 64 63 62 62 62 62 62 61 61 61 59 59 57 52 49 50
14 13 14 14 14 12 10 12 11 13 18 21 21 29 33 37 46 46 46 52 56 60 60 60 63 63 62 62 63 63 63 64 62 62 61 60 61 62 62 60 58 56 55 55 55 52 51 48 48
14 12 12 13 14 12 11 11 12 14 16 18 18 27 37 38 42 45 46 50 58 59 60 61 62 61 61 60 60 63 62 63 61 61 61 60 60 60 60 59 53 51 52 52 51 51 51 50 48
14 13 12 13 13 13 11 11 11 12 13 15 18 30 37 38 43 43 47 48 57 58 60 62 62 62 60 60 59 59 60 62 60 60 61 60 61 61 59 58 51 52 51 50 50 52 51 50 50
18 16 16 14 14 15 14 12 11 14 16 14 16 25 36 38 43 43 45 46 55 57 60 61 62 62 61 60 59 59 59 60 60 60 61 61 60 59 58 57 53 54 52 50 51 50 50 49 49
18 19 16 16 15 15 15 13 14 15 16 14 19 24 37 39 43 44 43 47 54 56 59 60 62 62 61 61 60 59 59 59 59 60 60 60 59 58 57 57 55 55 53 52 52 49 48 48 48
21 19 18 17 17 16 15 13 14 17 21 23 26 30 37 40 43 44 45 48 48 55 57 59 60 60 61 60 59 58 58 59 59 59 58 57 58 56 56 57 57 57 54 54 50 49 47 47 47
18 18 19 18 17 17 14 13 16 20 24 25 25 30 36 40 42 45 46 48 48 54 58 58 60 59 60 60 59 58 57 59 59 58 57 57 57 56 56 57 57 55 54 52 49 49 48 46 46
21 20 20 20 18 16 17 15 15 17 19 24 27 28 33 39 42 46 47 49 49 54 57 58 58 58 59 58 58 57 56 57 59 59 58 58 56 55 54 52 53 52 51 48 48 49 46 46 47
16 17 19 22 21 16 15 14 15 15 15 17 19 26 28 35 40 45 48 50 50 53 56 58 58 58 58 58 58 57 57 57 57 58 55 55 55 54 53 52 52 50 49 48 51 50 49 49 49
18 21 22 21 21 21 17 16 17 17 15 15 16 17 24 33 39 44 49 51 51 53 54 56 57 58 58 58 58 57 57 57 56 57 56 55 55 53 52 53 53 52 51 52 52 52 51 50 49
26 26 25 23 22 22 20 14 16 17 17 17 16 18 21 24 37 44 48 51 52 52 54 55 57 57 58 58 57 57 55 55 55 55 56 55 55 54 51 53 54 54 54 54 54 55 55 54 51
32 30 29 30 22 22 19 17 17 16 15 16 16 18 24 27 31 41 47 50 52 52 54 54 56 55 57 57 57 57 56 55 55 56 57 56 55 55 55 52 55 55 56 56 56 56 56 55 54
32 29 30 28 23 20 20 19 19 19 18 16 17 21 23 26 29 38 46 49 51 52 53 54 54 56 56 57 57 56 56 55 55 56 56 56 55 55 55 55 56 57 56 57 57 56 57 56 53
30 25 28 25 21 20 19 19 20 20 20 19 21 21 21 25 31 36 45 48 50 52 52 54 55 54 56 57 57 57 56 55 56 55 55 54 55 54 54 55 55 55 55 55 56 56 56 55 52
26 24 29 22 22 20 20 18 19 21 21 21 21 22 23 26 34 36 42 48 49 52 52 52 54 53 56 57 57 57 56 56 56 56 55 53 52 53 53 55 54 54 53 53 53 53 54 54 54
31 27 29 29 29 31 28 20 21 20 20 20 22 24 23 27 30 34 38 47 49 51 53 52 52 52 54 55 55 56 57 56 55 56 56 56 54 52 52 53 54 54 52 52 52 52 53 54 54
30 29 24 28 23 25 26 26 20 21 22 22 22 24 25 26 29 34 37 46 49 51 53 53 51 51 52 55 55 55 54 56 56 55 55 55 55 54 51 51 54 54 52 51 51 51 52 53 53
27 26 31 31 29 26 22 25 27 27 24 27 29 29 29 30 30 32 36 42 48 50 52 54 52 50 51 54 55 55 55 55 55 55 55 55 55 55 54 53 53 54 53 52 51 51 51 52 52
27 25 25 28 30 28 29 28 30 29 29 28 28 28 29 31 31 33 36 39 46 49 51 53 53 51 50 52 54 55 56 55 55 56 56 56 56 56 54 54 54 54 53 52 52 51 51 51 51

GFSSGP_sfc_30mbdewp_081.txt.gz
Dewpoint
47 42 39 36 30 23 18 17 16 12 22 24 25 23 23 25 39 43 61 62 68 68 69 70 71 71 70 69 69 69 70 69 70 70 69 68 68 68 68 67 67 67 67 66 65 65 65 66 67
40 36 33 32 25 21 21 17 14 18 19 19 21 23 23 34 50 59 60 63 65 68 67 68 69 71 70 70 69 69 70 69 70 70 69 69 68 68 68 68 68 68 67 65 64 65 65 66 66
40 36 32 27 25 21 20 15 14 17 19 18 19 20 29 45 48 58 61 63 64 67 67 67 68 70 68 67 66 68 68 67 68 69 69 69 69 69 69 68 67 67 66 65 65 64 65 66 65
33 35 29 20 20 20 19 16 15 14 18 21 23 23 45 47 49 59 60 62 63 65 67 67 67 67 65 65 65 65 65 64 62 65 69 69 69 69 68 67 67 66 66 65 64 65 65 64 65
29 27 21 20 19 19 19 15 13 12 13 23 26 25 41 52 56 57 59 60 61 65 67 66 66 66 65 64 65 64 64 62 60 61 66 67 68 68 68 67 66 66 66 64 64 64 63 63 62
24 23 19 18 18 17 15 15 15 15 15 17 19 24 46 54 56 59 60 61 62 65 65 65 65 65 64 64 64 63 63 62 61 61 61 66 67 67 67 66 65 66 65 63 64 62 62 62 59
25 24 20 19 18 16 14 17 17 17 18 21 24 22 49 54 58 59 61 63 64 65 66 64 64 65 64 63 63 62 62 63 60 60 62 66 67 66 66 65 66 65 64 63 63 61 61 60 57
26 24 20 19 17 16 15 19 20 20 20 24 22 20 49 53 56 60 62 61 62 64 63 66 64 64 64 64 62 61 61 61 60 60 61 66 66 66 65 65 65 64 64 63 62 61 60 58 55
25 21 18 18 17 15 15 17 19 20 20 20 20 23 45 54 56 59 60 59 62 63 63 65 65 65 64 64 62 63 62 62 62 61 62 65 65 65 65 64 64 63 63 62 62 60 58 56 54
23 18 18 19 18 15 14 12 17 19 20 21 21 50 53 53 53 55 58 59 60 61 62 64 64 64 64 65 63 63 63 61 61 62 65 65 64 63 64 64 63 63 62 62 61 59 56 52 52
23 19 18 18 18 18 17 12 13 15 15 18 25 47 51 51 50 50 54 57 58 60 62 63 64 64 63 63 64 63 63 62 61 62 64 64 64 63 63 63 62 62 61 60 58 56 53 50 51
22 19 18 17 17 16 14 13 12 13 15 20 21 45 50 50 49 48 50 56 58 59 61 63 64 63 63 63 62 63 63 63 62 63 63 62 62 62 62 61 60 60 58 57 55 52 50 49 50
21 19 17 16 14 14 13 13 12 13 15 15 17 29 35 39 47 46 48 56 59 59 60 62 62 61 60 59 60 62 63 63 62 63 63 61 61 61 61 60 58 56 56 54 51 51 48 48 48
22 21 19 16 13 13 14 14 14 13 15 14 13 15 36 37 40 44 53 57 59 60 61 62 61 60 59 59 59 61 62 62 62 61 61 60 62 62 60 56 54 54 53 50 50 51 48 47 48
23 20 19 19 18 17 15 14 14 16 14 15 15 17 36 38 41 44 47 57 58 59 61 61 61 60 59 59 59 60 61 61 61 61 60 60 61 61 58 52 52 51 52 48 50 51 51 49 51
23 22 18 19 18 18 16 13 16 16 15 14 15 16 33 38 42 44 47 54 57 60 60 62 62 60 59 59 59 59 60 60 61 60 60 60 61 60 58 50 52 51 52 48 51 51 50 49 49
24 21 21 21 21 19 17 14 16 17 16 19 18 21 33 39 43 44 47 55 57 59 60 60 61 60 60 59 58 59 59 59 60 60 60 59 60 60 58 52 54 52 53 50 52 50 48 48 49
22 21 20 20 21 21 18 16 17 17 21 22 24 26 36 39 43 44 47 52 57 58 59 60 60 60 60 59 58 58 59 59 59 59 59 59 59 58 58 57 57 55 54 53 50 49 48 48 49
23 22 21 21 22 22 22 19 16 15 18 21 25 25 35 39 43 45 48 49 56 57 58 58 57 59 59 58 57 56 57 58 58 58 58 57 57 57 57 57 57 57 55 51 49 49 47 46 47
15 17 18 19 20 19 21 22 20 17 18 20 26 27 31 39 42 45 48 50 55 57 58 57 57 59 59 58 58 57 57 57 57 57 55 57 57 54 54 56 55 55 52 51 49 47 48 45 48
20 20 19 21 19 22 25 24 23 17 18 19 20 28 28 39 42 46 48 50 55 56 57 57 56 58 57 58 58 57 57 58 57 57 56 57 56 55 54 54 55 53 52 49 49 48 47 45 49
20 24 29 32 35 30 34 26 26 18 17 18 19 18 20 33 43 47 49 49 53 56 57 57 58 57 57 58 57 57 56 55 56 56 54 55 56 55 53 53 53 52 52 50 51 51 48 49 47
25 32 33 36 37 35 33 29 25 22 19 18 19 19 18 24 43 48 50 50 51 54 55 56 58 57 58 58 57 56 56 55 55 56 54 54 55 55 53 54 54 52 54 53 53 53 53 53 50
37 37 35 36 37 30 33 29 23 21 20 20 19 19 20 21 42 48 50 52 51 54 54 56 56 56 57 57 57 56 56 55 55 55 55 53 54 54 54 53 55 54 55 55 55 55 55 54 52
37 36 29 27 28 27 27 26 24 23 23 23 23 21 20 24 40 47 50 52 52 53 53 55 55 54 57 57 57 57 56 55 55 55 54 54 54 53 53 54 55 55 56 56 57 56 56 56 54
33 34 30 23 25 27 23 20 20 23 23 22 23 22 23 29 39 47 50 51 52 53 53 53 54 55 55 57 57 56 57 56 55 55 55 54 54 53 52 54 55 56 56 56 56 56 56 55 54
28 29 33 31 33 30 31 26 21 22 22 22 22 22 28 33 39 47 49 50 52 52 53 54 54 54 55 55 55 56 56 56 55 55 55 55 55 54 54 52 55 55 55 55 55 54 54 55 54
25 31 30 31 25 24 25 30 28 22 22 23 24 26 28 32 34 39 48 49 51 53 52 53 54 54 55 56 56 56 56 56 56 56 55 55 54 53 54 53 53 54 54 53 53 53 52 53 53
28 28 35 35 32 29 28 31 39 40 31 29 29 29 30 31 33 33 41 49 50 53 53 52 53 53 53 56 56 55 56 57 57 56 56 56 56 54 52 53 53 53 54 53 52 51 50 51 51
29 32 32 30 30 30 33 32 43 44 40 31 26 28 30 29 31 32 37 48 51 52 53 52 52 52 52 55 55 55 54 54 55 56 56 56 56 56 54 53 51 51 53 53 52 51 50 49 50

GFSSGP_sfc_30mbdewp_084.txt.gz
Dewpoint
51 45 36 35 29 24 21 19 17 16 22 24 24 21 22 30 34 27 60 66 67 68 70 70 70 70 70 70 70 70 70 70 70 69 69 69 69 69 69 68 68 68 68 67 66 67 66 67 67
42 37 33 32 26 20 18 22 19 20 22 23 23 23 24 45 57 59 60 67 67 68 69 71 70 70 70 70 70 70 70 70 70 69 69 69 69 68 68 68 68 68 67 66 65 66 66 67 67
38 37 33 28 25 20 19 18 17 19 19 18 19 22 34 45 58 60 61 66 68 67 68 69 70 70 70 70 70 70 70 70 70 69 68 68 68 68 68 68 68 67 66 63 65 65 67 66 66
31 34 31 23 21 24 23 23 21 17 19 20 21 34 45 49 58 60 63 65 67 67 67 68 69 70 69 69 70 69 67 66 64 62 60 65 66 68 69 68 68 67 65 65 65 66 66 66 64
29 27 24 20 19 20 21 20 20 17 18 22 25 27 46 56 59 60 63 64 65 67 66 67 69 68 68 68 67 66 66 65 63 61 60 63 65 67 68 67 67 66 65 65 65 66 66 66 64
24 23 20 18 19 20 20 19 18 14 18 24 25 36 48 57 58 59 61 63 65 66 66 66 67 66 66 67 66 66 65 64 63 61 60 65 64 65 67 67 66 66 65 65 66 65 64 62 60
25 23 19 19 19 20 20 19 17 16 19 21 24 35 51 55 58 60 62 65 65 65 65 65 66 66 65 64 64 64 64 64 62 63 63 64 64 65 65 65 65 65 65 65 64 64 62 60 57
26 25 23 21 20 19 19 17 20 18 20 24 23 40 49 53 59 62 62 62 63 64 65 64 65 65 64 64 63 62 64 62 62 63 63 65 64 65 64 65 65 64 64 64 63 62 60 58 57
27 24 22 21 19 18 19 16 17 21 21 20 22 31 43 56 61 61 60 61 62 62 63 65 64 64 64 63 63 62 62 62 61 62 62 63 61 64 63 65 65 64 63 63 63 61 59 56 58
29 22 23 22 20 19 19 18 16 19 20 20 29 53 55 57 59 58 58 58 59 60 62 64 65 64 64 63 63 62 62 62 61 61 60 62 64 63 64 65 64 64 63 62 61 59 56 53 55
25 25 23 22 20 20 19 19 17 15 16 20 23 51 54 55 55 57 58 58 59 60 62 63 64 64 65 64 62 62 62 61 60 61 60 63 63 64 64 63 63 62 62 61 59 57 52 51 51
26 25 23 23 22 20 18 18 16 14 14 19 29 51 53 52 52 53 55 58 59 60 62 63 63 63 63 64 63 62 61 60 60 63 64 63 63 63 62 62 61 61 59 58 56 53 50 51 51
26 27 26 24 20 19 18 16 15 15 17 19 20 51 51 50 50 51 51 58 59 60 62 63 63 62 62 62 62 62 62 61 62 63 63 63 62 62 61 61 60 58 57 56 53 51 49 49 51
24 24 24 23 20 19 16 14 15 15 16 15 15 38 48 50 50 48 53 57 59 60 62 62 61 61 60 60 60 62 62 62 62 63 62 62 62 61 60 59 58 57 55 53 51 49 48 48 50
26 24 23 22 20 19 18 17 16 17 17 16 15 13 27 43 46 46 53 58 59 60 61 60 60 59 58 58 59 61 62 62 62 62 62 62 61 60 59 56 55 55 53 51 51 49 49 47 51
27 24 21 22 21 20 18 16 17 17 17 16 16 16 19 36 39 48 56 58 59 60 60 60 60 58 58 58 59 60 61 62 62 61 61 61 61 60 55 53 53 53 50 50 51 50 48 47 50
25 22 22 22 23 22 19 18 19 19 17 16 17 16 18 32 40 47 55 58 59 61 60 60 59 58 58 58 59 59 60 60 61 61 60 61 61 59 54 51 52 52 47 50 52 51 49 48 50
24 23 22 21 22 22 21 21 22 22 19 18 18 18 22 34 40 46 54 58 60 60 61 60 60 59 58 57 57 59 59 60 60 60 60 61 60 59 54 52 53 53 46 50 52 50 50 49 49
25 23 23 23 22 25 23 21 20 21 24 20 20 21 27 36 43 46 54 57 59 59 59 59 59 60 58 57 56 55 56 58 59 59 60 60 60 60 57 54 55 54 49 50 51 49 49 48 49
20 20 16 17 20 31 31 27 25 28 27 20 22 24 26 38 44 47 54 57 57 58 58 58 59 59 58 57 57 57 57 58 58 58 59 59 59 58 58 54 56 53 54 51 50 48 48 48 48
13 15 18 19 29 31 31 26 25 28 31 27 21 24 26 36 43 47 52 55 56 57 57 56 57 59 59 58 57 57 57 57 57 57 57 58 57 57 58 56 56 56 55 51 50 49 47 46 48
22 22 24 27 33 27 37 28 30 31 32 31 24 21 26 33 43 46 49 54 56 56 56 56 56 58 58 58 57 56 55 53 54 56 56 57 57 55 55 56 55 55 54 52 50 49 47 47 47
26 33 32 33 34 33 32 33 30 31 30 29 27 20 21 30 43 46 48 53 55 57 56 56 56 55 56 58 57 56 55 56 56 55 54 55 56 55 54 55 54 54 56 53 51 50 49 48 48
37 35 35 35 34 26 27 33 28 30 29 27 24 22 21 23 42 47 47 52 55 57 57 56 56 55 55 57 57 57 56 56 56 55 54 54 54 55 54 54 54 53 56 55 53 52 50 50 48
36 33 26 27 27 22 27 31 29 29 28 26 25 24 24 25 42 47 48 51 53 55 56 56 56 55 56 57 57 57 56 55 55 55 54 52 53 54 54 53 54 53 54 54 53 54 53 53 51
34 33 25 23 24 25 27 25 26 30 30 29 27 24 25 28 44 47 49 50 52 53 55 55 56 56 57 57 57 57 56 55 55 56 55 53 52 53 53 54 54 55 54 55 54 54 54 55 54
33 30 34 30 32 28 29 31 28 37 36 32 24 23 27 35 45 48 50 50 52 52 54 55 54 54 56 56 56 57 56 56 55 55 55 55 53 52 52 53 55 55 56 55 56 55 55 55 55
28 36 31 31 23 24 25 30 36 38 39 36 30 30 33 38 45 49 51 51 52 53 53 55 54 54 55 55 56 56 57 56 56 55 55 55 54 53 52 52 54 55 55 55 55 55 55 55 55
26 32 34 33 32 27 26 32 41 42 41 39 37 32 34 36 40 47 50 51 52 53 53 53 54 55 54 55 55 55 55 56 56 55 55 55 55 54 53 53 52 53 54 54 54 54 54 54 54
26 30 33 29 29 31 32 30 44 43 44 42 37 36 37 38 39 42 48 50 52 52 53 54 54 53 55 55 55 54 55 55 56 56 56 56 55 55 54 53 53 52 52 54 53 53 52 52 52

GFSSGP_sfc_30mbdewp_087.txt.gz
Dewpoint
54 43 36 35 28 24 21 18 18 17 21 24 24 23 21 26 27 17 57 64 67 68 70 70 70 70 70 70 70 70 70 70 70 70 70 70 70 70 69 70 69 69 67 67 68 67 67 67 68
43 37 33 31 26 17 13 22 20 19 20 23 24 33 35 37 57 59 60 66 67 68 70 70 70 70 70 70 70 70 70 69 70 69 69 67 67 68 68 69 69 67 67 67 67 67 67 67 67
38 37 32 28 25 13 13 21 21 21 19 21 20 27 34 41 58 59 61 67 67 68 70 70 70 70 70 70 70 70 70 69 69 69 68 67 66 66 67 68 68 68 67 64 66 67 67 67 66
31 32 29 25 19 25 22 22 24 19 19 19 21 33 45 54 58 61 64 68 67 67 68 70 69 70 70 70 69 69 69 67 66 66 66 65 65 65 66 67 67 67 65 65 67 66 67 66 65
28 29 25 22 20 21 23 24 21 20 18 18 23 34 45 56 60 62 64 67 66 66 67 69 70 70 70 70 68 69 66 64 63 63 63 62 64 64 64 65 65 65 65 66 66 66 65 65 64
21 24 20 15 15 20 21 21 20 19 18 21 26 41 48 58 60 62 64 65 66 66 66 68 68 69 68 68 68 67 66 64 63 63 62 61 61 60 63 64 64 65 65 66 66 66 64 63 63
20 21 18 18 17 18 19 20 17 18 17 22 30 39 51 57 59 62 63 65 66 66 65 66 67 67 67 67 67 66 66 65 64 64 63 63 63 64 63 63 64 65 65 65 66 65 63 62 62
25 25 22 21 18 15 20 18 19 20 19 24 40 40 46 55 59 62 64 64 65 65 64 65 66 65 66 66 66 65 64 65 64 64 63 64 64 62 63 63 62 63 65 65 65 63 60 61 61
27 22 19 19 19 17 20 19 19 20 20 22 26 45 45 56 61 61 61 62 63 64 64 64 65 65 64 63 63 63 63 63 63 64 64 64 62 64 63 63 61 62 64 64 63 61 59 61 60
26 23 21 22 21 19 20 21 21 18 18 19 29 52 56 59 60 59 59 59 60 61 63 63 64 64 63 63 63 62 63 62 62 63 64 64 63 64 63 63 62 62 64 63 62 58 59 59 58
30 23 23 23 23 22 21 21 21 18 17 18 20 44 57 59 59 58 58 58 59 60 61 63 64 64 63 62 62 61 62 62 61 61 61 62 61 64 63 63 64 63 62 61 59 56 55 57 56
26 26 26 26 25 24 22 21 19 17 18 19 19 43 55 57 57 57 57 57 58 59 60 62 63 64 63 62 61 61 61 61 60 61 61 60 62 62 62 63 63 62 60 59 57 52 52 54 53
28 28 27 27 26 24 22 21 20 19 20 19 19 51 53 54 55 55 57 58 59 59 61 62 62 63 63 62 62 61 60 60 60 62 61 61 61 61 63 62 61 60 59 57 54 51 51 52 53
25 28 28 27 26 25 22 21 19 18 18 17 18 43 52 52 53 52 53 57 59 60 61 62 62 62 62 62 62 62 61 60 61 62 62 62 62 62 62 60 59 58 57 55 53 50 50 52 53
28 26 26 25 23 22 20 18 18 18 19 18 17 27 49 51 51 50 52 55 59 60 61 61 61 61 60 60 61 62 62 61 61 62 63 63 62 62 61 60 58 57 56 54 52 49 49 51 52
28 26 24 23 23 22 20 18 19 20 19 18 17 17 22 45 49 50 52 56 59 60 61 60 60 59 58 58 59 61 62 61 62 62 62 62 62 61 59 58 56 55 53 52 51 49 49 51 52
27 25 23 23 23 22 20 19 21 23 22 21 20 19 18 20 39 47 53 58 59 60 60 59 59 57 57 57 57 59 61 62 61 61 62 62 61 59 57 56 54 52 51 51 50 49 49 51 51
25 24 23 22 22 22 21 21 27 26 23 23 23 22 20 19 29 41 55 58 59 60 60 59 58 57 56 57 58 59 60 60 61 61 61 62 61 58 55 54 53 51 49 51 50 49 49 51 51
25 24 23 23 22 23 25 28 27 27 26 25 26 26 24 21 31 44 56 59 60 60 59 58 58 57 56 55 56 57 57 58 59 60 61 61 60 57 55 55 53 50 48 50 51 49 48 50 51
22 23 22 17 19 28 28 25 26 27 27 27 28 29 28 28 40 49 56 58 59 59 58 58 58 56 56 56 55 56 57 58 59 59 60 61 60 57 54 55 52 50 47 51 51 48 48 49 50
14 14 14 15 28 29 31 22 20 22 26 28 32 30 27 29 41 49 55 57 58 57 57 57 57 57 57 57 56 57 57 57 57 57 58 59 60 59 56 56 53 53 47 51 51 49 48 47 48
13 23 23 26 26 20 33 20 23 26 28 31 32 32 30 28 42 48 53 56 57 57 58 58 57 57 57 57 56 56 55 55 56 56 57 58 58 59 58 56 57 54 53 51 51 50 48 48 48
26 32 31 33 31 32 31 28 20 29 29 30 31 31 30 27 40 46 52 54 56 57 56 56 57 56 56 57 56 56 56 55 55 56 56 57 57 57 58 57 56 56 55 53 51 50 49 49 49
37 32 30 35 33 24 23 27 19 20 22 28 31 31 28 24 39 45 49 54 55 56 55 56 55 56 56 56 57 56 56 54 55 55 55 56 56 56 56 56 56 55 55 53 52 51 50 49 49
34 27 21 21 25 20 26 27 24 25 27 31 31 30 28 25 32 44 47 53 55 55 55 55 54 54 55 57 57 56 56 55 54 54 54 54 55 55 54 55 55 54 56 55 54 53 51 51 49
32 28 20 16 22 26 27 25 28 36 37 34 33 32 30 28 27 44 47 52 54 55 55 54 54 53 53 55 56 56 56 56 55 55 54 54 54 54 55 54 54 54 54 56 55 54 54 54 52
34 29 31 26 28 26 29 29 30 40 41 39 36 33 34 32 27 40 47 51 54 55 55 55 54 54 54 54 55 56 56 56 55 56 55 53 53 53 54 54 54 54 54 54 55 54 53 53 53
30 34 28 31 23 22 25 27 32 39 41 41 36 37 38 39 38 45 47 50 53 54 55 56 55 55 54 54 56 56 56 56 56 56 56 55 53 52 53 53 54 55 55 54 54 54 54 54 54
30 30 32 33 31 26 23 27 42 41 42 42 41 38 40 42 46 48 49 51 52 53 54 55 55 55 55 55 56 56 56 56 56 55 55 55 55 54 52 53 53 54 54 55 54 54 54 54 53
27 29 33 27 28 31 30 29 44 41 41 42 42 39 43 46 47 50 51 52 52 52 53 54 54 54 55 55 55 55 56 56 56 55 55 56 55 55 54 52 52 52 53 54 54 54 54 54 54

GFSSGP_sfc_30mbdewp_090.txt.gz
Dewpoint
57 42 36 34 27 24 19 17 20 16 20 23 25 24 22 23 23 16 52 65 66 67 69 70 69 69 69 70 69 70 71 71 71 71 71 70 70 70 70 70 69 69 69 68 68 68 67 67 68
47 35 33 31 23 13 8 21 20 20 20 22 25 32 32 27 54 55 58 65 66 68 68 69 69 69 69 70 69 70 69 69 69 71 70 69 68 68 68 68 69 68 67 68 67 67 67 67 68
38 36 30 28 25 10 2 20 19 22 20 22 20 29 31 36 57 58 61 66 67 68 68 69 69 68 69 69 69 69 70 70 70 70 67 67 67 67 67 67 67 67 67 67 67 67 68 68 67
32 31 29 24 19 23 17 21 22 21 20 20 19 25 44 54 56 60 64 67 67 68 68 68 69 68 69 69 69 69 69 70 69 67 67 67 66 66 66 67 66 66 66 66 67 68 67 66 66
28 30 23 23 22 22 23 24 23 20 20 19 24 24 40 54 60 62 66 67 65 67 68 68 69 69 69 69 68 68 69 68 67 67 66 66 65 65 64 65 64 64 65 66 67 67 66 65 65
24 25 20 10 14 19 21 21 20 20 20 20 23 34 42 57 60 63 66 66 66 66 67 68 68 69 69 68 67 67 66 66 65 65 65 64 63 61 63 64 63 62 64 66 67 66 65 65 64
16 22 19 17 15 16 18 21 19 19 19 18 33 31 46 57 60 63 64 66 66 65 66 67 67 69 68 68 67 66 65 64 64 63 63 63 62 62 62 62 63 64 64 66 66 65 65 64 63
24 22 19 17 13 13 18 19 18 19 19 27 43 31 33 54 60 63 64 65 65 65 65 65 66 67 68 67 66 66 65 64 64 64 64 62 62 62 64 63 62 62 65 65 65 64 64 63 62
27 19 15 14 17 14 20 19 21 22 20 19 26 41 47 57 61 62 62 63 63 63 64 64 65 66 66 66 66 66 65 64 64 65 65 64 63 64 63 63 62 62 62 64 63 63 63 62 60
25 20 17 18 19 17 20 21 21 19 19 19 21 48 56 59 60 60 60 61 61 62 63 63 64 64 64 64 64 63 64 64 63 63 63 64 63 62 63 63 62 62 63 64 61 62 62 60 59
28 22 21 21 22 23 22 22 22 21 19 19 18 23 55 58 59 59 59 59 61 62 62 63 63 63 63 63 62 62 62 62 62 63 63 63 62 63 62 62 63 64 64 62 59 61 59 58 58
26 27 24 22 23 23 23 24 22 21 21 22 21 22 50 57 58 58 58 58 59 59 61 63 63 63 63 62 62 61 61 61 61 61 62 63 61 63 62 62 63 64 62 59 56 57 57 57 55
29 28 27 27 26 25 25 23 23 22 22 23 21 24 38 53 57 58 58 58 58 58 59 61 63 62 62 62 61 61 60 60 60 61 61 62 62 61 62 62 63 62 61 57 53 54 55 54 54
27 29 27 27 27 26 25 25 24 22 22 21 19 20 41 51 55 56 57 57 57 58 59 61 62 62 61 62 61 61 61 60 60 61 61 61 61 61 62 62 62 60 59 56 52 53 54 53 54
21 20 25 26 26 24 23 21 21 22 22 20 19 19 29 50 53 54 54 56 57 59 59 61 61 61 61 61 61 61 61 60 60 60 62 61 61 61 61 61 60 59 57 54 50 51 52 53 53
28 26 24 25 25 25 23 21 22 22 20 20 20 20 19 36 50 52 53 53 58 59 60 61 61 60 60 60 60 61 62 61 61 61 62 62 62 61 61 60 59 58 56 53 50 50 52 52 53
27 25 23 23 23 22 21 20 21 24 25 24 24 22 22 20 27 48 51 53 57 59 60 59 59 59 59 59 58 61 62 61 61 62 62 62 61 61 60 59 57 56 55 53 50 50 52 52 52
23 25 24 23 23 22 21 21 23 28 28 26 25 24 25 24 24 24 45 54 58 60 60 59 58 57 57 57 57 59 60 61 61 61 62 61 60 59 58 57 54 54 53 52 50 49 52 52 52
25 25 24 24 24 21 21 23 28 27 26 26 26 26 27 27 28 26 40 56 58 60 60 59 57 56 56 56 55 56 57 59 59 61 61 61 60 58 56 55 54 52 52 51 49 49 50 51 52
23 24 24 23 20 26 24 23 24 25 25 25 26 27 27 29 31 41 53 57 58 59 59 59 57 56 56 55 55 56 58 58 59 60 60 61 59 58 56 54 53 50 50 51 49 49 50 50 51
16 17 17 17 24 25 28 17 18 20 22 25 27 28 29 30 30 44 54 57 58 58 58 58 57 57 55 55 55 56 57 58 57 58 59 60 59 58 57 56 54 49 50 51 50 49 49 49 50
11 15 17 25 23 17 33 17 19 19 19 23 26 30 32 32 32 43 54 56 57 57 58 58 57 56 55 55 55 55 54 54 56 57 58 59 58 57 57 55 54 52 49 51 51 50 49 50 49
18 29 28 31 28 30 31 19 17 20 16 16 18 27 32 33 31 43 52 55 57 57 57 57 56 56 56 55 55 54 54 55 56 57 57 57 58 57 57 56 54 52 51 52 52 50 49 50 49
36 30 33 34 30 22 24 22 16 16 17 32 35 30 31 32 30 39 49 55 56 57 56 56 56 55 55 55 55 55 55 55 55 56 56 56 57 58 57 57 55 52 52 52 52 51 50 49 50
29 24 19 15 20 18 24 24 20 22 26 40 37 34 33 32 29 37 49 54 55 56 55 55 55 54 55 55 55 55 55 55 54 55 55 56 56 56 57 57 56 54 49 47 52 52 51 50 49
30 24 19 12 21 23 25 26 26 36 42 43 42 39 39 38 29 39 48 53 54 55 54 54 55 55 55 55 54 55 56 55 55 55 54 54 55 56 56 57 56 54 54 52 54 52 52 51 50
32 27 30 24 26 23 22 28 30 40 39 40 41 42 41 43 41 32 45 52 54 54 54 55 54 54 54 55 56 55 55 55 54 54 54 54 55 55 55 54 55 55 55 55 54 52 53 54 52
28 33 25 29 22 20 24 27 29 36 39 40 41 42 44 47 44 34 44 51 54 54 54 54 54 54 53 53 53 54 54 56 55 55 54 54 54 54 54 54 54 54 54 54 55 54 54 54 54
31 29 31 30 29 23 22 26 38 38 41 41 40 42 44 46 50 47 49 52 54 54 53 53 53 53 53 53 54 54 55 55 56 55 55 54 53 53 53 54 54 54 54 54 54 54 54 54 53
29 31 31 23 25 30 29 24 41 41 42 43 41 43 44 44 48 51 51 52 53 53 53 53 54 53 53 54 54 54 54 55 56 55 56 56 55 53 52 53 53 53 54 54 54 53 53 53 53

GFSSGP_sfc_30mbdewp_093.txt.gz
Dewpoint
55 41 37 34 24 24 17 16 21 17 20 22 25 23 24 23 31 21 54 64 65 67 69 69 68 68 69 70 71 70 70 71 71 71 71 71 71 70 70 70 70 69 69 69 68 69 69 68 69
46 34 34 32 20 11 6 21 20 20 21 23 24 31 30 26 49 52 56 65 65 67 68 68 68 68 69 70 70 69 70 71 71 71 71 71 70 70 70 70 69 69 69 69 68 68 67 68 68
37 35 30 28 24 5 1 16 21 21 23 22 23 30 30 34 56 55 60 66 67 67 68 68 67 68 68 70 70 69 69 69 71 69 69 68 67 67 68 68 69 69 69 69 68 68 68 68 67
34 32 29 22 15 23 12 20 23 23 20 21 20 20 41 51 57 59 63 66 66 67 68 68 67 68 68 69 70 70 68 68 69 69 67 68 67 66 65 66 65 66 68 68 68 68 68 68 67
30 30 18 21 18 22 24 24 25 20 20 20 23 21 38 53 59 62 65 66 65 67 67 67 68 68 68 68 68 69 69 69 69 68 68 68 67 66 65 64 63 64 66 67 68 68 67 67 66
22 27 18 7 8 20 21 22 21 19 20 21 21 25 37 56 60 64 66 66 67 67 68 67 69 68 68 68 68 68 68 68 68 67 67 66 65 65 64 64 63 62 64 66 68 67 66 66 65
19 23 14 16 13 16 17 20 18 20 21 19 28 24 43 55 61 65 66 66 67 67 68 67 67 68 68 68 67 67 67 67 66 66 66 65 64 64 64 64 64 63 63 66 67 66 65 65 64
21 21 17 16 9 11 17 20 19 20 19 26 41 32 32 51 61 64 65 66 66 66 66 66 68 68 68 68 67 66 66 66 66 65 64 63 62 62 63 63 63 62 63 66 66 65 65 64 62
27 16 14 12 13 11 20 19 22 22 20 21 25 37 49 58 62 63 63 63 64 64 65 66 67 67 68 67 67 66 65 65 64 64 63 62 60 61 61 62 61 63 62 65 66 65 64 62 61
24 19 15 17 16 14 18 21 21 19 20 19 20 45 56 59 61 61 61 62 63 63 63 65 65 67 67 67 67 66 65 64 64 64 64 63 63 63 62 62 63 62 60 64 65 64 62 61 60
26 21 21 19 19 20 20 20 22 19 16 20 20 21 50 56 59 59 59 61 62 63 63 64 64 65 66 65 66 65 65 64 63 63 64 64 64 64 63 63 63 62 60 64 64 63 61 60 59
25 27 22 20 22 23 22 24 23 23 22 25 24 24 33 49 54 58 58 59 61 62 62 63 63 63 64 64 64 64 63 63 63 63 63 63 63 63 62 61 63 62 63 62 63 61 60 59 58
29 26 27 25 23 23 24 23 23 22 24 24 24 25 24 36 46 55 58 59 59 60 62 63 63 63 63 62 62 62 63 62 62 62 63 63 62 62 62 62 63 63 61 60 60 59 59 58 56
27 28 25 25 26 27 26 26 26 24 26 25 24 23 22 33 43 52 57 58 58 59 60 62 62 64 62 61 61 62 62 61 61 61 61 62 62 62 62 62 62 62 60 59 59 58 57 56 56
22 20 20 25 26 27 27 24 24 26 27 25 25 23 22 23 42 51 54 57 58 59 59 61 62 63 62 61 61 62 61 62 61 61 61 62 62 62 62 61 61 61 61 58 57 57 56 56 55
27 25 22 23 19 23 25 21 24 24 22 21 22 23 24 24 34 45 53 55 57 58 59 60 61 61 62 61 62 61 61 61 61 61 62 61 61 62 61 62 61 60 57 55 55 55 55 55 54
27 21 25 25 25 23 23 19 22 25 26 26 27 27 26 25 25 27 45 52 55 57 59 60 61 60 61 61 61 61 61 61 61 61 61 62 62 61 61 61 60 59 57 55 54 54 54 54 53
20 24 25 23 24 23 22 22 22 24 28 27 27 27 27 27 27 29 29 41 52 56 59 60 61 60 61 60 59 61 62 62 62 61 61 62 61 61 61 60 59 59 57 54 53 53 54 53 53
23 23 22 24 24 24 24 24 24 26 27 26 26 26 26 28 28 30 32 35 51 56 59 60 59 58 59 57 57 58 58 60 61 61 62 61 60 59 58 58 58 58 57 54 53 54 53 53 53
20 19 20 24 25 23 23 22 23 24 24 24 25 26 26 28 29 31 36 46 52 56 58 59 58 58 58 58 57 56 57 58 59 60 61 61 59 58 57 56 56 56 54 53 52 53 52 53 53
18 17 20 18 21 24 27 18 18 19 22 24 26 26 27 28 29 31 41 51 54 56 58 58 58 58 57 57 56 57 57 58 58 59 59 60 59 58 57 56 55 55 54 52 52 52 52 51 53
13 17 16 17 19 14 31 15 18 18 19 21 24 31 33 29 30 32 40 51 54 56 58 58 58 58 57 56 56 55 55 55 56 57 59 60 59 58 57 55 53 52 53 52 52 52 52 52 51
12 17 17 28 26 28 26 23 15 16 14 32 39 41 39 37 33 33 37 47 54 57 58 58 58 57 56 55 55 55 54 54 56 57 58 59 58 58 57 56 53 52 52 52 51 51 52 52 52
33 32 33 33 30 20 21 20 16 19 22 33 41 42 42 41 41 35 36 49 54 56 58 58 58 57 56 55 55 55 54 54 56 57 57 57 57 57 57 56 55 53 52 53 52 52 51 52 52
29 25 21 17 20 11 24 24 22 31 40 40 40 41 43 44 46 44 34 49 54 56 56 57 56 56 56 55 55 55 54 55 55 56 57 56 56 56 56 56 55 53 52 52 51 52 51 52 52
28 24 18 9 16 21 26 14 23 40 39 39 41 41 42 44 46 48 42 46 53 56 56 56 56 55 55 55 55 55 55 56 55 56 56 56 56 56 57 56 55 53 51 50 51 52 51 51 52
30 25 28 24 27 21 19 22 29 37 38 40 40 39 41 44 45 49 48 47 53 55 56 56 55 55 54 54 54 54 56 56 55 56 56 55 57 57 57 57 55 53 51 50 49 51 52 52 53
29 32 24 27 19 19 20 24 27 34 37 39 39 39 43 44 45 50 47 45 53 55 55 55 55 55 55 54 54 54 55 56 55 55 55 55 55 56 56 56 56 56 53 49 48 50 48 50 52
29 28 30 29 27 19 20 21 39 37 40 40 42 42 43 43 45 50 49 49 53 54 54 55 55 54 56 54 55 55 54 55 55 55 55 55 55 55 56 56 56 55 55 54 54 53 50 53 52
31 31 29 21 24 27 27 22 39 40 41 41 41 43 42 42 44 46 52 53 53 54 53 54 54 53 54 54 53 53 54 55 56 56 56 56 55 55 55 56 55 55 55 55 55 55 54 53 51

GFSSGP_sfc_30mbdewp_096.txt.gz
Dewpoint
50 44 29 33 20 13 3 2 15 17 18 20 22 19 22 22 26 21 51 57 60 60 65 68 68 68 70 70 71 71 71 71 71 70 69 70 71 71 71 71 70 70 70 69 69 69 69 69 69
37 33 29 26 10 1 -2 5 10 15 20 23 25 23 23 21 33 43 53 59 57 60 63 66 68 68 69 70 71 70 71 71 71 71 69 71 71 71 70 70 70 70 70 70 69 69 69 69 69
36 28 20 13 8 -0 -2 3 7 19 21 21 22 25 25 26 43 44 52 61 60 61 63 65 68 68 69 70 70 69 70 71 71 71 71 70 69 69 69 70 69 69 70 69 69 68 69 69 68
30 24 22 13 2 7 7 5 19 20 18 20 21 21 30 41 46 50 57 61 59 62 63 67 67 67 68 69 70 69 69 70 71 69 68 67 66 66 66 66 67 69 68 68 68 69 69 68 68
28 20 10 9 2 2 14 15 22 21 15 15 20 20 26 47 52 55 58 61 59 64 65 67 67 67 67 69 70 69 69 69 70 69 68 67 67 67 66 65 65 64 66 66 68 69 68 67 66
20 18 6 0 2 6 14 11 15 16 15 12 18 19 21 47 52 58 61 61 62 66 67 67 67 67 67 67 69 69 69 68 68 67 67 67 67 66 65 64 65 65 66 66 66 67 67 66 66
18 12 3 -0 -1 2 9 12 12 8 8 15 20 20 26 46 53 59 61 62 65 67 68 68 67 67 67 67 68 68 68 68 67 67 68 68 66 65 64 63 63 65 64 64 65 66 66 65 65
19 12 10 3 5 4 8 13 12 12 14 23 25 23 26 46 58 61 62 64 65 67 68 67 68 67 66 67 67 67 68 67 67 67 66 66 65 65 64 63 63 64 65 65 65 65 66 65 63
24 15 9 7 7 5 11 11 15 17 19 21 23 27 43 52 60 61 60 62 63 65 66 67 67 67 66 68 67 67 67 66 66 65 64 64 63 63 63 61 64 64 64 63 63 65 65 63 62
22 18 16 14 11 10 9 13 14 17 16 18 19 35 46 51 56 57 57 58 62 64 66 66 66 66 66 67 68 67 66 66 65 64 64 63 62 62 60 60 61 61 62 62 61 64 63 62 61
23 18 19 18 16 13 11 11 11 11 7 16 17 21 24 42 45 49 52 55 59 62 64 65 66 66 66 66 67 67 67 66 65 65 63 62 62 61 61 61 62 62 62 61 63 64 61 61 61
21 20 21 19 19 17 16 15 14 14 12 11 20 18 22 24 35 41 44 49 55 59 63 65 65 65 66 65 66 66 66 65 64 64 65 63 63 63 62 61 61 61 62 61 63 63 61 61 60
24 25 21 22 20 18 18 17 16 17 16 16 16 17 21 21 25 32 39 45 51 57 62 64 65 65 64 64 64 65 65 65 64 63 64 64 63 63 62 61 61 62 62 63 63 62 61 60 59
24 25 23 22 20 20 21 20 21 22 23 20 20 21 20 20 23 27 35 42 49 55 60 63 64 64 64 64 63 64 64 64 64 64 63 64 63 63 62 61 61 63 62 63 63 62 60 60 57
22 21 22 22 24 23 24 22 20 21 22 22 21 18 20 20 23 26 32 42 48 53 57 62 64 64 64 64 63 63 63 63 63 63 63 63 63 62 62 62 62 62 62 62 62 61 60 57 56
20 21 20 22 21 21 23 20 22 24 24 24 23 22 21 22 22 25 34 41 45 49 55 60 62 63 64 64 63 62 62 63 62 62 63 62 62 61 62 62 62 62 61 61 60 60 58 56 55
23 20 22 23 24 22 20 20 21 22 23 23 23 24 24 25 25 26 31 39 44 48 54 58 61 63 63 63 63 62 63 62 62 61 61 62 62 62 62 62 62 61 60 59 60 59 57 55 54
19 20 21 21 23 24 22 21 22 23 23 25 25 26 25 25 25 25 26 30 38 45 52 58 61 62 63 62 63 62 63 62 62 62 61 61 62 61 62 62 61 59 58 58 59 58 58 56 53
19 18 19 21 22 23 22 22 22 24 24 25 26 26 25 26 26 27 27 29 34 40 50 56 60 62 62 61 60 60 60 61 61 61 62 61 62 61 61 61 60 59 57 57 57 57 56 55 54
23 23 18 19 24 24 22 21 22 23 24 25 24 25 25 26 27 27 28 30 36 41 49 55 58 61 61 61 60 59 59 60 60 61 61 62 61 59 60 60 59 58 57 57 57 56 55 54 54
22 18 16 17 19 20 20 19 20 21 21 22 23 24 25 26 27 27 28 30 36 45 49 54 57 60 60 60 59 59 58 58 58 60 60 60 59 59 58 59 59 58 57 56 57 56 55 53 54
15 16 16 17 17 15 22 13 15 17 16 18 23 34 38 39 39 36 32 30 33 45 50 53 58 58 60 60 59 57 56 55 56 57 58 60 60 58 58 58 58 58 58 56 55 56 55 54 53
12 12 15 13 11 14 18 19 12 13 14 22 29 38 40 41 41 42 39 34 33 44 52 55 58 58 59 59 58 57 55 53 56 57 58 59 59 59 58 57 58 57 57 56 56 56 55 54 53
15 14 18 21 21 20 17 15 9 13 22 32 37 39 40 41 42 43 44 40 36 43 53 57 58 57 58 59 58 57 55 53 55 56 57 58 58 58 57 56 55 56 56 55 55 54 54 54 54
22 22 20 19 20 14 17 16 11 26 36 37 37 38 39 41 43 44 45 45 38 47 54 57 57 57 57 57 57 57 55 54 54 55 57 57 57 57 56 56 55 55 55 54 53 54 53 54 54
22 20 16 8 8 10 21 17 18 33 33 36 36 37 39 40 42 44 47 48 45 47 54 57 57 57 57 57 56 56 55 54 54 55 57 57 57 57 57 56 56 55 55 55 55 54 54 54 55
26 23 24 20 24 18 14 17 24 33 31 33 35 37 40 41 41 44 47 50 48 46 53 56 56 56 56 56 56 56 55 56 54 55 55 56 57 58 57 56 56 55 54 53 52 51 53 52 52
26 26 22 22 18 15 15 17 21 27 33 34 35 38 41 40 41 43 44 50 45 47 53 56 56 55 56 56 56 56 55 56 55 56 55 55 57 58 57 57 55 54 54 54 53 50 50 50 52
27 25 25 23 24 16 14 19 34 34 34 34 36 41 40 39 40 40 42 49 48 50 55 56 56 55 55 56 55 55 55 55 56 55 55 55 56 57 57 57 56 54 53 52 51 50 50 51 50
21 20 22 18 23 24 24 21 37 30 31 36 39 39 38 38 39 39 40 45 51 53 54 55 55 55 55 55 54 55 55 55 55 55 56 55 55 55 57 57 56 55 54 52 50 49 49 49 46

GFSSGP_sfc_30mbdewp_099.txt.gz
Dewpoint
51 45 31 25 18 14 2 2 2 9 12 15 18 16 18 20 24 29 43 51 48 56 66 68 69 69 70 71 71 71 72 71 71 70 71 70 71 71 71 71 71 71 71 70 69 69 69 68 70
38 33 23 19 16 3 4 2 4 5 15 22 23 18 19 19 25 41 46 51 51 55 63 66 68 69 70 71 71 71 71 72 71 70 70 70 71 69 71 71 71 71 70 70 69 69 69 69 69
46 30 17 14 10 5 -1 1 4 3 19 20 20 20 19 22 32 37 46 52 52 55 60 66 68 68 69 70 70 70 71 72 71 71 70 71 70 68 69 69 69 70 70 69 69 69 69 69 69
33 25 18 13 10 5 4 3 4 8 15 17 19 19 23 33 38 39 52 53 52 57 58 67 67 68 69 70 70 69 71 71 71 71 70 68 68 68 67 66 67 67 67 68 67 68 69 69 68
25 17 10 6 6 5 3 7 9 13 13 14 17 17 24 38 41 44 52 53 53 57 60 67 67 67 68 69 70 69 69 69 70 70 68 67 68 67 67 66 65 65 67 66 64 67 68 68 67
21 17 9 6 6 6 4 6 10 14 15 15 14 18 20 33 43 49 54 55 56 60 63 66 67 67 68 68 69 69 69 69 69 68 68 67 67 67 66 66 66 66 66 67 67 66 67 66 66
22 15 10 7 5 4 4 10 10 9 13 12 14 16 20 34 43 51 55 57 60 64 65 66 66 66 67 68 68 69 68 68 68 68 67 67 67 66 66 66 66 66 66 66 65 64 66 64 65
23 20 15 12 8 4 4 7 10 8 6 9 18 17 18 40 48 54 57 59 62 67 67 66 66 66 66 66 67 68 68 68 67 67 66 67 66 66 65 65 66 65 64 65 64 64 66 65 64
25 19 16 14 11 10 8 6 11 10 5 16 16 22 38 42 52 55 56 60 61 64 66 66 66 65 65 66 67 67 67 67 67 67 66 65 65 64 64 62 64 66 64 64 64 65 64 64 63
25 22 20 18 15 12 9 10 9 11 11 14 17 24 38 41 48 54 55 56 59 61 64 66 66 65 64 67 68 67 66 65 65 64 66 64 63 63 62 62 64 65 64 64 64 62 63 64 63
23 22 22 20 19 16 11 10 12 10 11 9 12 20 33 35 40 47 50 52 56 59 62 64 65 65 64 63 66 65 66 65 65 64 65 63 61 64 63 63 60 60 62 62 61 62 64 63 62
22 23 23 22 21 19 16 16 13 12 12 10 10 17 23 21 29 35 41 45 49 55 59 63 65 65 64 63 64 64 64 65 65 65 64 64 63 63 62 60 62 63 63 60 61 64 63 62 62
20 21 23 23 21 21 20 18 18 17 16 15 13 11 18 18 19 25 31 37 40 49 57 63 64 66 65 63 63 65 65 65 65 65 65 64 62 62 62 62 62 63 62 62 63 62 62 62 61
22 22 24 24 23 22 21 20 19 19 19 18 17 12 12 15 17 19 25 30 36 43 53 62 64 65 65 63 62 65 65 63 65 64 64 65 64 64 62 62 62 63 61 63 63 61 61 62 61
21 23 24 24 25 24 22 21 20 22 22 22 22 18 15 16 18 17 23 26 33 38 48 62 64 65 65 63 62 63 62 61 62 63 64 64 64 64 62 63 63 62 62 62 62 61 61 61 60
19 21 21 23 23 23 23 21 22 24 23 22 22 22 18 15 16 18 22 25 28 37 44 57 63 64 65 63 62 61 61 62 60 62 64 64 64 63 62 62 62 63 62 63 61 60 60 60 58
19 18 18 19 21 21 21 20 22 23 23 23 24 23 23 21 18 19 20 23 28 34 42 53 61 63 64 64 63 62 62 63 61 60 62 63 63 63 62 62 63 63 62 61 61 60 60 60 56
18 19 20 19 21 22 22 21 21 22 22 22 23 23 23 24 23 21 21 23 29 34 40 49 59 62 63 64 63 63 62 63 62 61 60 60 62 62 61 62 62 62 61 60 60 60 59 59 55
20 20 24 23 22 23 23 23 20 21 23 23 24 25 26 26 26 26 25 24 27 32 40 48 56 61 63 62 61 62 61 62 62 62 60 59 60 61 61 62 61 60 59 59 59 58 58 57 56
21 31 30 26 23 23 21 21 22 22 22 24 24 25 26 26 26 27 27 28 28 30 35 44 52 59 63 62 61 61 60 61 61 61 59 59 60 61 62 61 60 59 59 58 59 58 57 57 56
24 28 25 21 20 23 23 20 19 20 21 22 23 24 24 25 26 28 29 29 31 32 38 39 48 55 62 62 61 60 60 59 59 60 59 60 61 62 61 61 60 59 59 57 58 58 57 56 55
16 22 22 19 23 23 19 14 15 17 18 20 21 24 28 34 36 37 36 36 34 33 35 43 46 52 62 61 58 58 57 57 57 58 56 60 61 59 59 59 60 59 58 58 58 59 57 56 54
15 18 20 22 18 16 16 18 16 16 15 16 23 31 36 38 39 40 40 41 39 35 35 45 48 52 61 60 58 58 57 56 55 54 56 60 60 59 58 59 59 58 58 58 58 58 57 56 55
18 16 14 14 11 10 12 13 15 12 11 20 32 35 36 38 40 41 42 43 43 39 37 46 51 57 60 60 59 58 57 55 53 54 57 59 59 59 58 58 58 59 58 58 59 58 57 56 55
18 16 15 13 14 13 16 16 14 23 30 33 33 34 35 38 40 40 42 44 46 46 37 45 53 58 59 59 59 58 57 55 53 55 56 58 58 57 57 57 58 59 59 58 58 58 57 56 55
17 16 22 15 17 16 15 9 11 26 31 33 32 34 36 38 39 40 42 46 49 49 43 47 54 57 57 59 58 58 57 55 53 55 56 58 58 58 57 57 56 57 57 58 57 56 56 56 56
18 18 23 26 21 16 14 21 28 29 29 31 32 35 38 38 39 40 43 45 49 50 46 49 57 56 57 58 59 58 57 54 52 55 57 57 58 58 58 57 56 56 56 56 56 55 55 56 56
21 21 21 21 15 8 11 14 26 30 30 30 32 37 39 39 39 40 42 42 46 49 45 52 57 57 57 58 58 57 56 55 54 56 57 58 58 58 57 57 56 55 56 56 56 55 55 55 55
21 23 21 19 19 19 18 23 30 26 28 31 36 38 38 38 38 38 38 39 42 46 48 57 56 57 57 57 57 57 56 55 55 56 56 56 57 57 57 57 56 55 54 54 53 54 52 53 52
19 23 20 21 19 19 23 27 29 23 28 38 38 39 38 37 37 36 35 37 39 41 50 56 56 56 57 57 57 56 56 55 56 56 56 56 57 57 58 57 56 55 54 54 53 53 51 50 50

GFSSGP_sfc_30mbdewp_102.txt.gz
Dewpoint
51 46 40 31 20 18 10 5 8 4 7 12 14 14 15 20 31 35 44 53 63 64 67 68 69 70 71 71 71 72 72 71 72 72 72 71 71 71 72 71 71 71 70 70 69 69 69 70 70
36 36 34 21 16 11 8 8 5 3 9 20 21 19 16 18 34 42 46 50 60 64 65 67 69 70 70 71 71 72 72 72 72 70 70 70 71 71 71 71 71 70 70 69 69 69 69 70 69
41 35 26 16 11 12 12 7 3 6 18 19 16 18 17 18 28 40 48 52 56 62 63 67 68 69 70 70 71 71 72 72 71 70 70 70 69 70 71 70 70 69 68 68 68 68 70 69 69
34 36 25 12 9 9 8 9 7 4 12 14 14 15 19 37 35 45 48 50 55 58 67 67 68 68 69 70 70 70 71 72 71 70 70 69 68 69 69 67 66 66 65 65 66 67 68 68 68
30 24 17 10 6 7 10 10 6 5 7 12 12 13 20 35 37 49 49 51 56 62 68 67 67 68 69 69 69 69 70 71 71 70 69 69 69 68 68 67 66 67 67 64 65 64 65 66 67
27 22 14 10 9 8 7 7 5 8 12 13 12 14 19 34 38 51 52 53 58 66 67 67 67 68 68 69 69 69 69 69 69 69 69 68 68 67 66 66 67 67 65 64 63 66 65 65 65
27 21 17 14 12 10 9 9 7 8 12 12 14 10 17 38 42 50 54 57 62 65 67 67 66 67 68 68 69 69 68 69 68 69 68 68 68 67 65 66 67 67 66 66 67 65 64 64 64
29 25 21 19 15 12 11 9 8 10 10 12 13 12 16 38 44 51 57 62 65 67 68 67 67 67 67 68 68 68 68 68 68 67 67 67 67 66 67 66 66 67 67 67 65 65 64 63 63
29 25 22 21 19 17 15 11 8 10 9 9 9 14 37 44 51 53 56 62 66 67 67 68 68 67 67 68 68 67 67 67 67 67 67 67 66 66 66 66 66 66 66 65 64 64 64 63 62
25 26 25 23 21 19 17 14 11 8 10 9 7 12 39 41 50 53 55 59 63 66 67 67 67 67 67 66 68 67 67 67 67 67 67 67 65 65 64 65 65 65 65 64 64 64 63 64 63
26 23 26 24 22 21 19 16 12 10 9 11 12 17 34 36 42 51 53 57 61 63 65 66 67 67 67 65 69 67 67 66 66 66 66 66 64 65 64 64 65 64 64 64 64 64 63 63 62
23 25 25 25 24 23 20 19 17 11 13 15 15 15 29 34 35 41 48 51 57 60 64 66 66 67 66 68 68 67 66 66 65 66 66 65 64 64 64 64 63 64 64 63 62 63 63 62 62
18 24 25 25 24 23 23 21 19 18 17 15 14 13 17 28 23 27 36 42 49 56 62 64 66 66 66 66 64 64 65 66 65 65 66 65 64 64 64 64 63 63 63 62 62 63 63 62 61
17 18 23 23 22 23 22 21 21 20 20 19 18 16 15 14 20 20 24 32 38 51 60 65 65 66 66 66 65 65 64 65 65 64 66 66 65 64 63 63 62 63 63 63 63 63 62 61 62
20 17 18 23 23 22 23 21 21 23 21 20 20 19 19 17 13 17 21 26 32 38 60 65 65 66 66 66 66 65 64 65 65 65 65 66 66 65 63 63 63 64 63 64 63 62 62 61 62
18 20 16 20 22 23 24 22 24 22 22 21 22 21 22 21 17 15 22 23 28 33 49 65 65 65 65 66 65 65 64 64 64 65 65 65 65 65 64 63 63 64 63 63 62 61 61 60 61
17 17 18 19 21 23 23 23 25 25 23 22 22 23 24 25 20 18 20 22 26 28 42 63 65 65 64 66 65 64 63 63 62 64 65 65 65 64 64 63 63 62 62 63 62 61 59 59 60
14 16 18 18 19 22 22 22 23 23 23 23 23 24 25 24 24 23 21 21 23 27 36 63 65 65 64 64 65 63 63 63 62 62 63 63 64 64 64 63 63 62 62 62 62 60 60 59 59
16 15 17 18 29 27 25 21 21 22 22 22 23 24 24 25 25 25 24 24 29 31 38 58 64 65 65 63 63 62 62 62 61 62 61 61 62 62 62 62 62 62 62 61 61 60 60 59 59
11 16 18 28 30 30 30 32 31 24 23 22 23 24 25 27 27 28 29 29 31 33 36 42 61 64 64 63 63 62 61 61 61 61 62 61 61 62 62 62 62 62 61 60 60 59 58 58 59
7 13 25 26 30 36 34 31 29 27 23 23 24 24 25 26 28 29 31 34 39 40 42 38 50 62 64 63 62 62 62 61 61 61 61 61 60 61 62 62 61 61 60 59 60 59 57 56 58
7 13 25 27 32 29 25 25 23 23 22 22 22 25 26 26 34 35 37 38 40 40 42 42 40 51 63 63 61 61 60 59 60 60 60 60 61 62 62 62 61 60 60 59 59 60 58 56 56
8 14 24 22 28 29 26 29 25 21 19 19 20 27 35 37 39 40 40 42 42 44 44 44 44 44 62 62 62 61 59 59 59 59 59 60 61 60 59 59 60 59 59 59 59 59 59 58 56
12 26 26 26 25 26 27 26 19 20 21 21 28 33 36 38 39 40 41 43 44 47 50 50 48 47 62 63 61 60 60 58 58 58 58 59 58 59 58 58 59 60 59 59 58 58 58 58 57
20 23 18 20 24 19 16 15 18 22 21 29 32 33 37 39 40 40 41 42 45 47 50 52 48 49 62 62 61 61 60 59 57 56 57 58 58 58 57 58 58 58 59 59 59 59 58 58 58
18 20 21 10 11 12 12 25 27 29 31 32 35 39 38 38 39 40 41 43 44 47 48 51 52 50 61 61 60 60 60 59 57 56 57 58 57 57 58 58 58 58 59 59 59 60 59 59 58
16 16 22 31 29 27 24 32 31 37 31 33 35 38 38 38 39 39 39 40 41 44 46 49 50 54 59 60 60 60 60 59 56 56 59 58 58 58 58 58 57 58 58 58 58 57 57 57 57
21 22 26 30 25 24 20 25 29 34 31 34 36 37 38 38 38 37 37 37 39 40 43 48 52 58 58 58 59 59 59 58 56 57 58 59 58 57 57 57 57 57 57 57 57 57 57 57 57
22 28 31 31 25 24 21 30 37 35 37 37 37 37 36 36 36 36 35 36 37 38 40 44 56 57 57 58 58 59 59 56 57 57 58 58 59 58 58 56 56 56 56 56 56 56 56 56 56
26 28 27 29 16 28 30 29 38 38 38 38 36 36 36 36 36 35 34 35 36 36 37 40 43 57 58 58 58 58 58 56 55 58 58 59 58 58 57 57 56 55 55 56 55 55 55 55 55

GFSSGP_sfc_30mbdewp_105.txt.gz
Dewpoint
47 46 45 38 24 22 18 15 14 11 9 17 18 18 16 32 38 41 61 61 64 67 69 70 70 71 71 71 72 71 71 71 72 72 71 71 71 71 71 71 71 71 71 70 69 69 70 70 70
41 40 37 34 18 14 15 18 15 11 17 21 19 17 16 36 44 55 59 62 65 66 68 69 70 70 71 71 71 71 72 72 72 71 71 71 71 70 70 71 71 71 69 69 69 69 69 69 69
40 39 31 26 18 13 14 15 15 14 20 18 17 18 18 34 45 47 61 64 63 65 67 69 69 70 70 70 71 71 72 72 71 71 71 71 70 70 70 70 69 66 66 65 66 69 68 68 68
32 37 34 21 14 14 12 11 11 10 17 16 14 15 30 39 46 51 61 63 62 65 67 68 68 69 70 70 70 70 71 72 71 70 70 70 70 69 69 68 67 67 66 66 65 64 66 66 66
33 30 25 18 15 13 11 10 10 10 8 14 13 12 32 40 48 53 56 61 65 67 66 68 68 69 69 70 70 70 71 71 71 70 70 69 69 68 67 68 67 65 64 65 66 64 65 65 66
28 27 19 19 17 15 12 11 9 9 8 13 13 14 28 46 48 51 56 63 67 66 66 67 68 68 69 69 69 69 70 70 71 70 69 69 68 67 67 67 67 63 64 66 65 61 62 63 64
31 26 20 18 15 14 14 14 12 11 10 12 13 12 24 46 50 53 58 65 67 67 66 67 68 68 68 68 68 68 69 69 69 69 69 69 68 67 65 67 67 65 65 64 64 63 62 64 63
33 30 28 25 18 17 17 16 15 13 12 14 14 13 20 41 53 57 61 66 67 66 66 66 66 67 67 68 68 68 67 68 68 68 68 68 68 66 65 67 67 65 64 64 66 66 64 63 63
28 29 28 27 24 22 21 20 20 13 10 11 11 16 43 50 55 61 63 64 66 67 66 66 66 66 67 67 67 68 67 67 67 67 67 67 67 66 66 67 67 66 65 66 66 64 63 62 60
28 25 27 28 26 24 23 22 21 16 9 10 10 40 44 50 54 59 61 63 64 65 67 67 66 66 67 67 67 67 67 66 66 66 67 67 66 66 66 66 66 66 66 65 65 64 64 63 62
17 26 26 26 27 28 26 24 22 19 10 10 10 37 40 45 52 55 61 63 65 66 66 67 67 67 67 67 66 67 67 66 66 66 66 66 65 65 65 65 66 66 65 63 64 63 63 62 61
9 15 26 27 26 25 25 26 23 23 17 14 14 28 38 39 45 51 54 62 64 66 66 66 67 66 67 68 67 67 67 66 65 65 66 65 64 64 64 64 64 64 64 63 63 63 62 62 61
19 12 13 19 25 25 25 25 24 24 24 18 16 16 35 35 38 44 48 56 62 64 66 66 66 67 66 67 67 67 66 66 65 66 66 65 64 64 63 63 64 63 63 63 63 62 62 61 61
22 21 16 16 19 25 25 25 24 23 25 21 19 18 17 33 33 34 39 42 57 62 65 66 65 66 66 66 66 66 66 65 65 65 65 64 64 64 64 63 63 64 63 63 62 62 62 61 61
14 15 17 21 17 17 22 22 23 24 24 23 21 20 21 23 28 25 23 26 35 58 64 65 65 65 66 65 64 64 65 65 64 64 66 65 64 64 63 63 62 62 63 62 62 62 62 61 61
13 16 12 16 20 18 19 20 23 24 23 22 22 22 21 21 21 19 21 20 21 42 63 64 65 65 66 66 65 64 64 64 65 64 64 65 65 64 63 62 62 62 62 63 62 62 61 60 61
11 14 12 14 20 20 18 19 23 24 24 22 22 22 22 21 21 22 20 19 19 32 62 64 65 65 65 66 66 64 64 64 65 65 64 65 65 64 63 63 63 63 62 63 62 61 61 59 60
8 16 16 14 17 20 19 18 20 26 25 25 25 23 22 23 22 25 24 22 21 25 62 64 65 64 65 65 65 64 63 63 63 64 65 64 64 64 63 63 63 62 62 62 62 60 60 59 59
10 14 17 15 17 27 31 29 27 27 27 24 24 24 24 23 25 25 25 21 22 27 62 64 64 64 64 64 64 63 62 62 61 63 64 64 64 64 64 63 62 62 61 61 61 60 59 59 60
10 9 12 14 19 33 36 35 36 36 34 33 28 23 25 25 27 25 27 26 26 30 59 64 64 64 64 63 64 63 62 62 61 61 62 62 64 63 63 62 62 62 61 61 61 60 59 58 59
18 6 6 6 32 37 35 31 32 34 32 32 30 23 25 26 27 33 37 39 41 40 46 63 64 64 64 63 63 61 61 61 60 60 60 61 61 62 62 61 62 62 62 61 61 60 59 56 59
11 7 3 5 25 29 36 26 30 31 29 30 29 24 25 36 40 41 43 43 45 47 49 49 63 64 64 63 62 60 60 59 60 60 60 61 61 61 62 61 61 61 61 60 60 60 59 58 57
23 10 7 6 31 30 33 30 30 32 29 26 26 37 39 40 41 41 42 44 45 46 48 50 51 60 64 62 62 60 60 60 60 60 61 60 60 61 61 62 61 60 60 60 60 60 59 59 57
26 25 31 32 28 24 27 27 26 27 29 24 38 40 39 40 40 41 42 42 42 43 45 47 48 51 60 62 61 60 59 60 59 59 59 59 60 60 60 59 60 60 60 60 60 60 59 58 58
26 22 22 24 23 19 24 27 24 27 32 37 38 38 39 39 39 39 39 39 40 41 42 44 45 47 50 62 61 61 60 60 59 59 58 59 59 58 58 58 58 58 59 59 59 59 59 59 58
25 23 21 15 19 18 21 22 22 32 41 40 38 39 38 38 37 37 37 37 38 39 40 41 43 45 48 59 61 61 60 59 59 58 59 58 58 57 57 57 57 58 59 59 59 59 59 59 58
22 23 27 25 31 23 20 30 33 40 41 38 38 36 36 35 36 35 35 36 37 38 39 40 41 44 48 50 62 61 61 60 58 57 59 59 58 57 57 57 57 58 58 59 59 59 58 58 58
18 24 19 28 19 20 26 29 31 36 37 37 35 35 35 35 35 35 34 35 36 37 38 39 41 46 50 59 60 60 61 60 58 57 59 58 57 57 57 57 57 58 58 58 58 58 58 58 58
23 27 31 31 29 23 25 27 37 38 37 35 35 35 35 35 35 35 35 35 35 36 37 38 40 43 52 59 59 58 59 60 57 58 58 58 57 57 57 57 56 57 57 57 57 57 57 57 57
31 29 33 25 28 30 29 28 39 37 36 35 34 34 34 34 34 34 34 35 35 35 36 36 38 40 43 49 58 58 59 58 57 58 58 58 57 57 57 56 56 56 56 56 56 56 56 56 56

GFSSGP_sfc_30mbdewp_108.txt.gz
Dewpoint
48 47 44 36 20 22 18 13 15 10 13 12 18 18 24 34 35 33 60 60 66 68 70 70 71 71 71 70 70 71 71 71 71 70 71 71 71 71 72 71 72 71 70 69 68 69 69 70 70
41 41 37 32 19 11 10 19 16 17 17 18 21 18 30 41 49 58 56 62 65 68 70 70 70 71 71 71 70 71 71 71 71 71 71 71 71 71 71 71 70 69 68 68 67 68 69 69 69
37 39 31 29 21 9 3 12 14 17 14 12 17 18 28 41 54 57 58 64 66 67 68 69 70 70 71 71 71 71 72 71 71 71 71 70 71 71 70 69 68 68 67 68 67 68 68 68 68
31 36 34 26 19 16 11 5 11 11 12 12 15 16 35 44 55 57 61 63 64 66 68 69 70 70 70 70 71 71 71 71 71 71 71 70 71 70 69 69 67 67 67 66 66 67 67 67 67
33 32 27 24 21 19 16 14 14 13 10 9 11 13 36 46 55 61 61 61 62 65 67 68 69 69 70 70 70 71 71 71 70 70 70 70 70 69 69 68 67 67 67 66 67 67 66 66 65
26 28 24 19 17 17 17 15 13 11 11 11 13 16 35 50 60 62 61 62 65 64 67 68 68 69 69 69 69 70 71 71 70 70 70 70 69 69 68 67 66 67 67 65 64 64 65 65 65
31 27 21 22 19 18 19 18 15 14 15 14 13 14 37 53 56 61 65 66 66 66 66 67 68 68 69 68 69 69 70 70 70 69 69 69 68 68 68 65 63 64 66 65 62 62 63 65 65
33 31 26 23 21 20 20 19 18 18 17 19 15 15 43 48 55 63 66 66 65 65 66 66 67 68 68 68 68 68 69 69 69 69 69 68 67 68 68 66 64 66 66 63 61 61 63 63 65
29 27 26 27 28 28 27 25 25 23 19 15 12 20 39 54 61 64 65 65 65 64 65 66 66 67 67 67 67 68 68 68 68 68 68 68 67 66 67 67 66 65 65 64 64 64 63 63 63
27 26 27 29 30 28 28 27 26 25 23 16 21 45 52 58 60 61 62 63 64 63 63 65 65 66 66 67 67 67 67 66 66 67 67 67 67 66 66 67 65 65 65 64 65 65 63 62 62
16 27 28 29 29 29 27 27 28 27 26 21 17 46 53 57 58 60 61 62 63 65 65 65 65 66 66 66 66 66 66 65 65 66 66 66 66 66 66 66 66 65 65 66 65 64 63 62 61
9 13 20 23 28 28 26 26 25 25 26 26 25 37 50 55 58 59 60 62 64 65 66 66 66 66 67 67 66 66 65 64 65 65 66 65 65 65 65 65 65 65 64 63 63 62 62 61 60
19 14 10 10 12 17 25 27 26 26 27 27 26 25 44 52 55 58 60 62 64 64 65 66 66 66 67 67 66 66 65 65 65 65 66 65 64 64 64 64 64 64 63 62 62 61 61 61 61
17 18 21 23 20 15 13 17 22 24 28 26 25 22 37 43 48 52 58 61 64 65 65 66 66 66 67 67 66 66 66 66 65 65 65 64 64 63 63 64 63 63 63 62 62 61 61 61 61
9 9 10 12 15 19 17 15 16 21 26 25 25 23 24 35 37 44 48 58 62 64 66 66 66 66 66 66 66 66 66 65 65 65 65 64 64 63 63 63 63 63 63 62 62 62 62 61 61
10 8 5 9 14 15 18 17 18 18 21 23 24 24 22 22 33 34 38 41 58 62 64 66 65 65 66 66 66 65 66 65 64 65 65 64 64 64 63 62 62 63 62 62 62 61 61 60 60
9 5 5 6 13 15 15 17 19 20 19 23 24 24 23 23 23 29 28 26 28 57 62 65 65 65 66 65 65 64 65 64 64 64 64 64 64 63 63 63 62 62 62 62 62 62 61 60 60
10 5 5 8 14 15 14 17 19 20 22 24 25 25 24 23 23 23 22 21 21 35 61 64 65 64 65 65 65 64 63 64 64 64 64 64 65 63 63 62 62 62 61 62 61 61 61 59 59
20 11 8 8 10 15 16 14 27 35 25 22 26 26 26 26 25 24 23 25 23 29 58 63 64 64 65 64 64 63 62 62 64 64 64 64 65 64 63 62 62 62 61 61 61 60 59 58 59
13 19 21 12 10 11 27 30 32 34 34 33 30 31 31 28 26 25 27 33 36 36 56 62 63 64 64 64 64 64 63 62 62 63 64 64 64 64 63 63 62 61 61 61 60 59 59 58 59
8 5 21 21 12 12 25 25 28 29 31 33 34 34 33 32 38 42 44 46 48 49 55 63 64 64 64 63 64 62 62 61 61 61 62 63 64 63 63 63 62 61 61 60 61 60 58 57 58
16 15 24 26 16 7 27 19 28 29 30 31 31 33 39 41 42 42 43 43 44 46 48 50 63 64 63 63 63 62 61 60 60 60 60 61 63 63 62 62 62 61 61 61 61 61 59 58 56
20 16 23 22 12 10 20 27 27 31 31 32 32 39 39 39 40 39 39 39 40 42 44 46 46 52 56 63 63 61 61 60 60 60 60 60 61 61 62 61 61 61 61 61 60 60 60 59 57
22 25 24 26 15 11 13 28 23 27 29 38 39 38 37 37 36 36 37 37 38 40 41 43 44 45 47 52 62 61 60 59 59 59 59 59 59 60 61 61 61 61 60 60 59 60 59 59 58
23 24 18 14 18 17 23 27 24 37 41 39 36 36 35 35 34 35 35 36 37 38 39 40 41 42 44 46 52 61 60 59 59 59 59 59 59 60 60 61 61 60 60 60 60 60 60 59 58
27 23 16 17 19 21 25 24 30 39 39 38 35 35 35 34 35 34 34 35 36 37 38 38 39 41 43 45 47 59 61 60 59 60 59 59 59 59 59 59 59 59 59 59 60 59 59 59 59
23 23 24 21 27 19 24 31 37 37 37 36 35 34 34 34 34 34 35 35 35 36 37 38 39 40 42 46 47 52 61 60 60 59 59 59 59 58 58 58 57 57 57 58 59 58 58 59 58
28 29 21 25 16 15 22 26 30 32 32 33 33 33 34 34 33 33 34 34 35 36 36 37 38 38 41 45 51 53 61 60 60 59 59 59 58 58 57 57 57 57 57 57 58 58 58 58 58
26 26 26 26 25 20 21 25 34 32 32 31 32 34 33 33 33 33 33 34 34 35 36 37 38 38 40 43 52 60 60 60 59 58 59 58 58 57 57 57 57 57 57 57 57 57 58 58 58
32 30 28 21 22 28 28 24 32 34 34 33 33 33 33 33 33 33 33 33 33 34 34 35 37 37 39 42 46 58 58 59 58 58 58 58 57 57 56 56 56 56 56 57 57 56 57 57 57

GFSSGP_sfc_30mbdewp_111.txt.gz
Dewpoint
43 44 42 34 20 21 12 10 13 10 6 11 18 18 19 34 37 32 59 60 65 66 70 70 70 71 71 71 70 70 71 70 70 71 71 71 71 72 72 72 71 70 70 69 69 69 68 69 69
40 41 35 29 16 9 5 18 10 12 13 18 17 19 23 33 51 57 57 63 66 68 69 70 70 71 71 71 71 71 71 70 70 71 71 71 71 72 72 72 70 70 69 69 68 69 68 70 69
37 37 30 26 22 6 -4 7 14 15 18 16 11 18 29 39 55 57 58 65 67 68 69 70 70 71 71 70 71 71 71 70 70 71 71 71 71 71 71 71 69 69 69 69 68 69 69 69 69
32 34 32 25 17 19 9 10 11 10 12 13 13 8 25 47 55 56 62 65 66 68 69 69 70 70 71 70 71 71 71 70 70 70 71 71 71 71 70 68 68 68 69 69 68 69 68 68 68
30 32 20 24 22 21 19 17 16 14 13 12 12 10 22 50 56 59 61 63 64 66 68 69 69 70 70 71 71 71 70 70 70 70 70 71 71 70 68 67 67 68 68 68 69 68 68 67 67
20 28 23 15 14 19 19 19 18 15 14 14 13 13 31 52 57 58 61 62 64 65 67 68 69 69 70 70 71 71 70 70 70 70 70 70 70 70 68 67 67 67 67 67 67 67 67 67 66
23 25 18 20 20 20 20 21 19 18 17 16 16 15 33 55 57 59 60 64 64 66 67 68 69 69 69 69 70 70 70 70 69 69 69 69 69 68 68 67 67 67 66 65 66 66 66 66 66
32 30 24 20 18 19 22 22 20 19 19 22 20 16 32 51 61 63 65 64 64 65 66 66 67 68 68 68 69 69 70 70 69 69 69 68 68 68 67 66 66 66 65 65 64 64 65 66 65
31 28 24 23 24 24 28 27 27 27 26 26 20 25 37 55 64 64 63 63 63 64 65 66 67 67 67 67 68 69 69 69 69 69 68 68 68 68 66 63 65 65 65 64 63 63 62 64 65
24 24 23 26 28 28 28 28 29 27 27 27 28 28 54 61 63 62 61 61 62 62 64 65 66 66 66 67 67 67 68 68 68 68 68 67 67 67 66 65 65 65 64 63 63 63 62 63 64
23 22 23 25 29 30 30 29 28 27 27 28 27 23 51 58 61 61 61 61 61 62 63 64 65 65 66 66 66 66 66 66 66 67 67 67 66 66 66 66 65 65 64 63 64 64 62 61 62
13 8 12 21 26 26 28 28 27 26 27 28 27 27 35 54 58 60 60 61 62 62 62 63 64 65 65 66 65 65 65 65 65 66 66 66 65 65 65 65 65 64 65 64 63 63 61 60 61
27 23 21 19 16 13 14 12 18 23 27 28 28 27 26 37 56 59 59 61 63 63 63 63 64 64 65 65 65 65 64 64 64 65 66 66 65 64 65 64 64 64 63 63 62 61 61 60 60
13 8 7 7 7 11 17 19 13 13 18 22 25 27 27 28 50 57 58 60 63 63 65 65 64 64 65 65 65 65 65 64 64 65 65 65 65 64 64 63 63 63 63 62 62 61 60 60 60
10 12 12 11 8 9 14 10 15 18 16 16 23 26 26 26 45 55 58 59 62 63 65 65 65 65 65 66 65 65 65 65 64 65 65 64 64 64 64 63 62 63 63 62 61 60 60 59 60
15 14 9 9 8 8 11 11 13 17 20 18 17 22 24 24 31 43 51 59 62 63 64 66 66 66 66 66 66 65 65 65 64 65 65 64 64 63 63 63 63 62 63 62 61 60 60 60 59
16 11 9 8 9 7 6 5 9 16 19 19 19 20 23 24 23 32 39 50 59 63 64 65 65 65 65 66 66 65 65 65 64 65 65 64 64 63 63 62 62 62 62 61 61 60 60 59 59
17 17 18 18 15 7 5 8 15 16 18 23 20 19 20 24 24 24 30 35 45 59 63 65 65 65 65 66 65 64 65 65 64 64 65 64 63 63 63 62 62 62 61 61 61 60 60 60 58
10 9 8 16 25 19 11 9 10 14 20 23 33 22 25 25 25 25 25 28 25 32 60 63 65 65 65 64 64 63 63 64 64 64 64 64 63 63 63 62 62 61 61 61 61 61 60 60 60
20 18 14 14 14 24 23 15 12 14 29 26 28 31 27 30 34 43 45 47 49 49 42 58 64 64 65 64 64 63 64 63 64 64 63 64 64 63 63 62 61 61 61 61 60 60 59 59 59
20 23 21 19 11 20 25 23 13 15 24 31 33 35 36 39 43 42 41 42 43 44 46 58 62 64 64 64 64 63 62 62 61 62 63 63 63 64 63 62 62 61 61 60 60 60 59 58 58
21 23 23 18 17 14 19 14 11 18 22 31 31 39 40 39 38 38 39 40 40 41 43 45 59 64 64 64 64 62 61 61 61 61 63 63 63 63 63 63 62 61 61 61 61 60 60 59 57
21 24 24 19 14 24 23 19 14 30 30 37 38 37 36 35 36 36 37 38 39 40 41 42 45 48 51 62 64 62 62 62 61 61 61 62 62 63 63 62 62 62 62 62 61 61 60 60 58
23 23 23 22 21 19 19 15 13 22 33 36 35 34 34 35 34 35 36 37 37 38 39 41 42 44 46 47 55 62 62 61 60 60 60 60 61 62 62 62 62 61 61 61 61 61 60 60 59
23 21 13 18 19 15 15 15 15 35 36 36 35 34 35 35 35 34 35 35 36 37 38 39 40 42 43 45 46 51 62 61 60 60 59 59 60 60 61 61 61 61 61 61 61 60 60 59 59
23 22 19 14 17 19 25 23 30 35 35 36 35 35 34 34 34 34 34 35 35 36 37 38 38 40 41 43 45 47 49 61 60 59 59 59 59 59 60 61 61 61 61 60 60 59 59 59 59
23 23 24 24 24 24 26 31 33 34 32 32 32 34 34 34 34 34 34 34 34 35 36 37 38 39 40 42 44 48 49 58 61 60 60 59 59 59 60 60 60 60 60 60 59 59 59 59 59
26 30 25 28 19 15 22 25 24 28 29 30 30 31 33 33 33 33 33 34 34 34 35 36 37 38 39 41 43 47 51 53 61 60 60 59 59 59 59 59 59 58 58 58 58 58 58 58 58
29 26 29 28 25 20 18 22 30 29 30 29 30 31 31 32 32 32 33 33 33 34 34 34 36 37 38 40 42 46 55 55 61 60 59 59 59 58 58 58 57 57 57 57 57 56 57 57 58
34 30 29 21 22 27 25 22 32 31 31 31 30 31 32 32 31 31 32 32 32 33 33 34 34 36 37 38 40 42 44 48 59 59 59 59 59 58 58 57 57 57 56 57 56 56 57 57 57

GFSSGP_sfc_30mbdewp_114.txt.gz
Dewpoint
41 43 41 30 15 19 7 2 14 9 12 12 18 16 15 26 41 34 59 62 64 66 69 70 71 71 71 70 70 70 70 70 70 70 71 71 71 71 71 71 71 71 70 69 69 69 68 68 69
39 40 34 28 8 3 -2 14 12 10 10 15 15 16 24 29 48 56 59 62 65 68 69 70 70 71 71 71 70 70 70 70 70 70 71 71 72 72 72 71 71 71 70 70 69 68 69 69 69
38 36 25 23 18 -2 -7 -1 9 14 14 14 12 15 19 35 51 57 58 64 66 68 69 69 70 71 71 71 71 71 70 70 70 71 71 71 72 72 71 70 70 70 70 70 69 69 70 69 69
34 33 30 20 13 16 2 9 13 12 12 14 12 8 12 42 52 57 62 66 66 67 69 70 70 70 70 71 71 71 70 70 70 71 71 71 72 72 71 69 69 70 70 69 69 70 69 69 69
31 31 11 21 20 21 19 17 17 16 15 14 14 9 13 32 57 58 63 65 65 67 68 69 69 70 70 70 71 71 70 69 70 71 71 71 71 71 70 69 69 69 70 70 70 69 68 68 68
17 28 18 12 13 19 19 19 18 17 16 15 15 14 18 46 56 60 63 64 66 66 68 69 69 70 70 70 71 70 69 69 69 70 71 71 71 70 68 68 68 69 69 69 69 68 68 68 67
19 22 15 18 18 20 20 21 20 20 19 18 17 18 20 39 57 60 62 64 65 66 67 68 69 69 70 70 70 70 69 69 69 69 70 71 70 68 68 67 67 67 68 68 68 67 67 67 67
31 28 24 20 18 19 20 21 22 21 20 21 21 20 19 38 57 62 63 63 64 66 66 66 67 68 69 69 70 69 69 69 69 69 69 69 69 68 67 67 67 67 66 67 67 66 66 66 66
32 25 24 24 23 23 26 25 28 27 25 28 25 26 29 52 62 61 61 62 63 64 65 65 66 67 67 68 69 69 69 69 68 69 68 68 68 68 67 66 67 66 65 65 65 65 66 65 65
23 23 19 23 25 25 28 28 28 29 28 28 29 30 53 62 62 58 58 58 60 62 63 64 65 66 66 67 68 68 69 69 68 68 68 67 68 67 66 65 66 65 65 64 63 62 64 64 64
17 16 20 21 24 28 28 26 30 28 28 28 28 28 33 52 61 60 59 57 56 60 63 64 64 65 66 66 66 67 67 67 68 68 67 67 67 67 65 64 65 64 65 63 64 62 62 62 63
20 15 12 12 16 15 15 20 18 21 25 28 29 29 29 38 55 60 61 59 59 59 61 63 64 64 65 65 65 65 66 66 66 67 67 66 66 66 65 64 64 64 63 62 63 62 61 61 62
12 16 21 17 9 9 9 8 15 18 20 18 16 22 25 28 38 54 60 61 61 61 61 63 64 64 65 64 64 64 65 65 65 65 66 66 65 65 65 65 64 64 64 63 62 61 60 60 60
12 11 11 12 13 10 8 8 11 12 18 16 17 19 23 25 27 37 55 59 61 62 61 62 63 64 64 64 63 64 64 64 64 65 66 66 65 65 64 64 64 64 63 62 61 61 60 59 59
15 13 15 14 11 9 9 6 4 9 10 15 16 19 19 21 27 30 46 58 60 62 62 62 62 63 64 64 64 64 64 63 63 64 65 65 65 64 64 63 63 63 63 62 61 60 60 59 59
13 15 14 13 11 11 9 6 7 7 7 10 13 17 18 19 22 27 41 55 60 62 63 64 63 63 64 64 64 64 64 63 63 64 64 64 64 64 64 63 62 63 62 61 61 60 59 59 59
16 13 15 16 16 14 10 9 11 10 8 8 11 14 18 20 20 23 33 52 58 62 63 64 64 63 63 64 64 64 64 64 63 64 64 64 64 63 63 63 62 62 62 61 61 60 59 58 58
9 12 15 16 16 17 19 19 18 17 12 12 14 18 18 23 22 23 26 43 57 62 63 64 65 65 64 65 65 64 64 64 64 64 64 64 64 63 63 62 62 62 61 61 61 60 60 59 59
13 12 12 13 13 12 11 15 17 20 19 15 14 14 20 25 27 39 41 41 37 48 61 64 65 65 65 65 63 62 63 63 63 64 64 63 63 63 62 62 61 62 61 60 60 59 58 59 59
21 20 19 18 14 20 18 17 16 19 20 20 21 14 25 25 41 42 42 43 44 46 45 58 64 64 65 64 64 63 63 63 64 64 64 64 63 63 62 62 61 61 61 60 59 60 59 59 60
17 17 14 14 20 23 19 15 15 17 16 19 21 23 37 37 40 40 40 40 41 42 44 50 62 64 65 65 64 63 63 63 63 62 63 63 63 63 62 62 62 61 61 60 61 60 60 58 59
17 18 18 20 22 20 19 15 19 15 16 21 35 36 35 36 36 37 38 38 39 40 41 44 53 62 64 65 64 62 62 61 62 63 63 63 63 63 63 62 62 61 61 61 61 61 60 59 57
19 22 23 22 23 22 20 20 19 18 19 34 35 35 34 34 35 35 36 37 37 38 39 42 45 47 50 56 64 63 62 62 61 62 62 63 63 63 63 63 62 62 62 61 61 61 60 60 58
24 24 24 23 24 18 17 18 16 30 34 34 35 35 36 35 35 35 36 36 37 38 38 40 42 43 45 49 52 60 62 62 61 61 61 61 62 62 62 62 62 62 62 61 61 61 60 60 60
25 22 16 14 18 16 19 18 24 31 34 33 33 34 35 36 35 35 35 35 36 37 38 39 40 41 43 45 47 49 54 62 61 61 61 61 61 61 61 62 61 62 62 62 61 61 61 60 60
21 20 20 14 16 20 24 20 24 31 32 33 35 35 35 35 35 35 34 34 35 36 36 37 38 40 41 43 45 47 49 51 61 60 60 60 61 61 61 62 62 61 61 61 61 61 60 60 60
22 22 28 25 24 22 27 27 31 32 31 31 30 32 32 33 34 34 34 34 34 34 35 36 37 38 39 41 44 46 48 51 51 60 60 60 60 60 60 61 61 60 60 61 61 60 59 59 59
25 28 26 27 19 16 23 22 22 25 27 29 29 29 30 32 33 33 33 33 34 34 34 35 35 36 38 39 42 44 47 51 51 54 60 60 60 59 59 60 60 60 60 60 60 59 59 59 59
29 28 30 30 27 21 18 20 29 27 28 28 28 30 30 31 31 32 32 33 32 33 33 34 34 34 36 38 40 42 43 45 52 53 61 60 59 59 59 59 59 59 58 59 58 58 58 57 57
34 30 30 26 23 27 24 19 31 30 30 30 28 29 30 31 31 31 31 32 32 31 32 32 33 33 34 36 38 39 40 42 43 46 48 60 59 59 59 59 58 58 58 57 57 56 56 56 55

GFSSGP_sfc_30mbdewp_117.txt.gz
Dewpoint
41 42 40 29 10 15 2 -1 13 6 14 15 17 14 11 18 41 29 57 61 64 67 69 70 71 71 70 70 70 69 71 72 72 72 72 71 71 71 71 72 72 72 71 70 70 70 70 70 69
40 38 34 26 2 -3 -8 9 12 9 10 15 17 15 19 29 37 47 58 62 64 67 68 69 71 71 70 70 70 70 70 71 72 72 71 71 71 71 71 71 71 71 71 70 69 69 69 70 69
38 35 23 22 11 -3 -7 -1 8 13 14 12 12 14 13 26 46 55 59 62 65 67 68 69 70 70 70 70 70 70 70 70 71 71 72 72 71 71 71 71 71 71 71 70 69 69 70 69 69
34 33 28 15 12 13 2 10 14 14 13 15 13 10 14 25 47 56 61 63 65 67 67 70 70 70 70 70 70 70 70 70 70 71 72 72 71 71 71 70 70 71 71 70 70 70 69 69 69
32 28 11 18 18 19 21 18 17 14 16 15 15 11 15 20 52 60 63 64 65 67 68 69 70 70 70 70 70 70 69 70 70 71 71 72 72 71 70 69 70 70 70 70 71 70 68 68 69
19 28 15 13 13 19 19 18 18 16 17 17 16 16 18 37 53 60 64 65 66 67 68 68 69 70 70 70 70 70 69 69 70 71 71 71 71 70 69 69 69 70 70 70 70 68 68 68 68
15 18 14 17 17 18 19 22 21 21 21 20 20 18 22 32 51 60 63 65 66 67 68 68 69 69 70 70 70 69 69 69 70 70 70 71 70 69 69 68 69 69 69 69 68 68 68 68 68
29 27 23 20 18 19 21 21 22 22 22 25 22 22 23 32 56 62 63 64 65 67 67 67 68 69 69 70 69 69 69 69 69 70 70 70 69 68 68 67 68 68 68 68 67 67 67 67 67
33 21 20 20 21 21 24 24 27 28 27 29 29 29 31 57 61 61 61 62 64 64 66 66 66 67 69 68 69 69 69 68 69 69 69 69 68 68 67 66 67 67 67 67 67 67 67 66 66
23 23 18 21 24 24 26 27 27 27 28 28 30 31 37 33 46 54 58 58 61 63 64 64 65 66 67 67 68 69 69 68 68 68 68 69 69 68 67 66 66 66 66 66 66 66 66 66 66
16 9 18 17 20 16 15 13 18 18 18 23 25 20 21 22 27 38 57 58 58 60 62 63 64 65 66 66 67 67 67 68 68 68 68 68 68 68 67 66 65 65 64 63 63 64 65 65 65
18 19 17 17 18 12 9 10 9 10 13 15 15 17 19 18 17 18 39 57 57 58 60 62 63 64 65 65 66 66 67 67 68 68 68 68 66 67 66 64 65 65 64 63 62 61 62 63 65
12 11 15 15 12 11 12 10 9 8 9 13 13 12 14 16 17 20 24 39 57 58 59 62 63 63 64 64 65 65 65 66 66 67 68 67 66 66 66 65 64 63 64 64 63 61 61 62 63
16 14 13 14 14 15 13 9 9 7 8 10 9 7 8 16 19 22 24 31 54 59 59 61 63 63 64 64 64 64 65 65 65 66 67 67 66 65 65 65 65 64 64 64 62 61 61 61 62
14 13 13 12 12 13 11 7 6 8 9 8 8 7 7 8 13 19 23 26 34 57 60 62 62 64 64 63 63 63 64 65 66 66 66 66 66 65 65 65 65 65 64 63 63 62 62 61 61
14 14 10 12 12 13 14 10 12 14 13 15 15 13 12 13 8 12 19 25 28 45 59 62 61 63 64 63 63 63 64 64 65 66 65 65 66 66 64 64 64 65 64 63 63 62 61 61 60
15 9 9 9 13 13 15 13 14 17 18 17 15 14 13 14 16 17 20 23 26 36 56 62 62 62 63 63 63 63 63 63 64 65 64 64 65 66 65 64 64 64 63 62 62 61 61 60 59
9 9 10 10 9 12 14 14 15 14 16 16 17 16 15 13 14 15 21 29 30 31 55 62 63 62 63 63 63 63 63 63 63 63 64 64 65 65 65 64 63 63 62 62 62 61 61 61 60
15 14 12 13 14 16 14 12 15 20 20 19 17 18 18 15 16 16 37 44 44 41 54 61 63 62 62 62 62 61 61 61 62 63 63 64 64 64 65 63 62 62 62 61 61 61 61 60 61
16 16 16 17 17 14 14 16 19 22 22 21 18 16 17 18 19 21 42 42 43 45 49 61 63 64 63 62 62 62 62 62 62 63 63 64 64 64 64 63 62 61 61 61 61 60 59 60 60
18 17 16 16 16 18 19 17 16 17 18 20 19 26 27 34 32 39 40 40 41 42 44 49 62 64 64 64 64 64 64 64 63 62 62 63 64 64 64 63 63 62 62 60 61 60 60 58 59
19 19 17 17 18 15 20 16 17 21 27 34 35 35 35 35 36 37 38 39 39 41 43 47 54 64 64 64 64 63 62 61 62 62 63 62 63 63 64 63 63 62 62 61 61 61 61 60 58
14 20 20 21 21 21 17 20 16 29 30 32 33 35 36 36 37 36 37 38 39 40 41 43 47 49 53 63 64 63 62 63 63 63 63 63 63 63 64 63 63 63 62 62 62 61 61 61 59
23 24 23 23 23 18 18 20 18 25 27 29 32 34 36 36 36 36 36 36 37 38 39 41 44 45 47 50 54 61 63 63 62 62 62 63 63 63 64 63 63 63 63 62 62 62 61 61 60
26 22 18 14 17 15 26 23 24 29 29 29 29 30 34 35 36 36 35 35 36 36 37 39 41 42 44 46 48 50 53 58 62 62 62 61 61 62 63 63 63 63 63 62 62 62 61 61 60
22 21 20 15 13 19 28 22 24 31 31 32 31 31 32 33 34 35 35 35 35 35 36 36 38 40 41 44 46 48 50 51 53 61 62 62 61 62 62 63 63 63 62 61 62 62 61 61 61
24 22 25 26 25 23 25 26 31 28 28 28 29 30 29 30 32 33 34 35 34 35 35 35 36 38 39 41 43 45 48 49 52 53 60 62 62 62 62 62 62 62 62 61 61 61 61 61 61
27 28 27 27 19 15 23 21 20 24 26 27 26 27 28 30 30 32 33 33 33 34 34 34 35 35 37 38 41 43 45 46 49 54 53 60 61 61 62 61 61 61 61 61 61 60 61 60 60
26 27 31 31 27 21 19 19 28 26 27 25 26 27 28 28 29 30 31 31 32 32 32 33 33 34 35 37 38 39 41 42 44 47 51 52 60 60 60 61 61 61 60 60 60 60 60 59 59
31 29 32 25 23 28 23 18 30 29 28 27 26 27 28 28 29 30 31 30 30 30 31 31 32 33 34 35 36 37 38 39 40 41 43 46 50 60 60 59 60 60 60 60 59 59 59 58 58

GFSSGP_sfc_30mbdewp_120.txt.gz
Dewpoint
42 33 34 29 14 4 -3 -7 -4 -2 5 12 15 9 6 14 16 27 51 57 59 61 67 70 71 70 70 69 69 71 72 73 72 71 71 72 72 72 72 72 72 71 71 71 70 70 71 71 70
32 32 30 19 9 2 -1 -2 3 0 3 10 8 9 14 17 32 33 46 60 59 62 66 68 71 70 70 69 69 71 72 73 72 72 72 72 72 72 72 72 72 72 71 71 69 69 71 70 69
35 33 22 17 14 9 6 3 0 4 9 8 7 11 11 15 23 37 46 60 60 62 66 67 70 70 70 69 69 70 72 72 72 72 71 71 71 72 72 71 71 71 71 71 69 69 70 69 69
29 25 19 18 16 13 8 6 9 6 5 13 11 9 11 17 30 45 55 60 60 62 65 69 70 70 70 70 69 70 71 71 72 71 71 71 71 71 71 71 71 71 71 70 70 71 69 69 68
24 22 20 18 18 19 18 16 15 14 15 16 16 16 18 23 42 44 53 61 59 63 65 70 70 70 70 70 70 70 69 70 71 72 71 71 71 71 70 70 71 71 71 70 71 69 68 68 68
20 22 18 15 16 18 19 20 18 18 19 20 21 20 21 30 41 46 53 60 62 64 66 68 70 70 70 70 70 69 69 70 71 71 71 71 71 70 70 70 70 70 70 70 70 68 68 68 68
20 15 11 11 14 16 18 20 20 21 22 21 23 21 23 25 46 50 56 62 65 66 67 67 69 69 70 70 70 69 68 69 70 70 71 71 71 70 69 69 70 70 70 70 69 68 68 68 68
23 19 10 12 11 8 13 19 18 19 21 26 25 22 25 32 40 46 54 61 65 66 68 68 68 68 68 69 69 69 68 69 69 70 70 70 70 69 68 68 69 69 69 69 68 68 68 68 67
24 9 3 1 10 8 14 21 23 25 25 24 27 28 29 34 30 31 40 50 61 65 66 67 67 67 67 67 69 69 68 68 69 69 70 69 66 67 67 66 68 69 68 68 67 67 67 67 67
10 2 1 10 13 17 20 19 19 15 15 16 16 20 28 25 25 25 25 35 50 60 63 65 66 67 67 67 67 68 67 66 67 67 68 66 65 66 64 65 67 67 67 67 67 67 66 66 64
-3 -2 -5 10 9 14 7 3 3 6 2 1 5 11 10 13 17 19 21 22 36 51 59 63 65 66 66 66 67 67 66 64 66 66 67 66 67 66 65 65 65 65 66 64 65 66 64 62 61
10 1 9 8 6 8 6 6 5 4 2 4 4 4 8 9 8 10 13 17 21 42 55 60 63 65 65 64 65 65 66 66 67 67 67 67 67 67 65 64 63 64 63 61 62 61 61 62 62
7 7 7 9 9 9 9 7 6 6 6 6 6 7 5 4 4 6 11 15 20 26 45 58 62 63 64 65 62 64 66 67 67 67 68 67 66 66 64 63 63 64 62 62 61 61 61 61 61
10 12 11 10 10 10 10 9 7 6 6 7 7 6 6 7 7 7 6 12 17 24 36 55 60 63 64 63 63 64 65 66 66 66 67 67 67 66 64 63 63 63 62 62 62 61 59 59 59
13 11 9 8 8 9 10 7 2 4 8 11 10 10 12 13 13 12 12 10 14 21 26 46 59 62 63 64 63 63 65 65 65 66 67 68 67 66 65 65 63 63 63 64 63 61 60 59 59
11 11 6 6 7 9 11 6 7 9 11 11 12 13 13 15 13 11 11 14 10 15 22 29 55 61 63 63 62 63 63 65 66 66 67 67 67 66 66 65 64 64 65 64 63 62 61 60 59
11 4 4 4 7 8 10 7 5 7 8 9 9 10 12 13 16 15 11 12 15 13 21 27 44 60 62 62 62 62 63 64 62 62 65 66 67 66 65 65 65 66 65 64 63 62 61 59 59
4 7 8 7 7 10 10 10 11 11 11 12 14 16 17 15 15 16 16 16 14 14 23 29 34 59 61 62 62 61 60 61 60 61 63 65 66 66 65 65 65 65 64 64 64 62 61 60 59
13 12 11 11 12 13 12 11 11 14 16 17 18 18 18 18 18 14 17 18 18 22 37 36 34 52 61 61 59 58 58 59 59 60 61 63 65 65 65 64 65 65 64 63 63 63 61 61 60
17 15 14 12 13 13 12 13 14 16 23 31 32 32 31 30 26 20 18 20 38 41 43 43 42 45 60 61 59 57 58 58 58 59 60 62 64 65 65 64 64 64 63 63 63 62 61 61 61
19 15 14 12 15 17 15 12 14 21 27 28 31 33 35 35 35 35 37 39 42 42 44 45 51 47 58 60 61 59 59 58 59 59 59 62 64 64 64 64 63 63 63 63 62 62 61 60 61
18 14 12 13 16 15 18 16 16 22 23 25 28 32 36 37 38 37 38 39 40 41 43 47 53 59 61 63 61 60 59 59 61 59 60 62 63 63 63 64 64 63 63 62 62 62 61 61 59
17 19 17 18 20 20 16 17 16 23 23 25 27 30 33 35 37 37 37 37 38 39 40 45 49 51 56 64 63 62 61 60 61 61 61 62 63 63 63 63 63 63 63 63 62 62 61 62 60
23 23 23 22 21 17 18 23 19 24 27 26 30 28 32 32 34 36 37 37 37 38 39 42 46 47 50 54 60 63 62 62 62 62 62 63 63 63 64 63 64 63 63 62 63 62 62 62 61
24 24 17 15 18 8 21 23 25 29 30 30 29 30 30 31 31 33 34 35 37 37 38 40 42 43 47 50 52 55 58 60 63 62 62 63 63 63 63 63 63 63 63 63 63 62 62 62 62
23 24 18 16 14 17 21 21 25 27 30 30 30 30 31 30 31 31 32 34 35 36 37 38 39 40 43 46 48 50 52 53 55 57 59 62 63 63 63 64 64 63 64 63 64 63 63 62 62
23 22 25 24 24 23 25 27 30 24 25 27 28 27 28 29 29 30 32 33 34 35 35 37 38 38 39 42 44 46 47 49 51 53 55 56 63 63 63 64 63 63 64 63 63 63 62 62 62
27 27 23 28 20 17 23 23 21 24 25 27 26 26 27 29 28 29 30 31 32 33 34 35 36 36 37 39 41 42 44 45 47 50 53 55 55 61 63 62 63 63 63 63 63 62 62 62 61
24 26 28 30 24 20 18 21 28 26 27 25 25 27 27 28 27 28 29 30 29 31 32 33 33 34 35 37 38 39 40 42 43 44 46 48 52 53 62 62 62 62 62 61 61 61 61 61 61
22 26 32 27 23 27 26 21 30 28 28 27 26 27 28 28 28 28 28 29 27 28 29 30 32 33 34 35 36 36 37 38 39 40 41 44 47 49 55 61 61 61 61 61 60 60 60 60 60

GFSSGP_sfc_30mbdewp_123.txt.gz
Dewpoint
44 37 27 26 17 9 2 -1 -3 -2 1 8 11 6 6 6 13 19 33 55 56 55 68 70 70 70 70 70 71 72 72 72 72 71 72 72 72 72 72 72 72 71 72 71 70 70 69 71 71
33 28 27 26 16 7 3 1 -1 3 2 5 5 4 5 14 25 28 37 48 55 57 65 67 70 70 70 70 71 72 72 72 72 72 72 72 72 72 72 72 72 71 72 71 70 70 71 71 70
34 28 26 22 17 13 8 8 4 3 5 6 4 8 6 14 21 33 43 54 59 58 64 66 70 70 69 69 70 71 73 72 72 72 72 72 72 72 72 72 71 71 70 70 70 69 71 69 69
28 26 25 20 17 16 14 11 9 11 10 9 11 12 14 15 30 38 44 55 59 59 63 69 70 70 70 69 69 71 72 72 72 72 72 72 72 72 72 71 71 70 70 70 70 70 69 69 69
26 25 20 18 17 17 18 18 18 17 17 17 18 18 20 23 36 43 48 52 59 59 62 70 69 70 70 69 69 70 71 72 71 71 72 72 72 72 71 71 71 71 70 70 69 69 69 68 68
18 18 14 12 10 12 16 18 17 17 19 20 21 22 23 25 40 44 49 55 60 59 63 69 70 70 70 70 69 69 70 71 71 71 71 71 71 70 70 71 71 71 70 70 70 68 68 68 68
18 10 8 7 5 6 9 12 13 15 15 16 22 22 24 26 38 34 41 55 61 64 64 66 69 69 70 70 69 68 69 70 71 71 71 71 70 70 70 70 70 70 70 69 69 68 68 68 68
15 10 9 5 2 6 10 10 15 14 16 23 22 20 25 30 33 30 31 38 58 64 67 67 68 68 68 68 69 68 68 69 70 70 70 70 69 69 69 69 70 70 70 70 68 68 68 68 68
12 3 -5 -3 -1 2 8 11 19 18 14 12 13 22 24 25 28 24 26 31 35 59 65 67 67 67 67 67 68 68 68 68 69 70 70 69 66 68 68 67 68 69 69 69 68 68 68 67 67
2 -3 -5 -3 2 10 11 13 8 3 -0 -1 4 9 10 12 14 12 16 23 28 32 58 65 66 66 66 64 67 67 67 66 67 66 68 67 64 65 64 65 68 68 68 67 67 67 67 67 64
-2 -7 -4 -5 -1 -0 1 1 1 -2 -3 -1 -1 2 5 6 7 9 9 12 22 25 31 61 64 68 67 64 64 65 64 64 65 66 67 66 65 66 64 66 66 66 67 65 65 66 65 62 62
9 5 -1 -1 3 4 4 4 2 2 3 4 4 5 6 5 5 6 5 6 14 20 24 46 62 66 67 66 64 64 61 62 62 64 66 66 65 65 65 64 64 65 64 63 62 62 61 61 62
3 4 4 5 5 5 6 6 7 7 7 6 5 5 6 6 5 5 6 7 7 12 22 33 54 63 65 66 62 63 63 63 61 63 67 67 65 65 64 64 64 65 64 62 62 62 62 62 62
7 9 8 7 7 7 6 5 5 5 6 5 5 6 9 8 8 9 10 12 13 12 16 31 39 60 63 64 65 63 63 63 65 67 67 67 67 66 65 64 63 64 64 63 63 62 62 60 60
12 9 7 5 5 6 7 5 3 4 4 5 7 9 10 10 11 12 13 15 14 15 15 25 36 56 63 63 63 62 61 64 66 67 68 68 68 67 64 65 64 65 64 64 63 63 61 61 60
10 9 7 2 4 5 7 4 3 3 5 6 6 6 7 8 9 10 12 13 15 13 14 21 23 34 62 64 62 62 61 64 65 66 67 68 68 66 65 62 63 65 64 64 63 63 61 61 60
8 1 -0 2 4 5 6 5 5 10 9 10 11 11 13 14 15 16 16 15 14 14 14 20 27 34 51 64 63 63 62 63 62 64 66 67 68 67 66 62 64 65 64 64 63 62 62 61 60
2 3 5 5 6 8 8 8 8 11 13 16 21 26 28 28 28 29 25 19 15 16 17 20 25 32 40 63 64 62 61 61 61 61 62 66 68 67 67 65 65 66 65 64 64 63 62 61 60
12 12 10 10 10 11 10 9 10 13 24 27 27 27 28 30 32 34 35 32 25 17 20 21 25 35 41 59 63 62 60 60 60 58 59 65 67 67 66 65 65 66 65 64 64 63 62 61 61
16 16 14 12 10 10 11 14 13 15 25 24 25 26 28 31 33 34 35 39 37 41 39 38 38 40 44 42 62 62 59 59 58 57 59 63 65 66 66 65 65 65 64 64 64 64 62 62 62
16 16 16 11 10 11 14 12 12 19 23 24 25 26 27 29 31 35 36 37 39 40 42 42 43 40 43 48 59 61 60 58 57 56 58 62 64 65 65 66 65 65 64 63 63 63 62 61 62
17 16 13 13 14 12 15 14 14 22 23 26 26 27 27 28 30 32 36 37 37 38 39 41 42 43 45 53 57 60 58 55 55 56 57 60 63 64 65 65 65 64 64 63 62 63 63 62 60
18 21 21 21 20 20 16 15 15 24 25 26 27 27 27 28 29 30 32 35 38 38 38 39 42 47 49 53 58 60 59 57 57 57 57 59 63 63 64 64 65 64 63 63 63 62 62 62 61
24 23 22 22 20 16 16 16 18 25 27 27 28 28 27 30 30 29 30 32 36 38 38 39 41 45 47 52 59 59 60 58 57 58 59 60 62 62 63 63 64 64 63 63 63 63 62 62 62
24 20 16 11 17 14 16 16 25 24 25 26 27 29 27 28 30 29 29 31 33 35 37 39 40 42 45 50 53 55 61 60 60 61 61 62 62 62 62 63 64 64 64 63 63 63 62 62 62
20 20 16 12 12 14 17 20 27 24 26 27 26 28 27 28 29 29 30 31 31 33 35 38 39 41 44 47 49 51 52 57 57 57 57 62 62 63 63 63 64 64 64 64 63 63 62 62 62
22 18 25 25 20 21 22 29 28 25 26 27 26 27 27 29 30 29 29 30 30 32 32 36 38 39 41 42 46 48 49 52 54 55 56 57 58 60 64 64 64 64 64 64 63 63 63 63 63
24 22 22 26 21 17 18 25 24 25 26 26 26 26 27 28 28 28 28 29 30 31 33 35 37 37 38 40 43 44 45 46 47 48 49 50 53 55 57 64 64 64 64 64 64 63 63 64 63
22 24 27 26 22 21 18 23 28 27 27 26 26 27 28 28 28 28 28 29 30 30 31 33 36 36 36 37 38 39 41 42 43 43 44 46 49 50 52 58 63 63 63 63 63 62 62 62 62
20 23 23 26 21 29 29 23 29 27 26 26 27 28 28 28 28 29 28 29 28 29 30 32 33 35 36 36 36 37 37 38 38 39 40 42 44 45 45 48 49 55 60 62 61 61 61 61 61

GFSSGP_sfc_30mbdewp_126.txt.gz
Dewpoint
45 40 37 27 21 16 9 4 2 -1 2 8 6 4 1 2 7 21 43 50 53 66 69 70 70 70 70 71 71 72 72 72 72 71 72 72 71 72 72 72 72 72 73 72 71 71 70 71 71
42 36 27 25 21 14 7 7 1 4 5 6 5 4 4 11 24 31 42 50 57 59 69 69 70 70 70 71 71 72 72 72 72 71 72 72 71 72 72 72 71 71 72 71 70 70 70 71 70
40 32 27 25 21 17 12 11 8 6 4 6 5 9 9 9 22 37 46 51 58 58 67 69 70 70 70 70 71 72 72 72 71 71 72 71 71 72 72 72 71 71 72 71 69 70 70 70 69
32 27 25 22 19 17 16 16 10 12 12 8 12 12 16 18 27 42 48 52 59 59 65 69 69 70 70 70 71 72 72 72 71 71 72 72 72 72 72 71 71 70 70 70 70 70 70 69 69
25 24 21 20 19 18 17 16 18 18 18 18 19 19 20 28 40 41 48 56 60 64 70 69 69 69 70 69 70 71 72 72 71 72 72 72 72 72 71 71 70 70 70 70 69 69 69 68 68
21 19 15 11 11 10 10 17 17 16 15 16 18 21 24 38 36 34 36 52 61 64 70 70 69 69 69 69 69 70 71 71 71 71 72 72 72 72 71 70 70 70 70 70 69 69 68 68 68
18 16 11 9 8 8 7 10 10 14 14 16 21 20 23 33 34 33 33 39 57 64 68 71 70 69 69 69 69 69 70 71 71 71 71 71 71 71 70 70 70 70 70 70 69 68 68 68 68
12 8 5 5 6 3 8 11 12 15 18 17 16 17 19 25 26 25 26 29 39 62 66 68 70 69 69 69 69 68 69 70 71 71 71 70 70 70 70 70 70 70 70 69 69 68 68 68 68
5 6 -1 -4 -4 -1 8 11 16 14 7 5 5 4 9 17 13 16 18 23 30 38 56 68 69 69 69 68 69 68 68 69 70 70 70 69 69 69 69 69 69 70 69 69 68 68 68 68 67
-3 -2 -2 -3 -4 -5 2 2 4 1 0 -0 -1 3 7 10 10 12 11 14 21 29 35 65 67 68 69 68 69 68 68 68 69 70 70 70 69 69 68 67 68 69 69 68 68 67 67 67 67
1 -3 -2 -3 -4 -1 0 0 1 1 -0 2 5 7 8 9 10 11 9 11 14 16 28 35 67 66 66 67 69 69 68 67 67 68 69 69 68 67 66 67 68 68 68 67 67 67 67 66 64
0 3 5 1 1 1 0 2 2 3 6 8 8 9 9 7 9 10 10 10 11 15 21 28 48 68 68 67 67 68 67 67 67 67 68 67 67 67 66 67 67 67 67 66 65 66 65 64 64
1 1 2 3 3 3 5 5 6 6 5 6 7 7 7 7 9 11 11 11 13 17 22 28 37 67 68 67 65 67 65 65 65 67 68 68 67 67 66 66 66 66 66 65 64 64 64 63 63
6 7 7 6 5 6 5 4 4 5 7 4 4 5 7 9 10 11 13 15 20 21 22 25 30 42 67 66 66 67 65 65 65 65 67 68 67 67 66 66 65 65 65 65 64 63 63 63 62
11 8 8 8 6 4 6 3 3 5 3 6 8 8 7 8 8 10 13 16 16 17 19 25 28 34 48 66 66 65 66 65 64 66 67 68 68 67 66 66 65 65 65 64 64 63 63 62 62
10 10 8 5 2 3 5 3 3 5 7 9 9 11 15 22 29 32 35 35 35 31 22 23 26 26 35 56 65 64 63 64 65 66 68 68 68 68 67 65 65 65 65 64 63 63 62 61 61
7 5 4 -0 2 5 5 4 5 6 7 11 22 27 27 28 30 33 34 34 36 39 39 36 29 31 34 41 63 63 63 64 65 65 65 68 68 68 67 66 65 66 65 64 63 63 63 62 61
5 3 1 3 5 6 8 7 7 8 9 25 27 26 26 27 29 30 32 35 36 39 43 44 44 34 36 40 55 64 64 62 64 65 66 66 68 68 66 66 65 66 65 63 64 63 63 62 61
10 5 6 9 11 9 9 8 7 9 23 26 25 25 26 27 28 29 31 34 36 38 40 41 43 45 39 31 50 60 62 61 63 63 65 66 66 67 65 65 66 66 65 64 64 64 63 62 62
10 11 11 12 12 9 8 7 9 13 25 25 25 26 26 27 27 28 30 32 34 36 38 39 40 41 43 45 43 52 60 61 61 62 62 65 66 66 65 64 65 65 64 65 64 63 63 63 62
10 12 12 13 12 12 11 9 7 24 26 27 27 27 27 27 27 28 29 30 32 33 36 37 39 39 41 44 46 45 49 60 60 61 60 65 66 66 66 64 63 64 63 64 63 62 62 61 62
11 15 14 14 16 13 16 15 16 19 26 27 27 28 27 27 28 28 29 28 29 31 34 37 37 38 40 43 45 49 51 53 59 60 59 64 66 66 66 64 64 63 63 62 63 62 62 61 61
17 18 19 19 18 18 19 15 23 25 27 26 26 27 27 27 28 28 28 29 29 30 33 36 37 38 41 43 47 48 49 52 56 59 58 61 66 65 65 64 65 63 63 63 62 62 62 62 61
21 20 20 20 17 17 17 22 28 27 25 26 27 27 26 27 28 28 28 29 30 31 33 34 36 38 41 44 46 49 51 53 53 58 57 59 64 65 64 64 65 64 63 62 62 62 63 61 62
19 21 15 12 12 13 16 15 26 25 26 26 26 28 27 27 28 28 28 29 31 30 31 33 35 37 40 42 47 51 53 56 58 58 57 58 62 64 64 64 64 64 63 63 63 63 62 62 61
19 18 15 10 13 17 17 18 24 25 27 27 26 27 26 27 28 29 30 30 30 30 30 32 33 36 39 42 46 48 50 53 55 54 57 61 63 63 64 63 63 64 64 63 63 62 63 62 62
20 18 22 22 19 20 20 29 28 27 26 27 26 26 27 27 27 28 30 30 29 30 30 31 33 36 39 41 43 44 45 47 49 50 52 55 54 56 59 63 64 64 64 63 63 63 63 63 62
19 20 19 23 21 15 14 27 27 25 26 26 26 26 27 27 27 28 29 29 29 30 31 32 33 35 37 40 40 41 41 43 45 47 47 48 48 51 51 53 61 62 64 64 63 63 63 62 62
22 22 26 26 25 20 20 24 28 27 27 25 26 27 28 28 27 28 29 29 31 30 31 31 33 34 36 37 37 37 38 39 40 41 43 44 44 44 45 46 47 48 52 58 63 63 63 63 63
20 19 21 20 18 25 26 25 28 28 27 25 25 27 29 29 28 29 29 28 30 30 31 31 32 34 34 36 35 36 36 37 37 37 38 39 40 40 40 41 41 41 40 42 45 48 56 61 62

GFSSGP_sfc_30mbdewp_129.txt.gz
Dewpoint
46 40 39 37 23 20 15 12 10 4 6 5 5 3 2 19 27 39 48 55 67 68 70 70 70 70 71 71 72 72 72 72 71 71 71 71 71 71 70 71 72 72 72 72 71 71 70 69 69
47 38 34 27 23 20 18 16 3 3 5 6 8 8 7 19 41 47 50 56 62 69 69 69 70 70 70 71 72 72 72 72 71 71 71 71 71 71 71 70 71 72 71 71 71 70 70 70 69
43 39 28 26 24 20 19 18 7 4 7 7 8 10 12 18 42 48 55 58 63 69 69 69 70 70 70 71 71 72 72 72 71 71 71 71 71 71 71 71 71 71 71 71 70 70 70 70 69
37 29 26 22 21 21 21 19 15 15 11 11 14 16 35 36 38 41 57 58 65 68 70 69 69 69 70 70 71 72 72 71 71 71 71 71 71 71 71 71 70 71 71 70 70 70 70 69 69
35 26 22 22 21 22 20 13 18 15 16 20 21 22 35 33 33 35 38 56 60 69 69 69 69 69 69 70 71 72 72 71 71 71 71 71 71 71 71 70 70 70 70 70 70 70 69 68 68
20 22 17 14 14 12 10 14 16 16 19 19 19 24 35 34 32 30 28 33 61 68 69 69 69 69 69 69 70 71 71 71 71 71 71 71 71 71 70 70 70 70 70 70 69 69 68 68 68
18 17 15 13 12 10 9 14 16 19 17 10 11 16 30 26 22 21 21 21 33 63 70 69 69 69 69 68 69 70 71 71 71 71 71 71 71 71 70 70 70 70 70 69 69 68 68 68 68
7 8 5 5 3 5 8 11 13 5 12 6 8 9 4 20 16 15 16 17 19 46 64 70 69 69 69 69 68 68 70 70 71 71 71 71 71 70 70 70 69 70 70 69 68 68 68 68 67
5 4 6 4 -2 -4 -0 1 4 3 2 4 2 3 11 12 14 13 14 14 17 22 31 66 69 69 68 68 68 68 68 70 70 70 70 70 70 70 70 69 69 70 69 69 68 67 67 67 67
2 -0 1 3 -0 -3 0 1 1 1 2 2 3 9 10 11 11 12 11 11 12 14 18 47 68 69 68 68 68 67 68 69 70 70 70 70 69 69 69 69 69 69 69 69 68 67 67 67 66
-1 -3 -1 1 5 2 1 0 4 2 1 4 7 9 10 10 10 9 10 12 13 16 22 25 43 63 69 69 68 68 67 67 69 70 70 69 69 69 68 68 68 69 68 68 67 67 67 66 66
1 2 3 4 3 3 2 3 3 4 5 8 9 9 10 10 7 10 12 13 13 15 20 24 31 47 64 67 67 68 67 67 67 68 69 69 68 68 67 67 68 68 68 67 67 66 66 66 65
2 2 4 5 7 5 4 4 5 7 9 8 7 7 6 9 10 14 27 29 30 28 25 23 24 34 47 64 66 66 67 67 67 67 68 69 68 66 66 67 67 67 67 66 65 65 65 65 64
9 10 10 9 8 6 5 6 6 6 7 7 6 7 6 21 32 33 33 34 35 36 38 42 42 31 41 57 65 65 66 67 67 67 67 68 67 67 66 66 66 66 66 66 65 65 64 64 64
12 9 9 8 8 8 7 4 4 7 8 8 10 25 29 30 31 31 31 32 34 35 37 41 43 45 42 52 63 65 65 65 66 66 67 68 67 67 66 65 66 66 66 65 64 64 63 63 63
12 12 9 11 10 8 5 3 4 5 7 8 27 27 28 29 29 29 30 32 33 34 36 38 40 43 45 45 54 64 65 64 65 65 67 67 67 67 66 65 65 65 65 64 64 63 62 62 62
13 10 10 9 5 5 5 5 8 8 7 25 26 26 27 27 28 28 30 31 31 33 34 36 38 40 42 43 47 55 61 63 64 64 66 67 67 68 66 66 65 66 65 64 64 63 62 61 61
9 9 6 3 6 10 10 9 10 9 22 25 26 27 27 27 27 28 30 30 30 31 32 34 36 38 40 41 43 49 58 64 63 62 65 67 68 68 67 66 65 66 65 64 63 62 62 61 60
12 9 6 8 10 12 12 10 10 15 25 26 27 27 27 27 28 29 29 29 30 30 30 32 33 36 38 39 40 43 47 52 63 62 63 65 67 68 67 66 65 66 64 63 63 62 61 61 62
9 10 11 13 14 14 11 10 20 25 26 27 27 28 27 27 27 28 29 29 29 29 29 30 32 35 36 37 39 41 44 49 50 59 62 64 65 67 67 65 65 65 64 63 63 62 62 62 62
12 8 11 13 15 16 16 15 23 27 27 27 28 28 27 27 27 28 28 27 27 27 28 30 31 32 35 37 38 41 43 48 52 52 60 61 64 66 66 65 65 65 65 63 63 63 62 61 62
12 12 16 18 18 16 17 13 24 27 26 27 28 28 27 27 28 28 27 27 27 28 30 30 31 32 34 37 39 40 43 46 48 51 52 57 62 65 65 64 64 65 64 64 63 62 62 62 61
10 20 19 19 19 19 19 19 23 29 28 27 28 28 27 27 28 28 28 27 28 29 30 30 30 32 34 37 39 41 42 45 47 48 50 51 60 64 65 64 63 62 63 63 63 61 60 62 61
21 20 20 20 20 18 19 19 26 25 26 27 27 28 27 27 27 27 28 28 28 29 31 31 30 33 34 37 39 41 43 45 46 48 50 50 54 62 65 65 63 63 63 62 62 62 61 60 61
19 19 18 15 14 16 20 19 25 26 27 27 26 27 26 26 27 27 28 27 28 30 31 32 32 33 35 38 40 42 44 48 49 48 50 52 51 51 64 65 63 63 63 63 62 61 62 61 60
19 19 19 13 17 21 21 20 24 27 28 27 26 26 27 26 27 27 27 28 28 31 31 31 32 32 35 37 39 42 45 48 51 53 55 54 51 51 64 64 63 63 63 63 62 62 62 62 62
18 16 18 21 21 19 24 26 29 27 27 26 26 26 26 27 27 27 28 27 29 30 31 31 31 32 33 36 38 40 41 44 49 51 52 53 51 51 52 63 63 63 63 63 63 62 62 62 62
19 20 19 23 18 19 19 26 26 25 26 26 26 26 26 27 26 26 27 27 30 31 31 31 31 31 32 34 37 38 39 41 42 43 44 47 51 51 48 48 54 60 61 63 63 62 62 62 62
18 18 27 30 25 21 19 22 29 27 26 26 25 25 27 27 26 27 27 28 29 31 30 30 31 31 31 33 34 36 37 37 37 38 39 40 43 45 45 43 42 44 46 48 53 57 60 62 62
22 24 28 24 20 23 23 22 29 28 26 26 25 26 27 27 27 27 28 28 28 29 30 30 30 30 32 32 32 35 35 35 34 35 36 37 38 40 39 38 39 39 41 43 45 46 49 51 51